﻿<?xml version="1.0" encoding="utf-8"?><gpx creator="Garmin Desktop App" version="1.1" xsi:schemaLocation="http://www.topografix.com/GPX/1/1 http://www.topografix.com/GPX/1/1/gpx.xsd http://www.garmin.com/xmlschemas/WaypointExtension/v1 http://www8.garmin.com/xmlschemas/WaypointExtensionv1.xsd http://www.garmin.com/xmlschemas/TrackPointExtension/v1 http://www.garmin.com/xmlschemas/TrackPointExtensionv1.xsd http://www.garmin.com/xmlschemas/GpxExtensions/v3 http://www8.garmin.com/xmlschemas/GpxExtensionsv3.xsd http://www.garmin.com/xmlschemas/ActivityExtension/v1 http://www8.garmin.com/xmlschemas/ActivityExtensionv1.xsd http://www.garmin.com/xmlschemas/AdventuresExtensions/v1 http://www8.garmin.com/xmlschemas/AdventuresExtensionv1.xsd http://www.garmin.com/xmlschemas/PressureExtension/v1 http://www.garmin.com/xmlschemas/PressureExtensionv1.xsd http://www.garmin.com/xmlschemas/TripExtensions/v1 http://www.garmin.com/xmlschemas/TripExtensionsv1.xsd http://www.garmin.com/xmlschemas/TripMetaDataExtensions/v1 http://www.garmin.com/xmlschemas/TripMetaDataExtensionsv1.xsd http://www.garmin.com/xmlschemas/ViaPointTransportationModeExtensions/v1 http://www.garmin.com/xmlschemas/ViaPointTransportationModeExtensionsv1.xsd http://www.garmin.com/xmlschemas/CreationTimeExtension/v1 http://www.garmin.com/xmlschemas/CreationTimeExtensionsv1.xsd http://www.garmin.com/xmlschemas/AccelerationExtension/v1 http://www.garmin.com/xmlschemas/AccelerationExtensionv1.xsd http://www.garmin.com/xmlschemas/PowerExtension/v1 http://www.garmin.com/xmlschemas/PowerExtensionv1.xsd http://www.garmin.com/xmlschemas/VideoExtension/v1 http://www.garmin.com/xmlschemas/VideoExtensionv1.xsd" xmlns="http://www.topografix.com/GPX/1/1" xmlns:xsi="http://www.w3.org/2001/XMLSchema-instance" xmlns:wptx1="http://www.garmin.com/xmlschemas/WaypointExtension/v1" xmlns:gpxtrx="http://www.garmin.com/xmlschemas/GpxExtensions/v3" xmlns:gpxtpx="http://www.garmin.com/xmlschemas/TrackPointExtension/v1" xmlns:gpxx="http://www.garmin.com/xmlschemas/GpxExtensions/v3" xmlns:trp="http://www.garmin.com/xmlschemas/TripExtensions/v1" xmlns:adv="http://www.garmin.com/xmlschemas/AdventuresExtensions/v1" xmlns:prs="http://www.garmin.com/xmlschemas/PressureExtension/v1" xmlns:tmd="http://www.garmin.com/xmlschemas/TripMetaDataExtensions/v1" xmlns:vptm="http://www.garmin.com/xmlschemas/ViaPointTransportationModeExtensions/v1" xmlns:ctx="http://www.garmin.com/xmlschemas/CreationTimeExtension/v1" xmlns:gpxacc="http://www.garmin.com/xmlschemas/AccelerationExtension/v1" xmlns:gpxpx="http://www.garmin.com/xmlschemas/PowerExtension/v1" xmlns:vidx1="http://www.garmin.com/xmlschemas/VideoExtension/v1">

  <metadata>
    <link href="http://www.garmin.com">
      <text>Garmin International</text>
    </link>
    <time>2019-01-07T16:50:28Z</time>
    <bounds maxlat="46.196317691355944" maxlon="8.971721101552248" minlat="46.185475448146462" minlon="8.950668023899198" />
  </metadata>

  <trk>
    <name>capanna mognone-2019-01-06</name>
    <extensions>
      <gpxx:TrackExtension>
        <gpxx:DisplayColor>Yellow</gpxx:DisplayColor>
      </gpxx:TrackExtension>
    </extensions>
    <trkseg>
      <trkpt lat="46.185822542756796" lon="8.96445038728416">
        <ele>689.39999999999998</ele>
        <time>2019-01-06T07:36:02Z</time>
      </trkpt>
      <trkpt lat="46.185829248279333" lon="8.964460110291839">
        <ele>689.39999999999998</ele>
        <time>2019-01-06T07:36:03Z</time>
      </trkpt>
      <trkpt lat="46.185852633789182" lon="8.964496739208698">
        <ele>691.33000000000004</ele>
        <time>2019-01-06T07:36:07Z</time>
      </trkpt>
      <trkpt lat="46.185917342081666" lon="8.964547365903854">
        <ele>693.25</ele>
        <time>2019-01-06T07:36:18Z</time>
      </trkpt>
      <trkpt lat="46.185937123373151" lon="8.964544348418713">
        <ele>694.69000000000005</ele>
        <time>2019-01-06T07:36:29Z</time>
      </trkpt>
      <trkpt lat="46.185910385102034" lon="8.964506210759282">
        <ele>696.61000000000001</ele>
        <time>2019-01-06T07:36:33Z</time>
      </trkpt>
      <trkpt lat="46.185876103118062" lon="8.964413087815046">
        <ele>698.04999999999995</ele>
        <time>2019-01-06T07:36:43Z</time>
      </trkpt>
      <trkpt lat="46.185874929651618" lon="8.96436438895762">
        <ele>699.5</ele>
        <time>2019-01-06T07:36:52Z</time>
      </trkpt>
      <trkpt lat="46.185846431180835" lon="8.964272858574987">
        <ele>701.89999999999998</ele>
        <time>2019-01-06T07:37:02Z</time>
      </trkpt>
      <trkpt lat="46.185821620747447" lon="8.964154589921236">
        <ele>702.38</ele>
        <time>2019-01-06T07:37:11Z</time>
      </trkpt>
      <trkpt lat="46.185801923274994" lon="8.964075800031424">
        <ele>702.86000000000001</ele>
        <time>2019-01-06T07:37:20Z</time>
      </trkpt>
      <trkpt lat="46.185800330713391" lon="8.963982090353966">
        <ele>704.77999999999997</ele>
        <time>2019-01-06T07:37:30Z</time>
      </trkpt>
      <trkpt lat="46.185801839455962" lon="8.96387237124145">
        <ele>707.19000000000005</ele>
        <time>2019-01-06T07:37:40Z</time>
      </trkpt>
      <trkpt lat="46.185799743980169" lon="8.963794838637114">
        <ele>709.11000000000001</ele>
        <time>2019-01-06T07:37:50Z</time>
      </trkpt>
      <trkpt lat="46.185792116448283" lon="8.963719736784697">
        <ele>709.59000000000003</ele>
        <time>2019-01-06T07:37:59Z</time>
      </trkpt>
      <trkpt lat="46.185806198045611" lon="8.963661314919591">
        <ele>710.07000000000005</ele>
        <time>2019-01-06T07:38:08Z</time>
      </trkpt>
      <trkpt lat="46.185807706788182" lon="8.96356257610023">
        <ele>710.07000000000005</ele>
        <time>2019-01-06T07:38:18Z</time>
      </trkpt>
      <trkpt lat="46.185802426189184" lon="8.963440954685211">
        <ele>711.50999999999999</ele>
        <time>2019-01-06T07:38:31Z</time>
      </trkpt>
      <trkpt lat="46.185848526656628" lon="8.963360488414764">
        <ele>712.95000000000005</ele>
        <time>2019-01-06T07:38:41Z</time>
      </trkpt>
      <trkpt lat="46.185855651274323" lon="8.963325200602412">
        <ele>713.44000000000005</ele>
        <time>2019-01-06T07:38:43Z</time>
      </trkpt>
      <trkpt lat="46.185885658487678" lon="8.963212966918945">
        <ele>714.39999999999998</ele>
        <time>2019-01-06T07:38:54Z</time>
      </trkpt>
      <trkpt lat="46.18589261546731" lon="8.963175667449832">
        <ele>714.88</ele>
        <time>2019-01-06T07:39:02Z</time>
      </trkpt>
      <trkpt lat="46.185872331261635" lon="8.963081622496247">
        <ele>715.84000000000003</ele>
        <time>2019-01-06T07:39:15Z</time>
      </trkpt>
      <trkpt lat="46.185865039005876" lon="8.963037114590406">
        <ele>718.24000000000001</ele>
        <time>2019-01-06T07:39:23Z</time>
      </trkpt>
      <trkpt lat="46.185867134481668" lon="8.962962431833148">
        <ele>718.72000000000003</ele>
        <time>2019-01-06T07:39:34Z</time>
      </trkpt>
      <trkpt lat="46.185942236334085" lon="8.963007442653179">
        <ele>720.64999999999998</ele>
        <time>2019-01-06T07:39:46Z</time>
      </trkpt>
      <trkpt lat="46.186010297387838" lon="8.962934771552682">
        <ele>723.04999999999995</ele>
        <time>2019-01-06T07:40:00Z</time>
      </trkpt>
      <trkpt lat="46.186014488339424" lon="8.962898813188076">
        <ele>724.49000000000001</ele>
        <time>2019-01-06T07:40:09Z</time>
      </trkpt>
      <trkpt lat="46.186028905212879" lon="8.962826393544674">
        <ele>727.37</ele>
        <time>2019-01-06T07:40:22Z</time>
      </trkpt>
      <trkpt lat="46.1860157456249" lon="8.962761349976063">
        <ele>728.82000000000005</ele>
        <time>2019-01-06T07:40:32Z</time>
      </trkpt>
      <trkpt lat="46.186021193861961" lon="8.962690187618136">
        <ele>730.25999999999999</ele>
        <time>2019-01-06T07:40:44Z</time>
      </trkpt>
      <trkpt lat="46.186026725918055" lon="8.962588263675571">
        <ele>732.17999999999995</ele>
        <time>2019-01-06T07:40:55Z</time>
      </trkpt>
      <trkpt lat="46.185997473075986" lon="8.962513748556376">
        <ele>733.62</ele>
        <time>2019-01-06T07:41:08Z</time>
      </trkpt>
      <trkpt lat="46.185967717319727" lon="8.962436635047197">
        <ele>736.02999999999997</ele>
        <time>2019-01-06T07:41:22Z</time>
      </trkpt>
      <trkpt lat="46.185965370386839" lon="8.962373519316316">
        <ele>736.99000000000001</ele>
        <time>2019-01-06T07:41:32Z</time>
      </trkpt>
      <trkpt lat="46.185988672077656" lon="8.962282659485936">
        <ele>738.42999999999995</ele>
        <time>2019-01-06T07:41:46Z</time>
      </trkpt>
      <trkpt lat="46.186043322086334" lon="8.962192805483937">
        <ele>739.38999999999999</ele>
        <time>2019-01-06T07:41:58Z</time>
      </trkpt>
      <trkpt lat="46.186079531908035" lon="8.962166151031852">
        <ele>740.83000000000004</ele>
        <time>2019-01-06T07:42:09Z</time>
      </trkpt>
      <trkpt lat="46.186107946559787" lon="8.962129186838865">
        <ele>742.75999999999999</ele>
        <time>2019-01-06T07:42:19Z</time>
      </trkpt>
      <trkpt lat="46.186101324856281" lon="8.962060958147049">
        <ele>743.72000000000003</ele>
        <time>2019-01-06T07:42:31Z</time>
      </trkpt>
      <trkpt lat="46.186097720637918" lon="8.961979150772095">
        <ele>745.63999999999999</ele>
        <time>2019-01-06T07:42:42Z</time>
      </trkpt>
      <trkpt lat="46.186119765043259" lon="8.961896505206823">
        <ele>747.55999999999995</ele>
        <time>2019-01-06T07:42:56Z</time>
      </trkpt>
      <trkpt lat="46.186158489435911" lon="8.961854428052902">
        <ele>749</ele>
        <time>2019-01-06T07:43:07Z</time>
      </trkpt>
      <trkpt lat="46.18615354411304" lon="8.961878316476941">
        <ele>748.51999999999998</ele>
        <time>2019-01-06T07:43:19Z</time>
      </trkpt>
      <trkpt lat="46.186175001785159" lon="8.961891224607825">
        <ele>748.51999999999998</ele>
        <time>2019-01-06T07:43:47Z</time>
      </trkpt>
      <trkpt lat="46.18617894127965" lon="8.961833976209164">
        <ele>748.51999999999998</ele>
        <time>2019-01-06T07:44:06Z</time>
      </trkpt>
      <trkpt lat="46.186211043968797" lon="8.961840346455574">
        <ele>750.45000000000005</ele>
        <time>2019-01-06T07:44:15Z</time>
      </trkpt>
      <trkpt lat="46.186234597116709" lon="8.961779661476612">
        <ele>752.37</ele>
        <time>2019-01-06T07:44:26Z</time>
      </trkpt>
      <trkpt lat="46.186277093365788" lon="8.961750492453575">
        <ele>753.80999999999995</ele>
        <time>2019-01-06T07:44:34Z</time>
      </trkpt>
      <trkpt lat="46.186359487473965" lon="8.961783014237881">
        <ele>756.69000000000005</ele>
        <time>2019-01-06T07:44:46Z</time>
      </trkpt>
      <trkpt lat="46.186421094462276" lon="8.961846297606826">
        <ele>758.13999999999999</ele>
        <time>2019-01-06T07:44:57Z</time>
      </trkpt>
      <trkpt lat="46.186458058655262" lon="8.961942940950394">
        <ele>760.53999999999996</ele>
        <time>2019-01-06T07:45:08Z</time>
      </trkpt>
      <trkpt lat="46.186513882130384" lon="8.961947383359075">
        <ele>762.94000000000005</ele>
        <time>2019-01-06T07:45:19Z</time>
      </trkpt>
      <trkpt lat="46.186571130529046" lon="8.962034052237868">
        <ele>764.38999999999999</ele>
        <time>2019-01-06T07:45:30Z</time>
      </trkpt>
      <trkpt lat="46.186627205461264" lon="8.962088534608483">
        <ele>765.83000000000004</ele>
        <time>2019-01-06T07:45:40Z</time>
      </trkpt>
      <trkpt lat="46.186673808842897" lon="8.962161708623171">
        <ele>767.26999999999998</ele>
        <time>2019-01-06T07:45:50Z</time>
      </trkpt>
      <trkpt lat="46.18671496398747" lon="8.962178723886609">
        <ele>768.71000000000004</ele>
        <time>2019-01-06T07:46:00Z</time>
      </trkpt>
      <trkpt lat="46.186754107475281" lon="8.962221471592784">
        <ele>771.11000000000001</ele>
        <time>2019-01-06T07:46:11Z</time>
      </trkpt>
      <trkpt lat="46.18680976331234" lon="8.962239241227508">
        <ele>774</ele>
        <time>2019-01-06T07:46:21Z</time>
      </trkpt>
      <trkpt lat="46.186864580959082" lon="8.962273104116321">
        <ele>777.36000000000001</ele>
        <time>2019-01-06T07:46:32Z</time>
      </trkpt>
      <trkpt lat="46.186913112178445" lon="8.962336471304297">
        <ele>779.28999999999996</ele>
        <time>2019-01-06T07:46:44Z</time>
      </trkpt>
      <trkpt lat="46.186937922611833" lon="8.962351139634848">
        <ele>780.25</ele>
        <time>2019-01-06T07:46:54Z</time>
      </trkpt>
      <trkpt lat="46.186961559578776" lon="8.962445519864559">
        <ele>781.69000000000005</ele>
        <time>2019-01-06T07:47:05Z</time>
      </trkpt>
      <trkpt lat="46.187030375003815" lon="8.962438898161054">
        <ele>782.64999999999998</ele>
        <time>2019-01-06T07:47:15Z</time>
      </trkpt>
      <trkpt lat="46.187054179608822" lon="8.96250662393868">
        <ele>783.13</ele>
        <time>2019-01-06T07:47:25Z</time>
      </trkpt>
      <trkpt lat="46.187085947021842" lon="8.962549455463886">
        <ele>784.57000000000005</ele>
        <time>2019-01-06T07:47:42Z</time>
      </trkpt>
      <trkpt lat="46.187079409137368" lon="8.962553143501282">
        <ele>786.98000000000002</ele>
        <time>2019-01-06T07:47:51Z</time>
      </trkpt>
      <trkpt lat="46.187046468257904" lon="8.96264785900712">
        <ele>789.86000000000001</ele>
        <time>2019-01-06T07:48:00Z</time>
      </trkpt>
      <trkpt lat="46.187047390267253" lon="8.962708879262209">
        <ele>790.82000000000005</ele>
        <time>2019-01-06T07:48:10Z</time>
      </trkpt>
      <trkpt lat="46.187055939808488" lon="8.962758248671889">
        <ele>791.77999999999997</ele>
        <time>2019-01-06T07:48:25Z</time>
      </trkpt>
      <trkpt lat="46.187022160738707" lon="8.962785908952355">
        <ele>792.74000000000001</ele>
        <time>2019-01-06T07:48:37Z</time>
      </trkpt>
      <trkpt lat="46.187023669481277" lon="8.962814407423139">
        <ele>795.14999999999998</ele>
        <time>2019-01-06T07:48:50Z</time>
      </trkpt>
      <trkpt lat="46.187052335590124" lon="8.962795212864876">
        <ele>797.07000000000005</ele>
        <time>2019-01-06T07:49:03Z</time>
      </trkpt>
      <trkpt lat="46.187055269256234" lon="8.962893197312951">
        <ele>797.54999999999995</ele>
        <time>2019-01-06T07:49:15Z</time>
      </trkpt>
      <trkpt lat="46.187091395258904" lon="8.962913481518626">
        <ele>798.99000000000001</ele>
        <time>2019-01-06T07:49:25Z</time>
      </trkpt>
      <trkpt lat="46.187110589817166" lon="8.962934520095587">
        <ele>798.50999999999999</ele>
        <time>2019-01-06T07:49:40Z</time>
      </trkpt>
      <trkpt lat="46.18713615462184" lon="8.963002245873213">
        <ele>799.95000000000005</ele>
        <time>2019-01-06T07:49:51Z</time>
      </trkpt>
      <trkpt lat="46.187144117429852" lon="8.963016159832478">
        <ele>799.95000000000005</ele>
        <time>2019-01-06T07:50:06Z</time>
      </trkpt>
      <trkpt lat="46.187149817124009" lon="8.963001910597086">
        <ele>800.44000000000005</ele>
        <time>2019-01-06T07:50:17Z</time>
      </trkpt>
      <trkpt lat="46.187130706384778" lon="8.963031247258186">
        <ele>801.88</ele>
        <time>2019-01-06T07:50:30Z</time>
      </trkpt>
      <trkpt lat="46.187120983377099" lon="8.963036108762026">
        <ele>801.88</ele>
        <time>2019-01-06T07:50:50Z</time>
      </trkpt>
      <trkpt lat="46.187119726091623" lon="8.963033761829138">
        <ele>800.44000000000005</ele>
        <time>2019-01-06T07:51:12Z</time>
      </trkpt>
      <trkpt lat="46.187122324481606" lon="8.963031666353345">
        <ele>803.32000000000005</ele>
        <time>2019-01-06T07:51:16Z</time>
      </trkpt>
      <trkpt lat="46.187137076631188" lon="8.963035019114614">
        <ele>801.39999999999998</ele>
        <time>2019-01-06T07:51:32Z</time>
      </trkpt>
      <trkpt lat="46.187141016125679" lon="8.963016327470541">
        <ele>802.84000000000003</ele>
        <time>2019-01-06T07:51:49Z</time>
      </trkpt>
      <trkpt lat="46.187120815739036" lon="8.96300844848156">
        <ele>803.32000000000005</ele>
        <time>2019-01-06T07:52:11Z</time>
      </trkpt>
      <trkpt lat="46.187118049710989" lon="8.962995121255517">
        <ele>801.39999999999998</ele>
        <time>2019-01-06T07:52:31Z</time>
      </trkpt>
      <trkpt lat="46.187104554846883" lon="8.962966958060861">
        <ele>801.88</ele>
        <time>2019-01-06T07:52:54Z</time>
      </trkpt>
      <trkpt lat="46.187146883457899" lon="8.963040383532643">
        <ele>802.36000000000001</ele>
        <time>2019-01-06T07:53:05Z</time>
      </trkpt>
      <trkpt lat="46.187224416062236" lon="8.963081454858184">
        <ele>804.27999999999997</ele>
        <time>2019-01-06T07:53:17Z</time>
      </trkpt>
      <trkpt lat="46.187231624498963" lon="8.963006772100925">
        <ele>806.20000000000005</ele>
        <time>2019-01-06T07:53:28Z</time>
      </trkpt>
      <trkpt lat="46.187244029715657" lon="8.962948601692915">
        <ele>808.13</ele>
        <time>2019-01-06T07:53:39Z</time>
      </trkpt>
      <trkpt lat="46.187270265072584" lon="8.962870901450515">
        <ele>811.00999999999999</ele>
        <time>2019-01-06T07:53:52Z</time>
      </trkpt>
      <trkpt lat="46.187292225658894" lon="8.962846091017127">
        <ele>812.92999999999995</ele>
        <time>2019-01-06T07:54:04Z</time>
      </trkpt>
      <trkpt lat="46.187286358326674" lon="8.962796218693256">
        <ele>814.37</ele>
        <time>2019-01-06T07:54:14Z</time>
      </trkpt>
      <trkpt lat="46.187321394681931" lon="8.962710639461875">
        <ele>816.77999999999997</ele>
        <time>2019-01-06T07:54:26Z</time>
      </trkpt>
      <trkpt lat="46.187344612553716" lon="8.962649535387754">
        <ele>819.65999999999997</ele>
        <time>2019-01-06T07:54:37Z</time>
      </trkpt>
      <trkpt lat="46.187360035255551" lon="8.962582815438509">
        <ele>821.58000000000004</ele>
        <time>2019-01-06T07:54:49Z</time>
      </trkpt>
      <trkpt lat="46.187344864010811" lon="8.962499666959047">
        <ele>823.02999999999997</ele>
        <time>2019-01-06T07:55:01Z</time>
      </trkpt>
      <trkpt lat="46.187344528734684" lon="8.96245239302516">
        <ele>823.99000000000001</ele>
        <time>2019-01-06T07:55:11Z</time>
      </trkpt>
      <trkpt lat="46.18735852651298" lon="8.962416434660554">
        <ele>825.42999999999995</ele>
        <time>2019-01-06T07:55:22Z</time>
      </trkpt>
      <trkpt lat="46.187362717464566" lon="8.962351391091943">
        <ele>827.83000000000004</ele>
        <time>2019-01-06T07:55:32Z</time>
      </trkpt>
      <trkpt lat="46.187353497371078" lon="8.962277378886938">
        <ele>828.78999999999996</ele>
        <time>2019-01-06T07:55:42Z</time>
      </trkpt>
      <trkpt lat="46.187350228428841" lon="8.962205126881599">
        <ele>829.75999999999999</ele>
        <time>2019-01-06T07:55:51Z</time>
      </trkpt>
      <trkpt lat="46.187374955043197" lon="8.962087947875261">
        <ele>830.24000000000001</ele>
        <time>2019-01-06T07:56:01Z</time>
      </trkpt>
      <trkpt lat="46.1874093208462" lon="8.961989711970091">
        <ele>831.67999999999995</ele>
        <time>2019-01-06T07:56:13Z</time>
      </trkpt>
      <trkpt lat="46.187384426593781" lon="8.961956016719341">
        <ele>832.63999999999999</ele>
        <time>2019-01-06T07:56:22Z</time>
      </trkpt>
      <trkpt lat="46.187356179580092" lon="8.961895080283284">
        <ele>833.60000000000002</ele>
        <time>2019-01-06T07:56:34Z</time>
      </trkpt>
      <trkpt lat="46.187385180965066" lon="8.961853589862585">
        <ele>834.55999999999995</ele>
        <time>2019-01-06T07:56:43Z</time>
      </trkpt>
      <trkpt lat="46.187363471835852" lon="8.961787791922689">
        <ele>836</ele>
        <time>2019-01-06T07:56:55Z</time>
      </trkpt>
      <trkpt lat="46.18738979101181" lon="8.961719395592809">
        <ele>837.92999999999995</ele>
        <time>2019-01-06T07:57:06Z</time>
      </trkpt>
      <trkpt lat="46.187420133501291" lon="8.961666170507669">
        <ele>839.85000000000002</ele>
        <time>2019-01-06T07:57:18Z</time>
      </trkpt>
      <trkpt lat="46.187407812103629" lon="8.961627278476954">
        <ele>840.33000000000004</ele>
        <time>2019-01-06T07:57:29Z</time>
      </trkpt>
      <trkpt lat="46.187401106581092" lon="8.961557541042566">
        <ele>842.73000000000002</ele>
        <time>2019-01-06T07:57:40Z</time>
      </trkpt>
      <trkpt lat="46.187402447685599" lon="8.961475817486644">
        <ele>843.69000000000005</ele>
        <time>2019-01-06T07:57:51Z</time>
      </trkpt>
      <trkpt lat="46.187446536496282" lon="8.961481265723705">
        <ele>846.10000000000002</ele>
        <time>2019-01-06T07:58:04Z</time>
      </trkpt>
      <trkpt lat="46.18752071633935" lon="8.961550751700997">
        <ele>847.05999999999995</ele>
        <time>2019-01-06T07:58:17Z</time>
      </trkpt>
      <trkpt lat="46.187580730766058" lon="8.961590062826872">
        <ele>848.01999999999998</ele>
        <time>2019-01-06T07:58:27Z</time>
      </trkpt>
      <trkpt lat="46.187604703009129" lon="8.961647395044565">
        <ele>848.98000000000002</ele>
        <time>2019-01-06T07:58:37Z</time>
      </trkpt>
      <trkpt lat="46.187626831233501" lon="8.961667595431209">
        <ele>850.41999999999996</ele>
        <time>2019-01-06T07:58:49Z</time>
      </trkpt>
      <trkpt lat="46.187626579776406" lon="8.961745295673609">
        <ele>851.87</ele>
        <time>2019-01-06T07:58:58Z</time>
      </trkpt>
      <trkpt lat="46.187646025791764" lon="8.961780918762088">
        <ele>853.30999999999995</ele>
        <time>2019-01-06T07:59:10Z</time>
      </trkpt>
      <trkpt lat="46.187691288068891" lon="8.961817547678947">
        <ele>856.66999999999996</ele>
        <time>2019-01-06T07:59:19Z</time>
      </trkpt>
      <trkpt lat="46.187718193978071" lon="8.96181276999414">
        <ele>858.59000000000003</ele>
        <time>2019-01-06T07:59:30Z</time>
      </trkpt>
      <trkpt lat="46.187758594751358" lon="8.961846297606826">
        <ele>860.51999999999998</ele>
        <time>2019-01-06T07:59:40Z</time>
      </trkpt>
      <trkpt lat="46.187814334407449" lon="8.961868342012167">
        <ele>862.44000000000005</ele>
        <time>2019-01-06T07:59:51Z</time>
      </trkpt>
      <trkpt lat="46.187853813171387" lon="8.961911173537374">
        <ele>863.39999999999998</ele>
        <time>2019-01-06T08:00:01Z</time>
      </trkpt>
      <trkpt lat="46.187895638868213" lon="8.961928440257907">
        <ele>863.88</ele>
        <time>2019-01-06T08:00:14Z</time>
      </trkpt>
      <trkpt lat="46.187934782356024" lon="8.96196573972702">
        <ele>863.88</ele>
        <time>2019-01-06T08:00:26Z</time>
      </trkpt>
      <trkpt lat="46.187983648851514" lon="8.961999686434865">
        <ele>866.28999999999996</ele>
        <time>2019-01-06T08:00:35Z</time>
      </trkpt>
      <trkpt lat="46.187986331060529" lon="8.961998177692294">
        <ele>867.73000000000002</ele>
        <time>2019-01-06T08:00:44Z</time>
      </trkpt>
      <trkpt lat="46.187947103753686" lon="8.962067076936364">
        <ele>866.76999999999998</ele>
        <time>2019-01-06T08:00:57Z</time>
      </trkpt>
      <trkpt lat="46.1879170127213" lon="8.962069675326347">
        <ele>865.79999999999995</ele>
        <time>2019-01-06T08:01:12Z</time>
      </trkpt>
      <trkpt lat="46.187921622768044" lon="8.962046205997467">
        <ele>867.25</ele>
        <time>2019-01-06T08:01:29Z</time>
      </trkpt>
      <trkpt lat="46.187956323847175" lon="8.961984682828188">
        <ele>870.61000000000001</ele>
        <time>2019-01-06T08:01:54Z</time>
      </trkpt>
      <trkpt lat="46.187971578910947" lon="8.96196473389864">
        <ele>869.64999999999998</ele>
        <time>2019-01-06T08:02:18Z</time>
      </trkpt>
      <trkpt lat="46.187925478443503" lon="8.96195056848228">
        <ele>869.64999999999998</ele>
        <time>2019-01-06T08:02:30Z</time>
      </trkpt>
      <trkpt lat="46.187923550605774" lon="8.961901785805821">
        <ele>871.09000000000003</ele>
        <time>2019-01-06T08:02:39Z</time>
      </trkpt>
      <trkpt lat="46.187927406281233" lon="8.961829701438546">
        <ele>872.52999999999997</ele>
        <time>2019-01-06T08:02:50Z</time>
      </trkpt>
      <trkpt lat="46.187935369089246" lon="8.961777985095978">
        <ele>873.5</ele>
        <time>2019-01-06T08:02:59Z</time>
      </trkpt>
      <trkpt lat="46.18794341571629" lon="8.961742613464594">
        <ele>874.46000000000004</ele>
        <time>2019-01-06T08:03:09Z</time>
      </trkpt>
      <trkpt lat="46.187940230593085" lon="8.961705481633544">
        <ele>876.38</ele>
        <time>2019-01-06T08:03:14Z</time>
      </trkpt>
      <trkpt lat="46.187930423766375" lon="8.96163490600884">
        <ele>878.29999999999995</ele>
        <time>2019-01-06T08:03:23Z</time>
      </trkpt>
      <trkpt lat="46.187953222543001" lon="8.961560893803835">
        <ele>878.77999999999997</ele>
        <time>2019-01-06T08:03:34Z</time>
      </trkpt>
      <trkpt lat="46.187958754599094" lon="8.96150004118681">
        <ele>882.14999999999998</ele>
        <time>2019-01-06T08:03:45Z</time>
      </trkpt>
      <trkpt lat="46.187969567254186" lon="8.961448660120368">
        <ele>884.07000000000005</ele>
        <time>2019-01-06T08:03:55Z</time>
      </trkpt>
      <trkpt lat="46.187962526455522" lon="8.961381353437901">
        <ele>885.50999999999999</ele>
        <time>2019-01-06T08:04:07Z</time>
      </trkpt>
      <trkpt lat="46.187951294705272" lon="8.961322512477636">
        <ele>886.95000000000005</ele>
        <time>2019-01-06T08:04:16Z</time>
      </trkpt>
      <trkpt lat="46.187918521463871" lon="8.961251517757773">
        <ele>889.36000000000001</ele>
        <time>2019-01-06T08:04:27Z</time>
      </trkpt>
      <trkpt lat="46.187931597232819" lon="8.961179936304689">
        <ele>890.79999999999995</ele>
        <time>2019-01-06T08:04:40Z</time>
      </trkpt>
      <trkpt lat="46.188008962199092" lon="8.961229724809527">
        <ele>890.79999999999995</ele>
        <time>2019-01-06T08:04:50Z</time>
      </trkpt>
      <trkpt lat="46.18808071129024" lon="8.961260067299008">
        <ele>892.24000000000001</ele>
        <time>2019-01-06T08:05:00Z</time>
      </trkpt>
      <trkpt lat="46.188110802322626" lon="8.961230479180813">
        <ele>894.15999999999997</ele>
        <time>2019-01-06T08:05:13Z</time>
      </trkpt>
      <trkpt lat="46.188087752088904" lon="8.961193095892668">
        <ele>895.61000000000001</ele>
        <time>2019-01-06T08:05:21Z</time>
      </trkpt>
      <trkpt lat="46.18806847371161" lon="8.961131907999516">
        <ele>897.04999999999995</ele>
        <time>2019-01-06T08:05:30Z</time>
      </trkpt>
      <trkpt lat="46.188065456226468" lon="8.961115563288331">
        <ele>898.49000000000001</ele>
        <time>2019-01-06T08:05:33Z</time>
      </trkpt>
      <trkpt lat="46.188058918341994" lon="8.960995199158788">
        <ele>899.92999999999995</ele>
        <time>2019-01-06T08:05:46Z</time>
      </trkpt>
      <trkpt lat="46.188055900856853" lon="8.960944656282663">
        <ele>899.92999999999995</ele>
        <time>2019-01-06T08:05:57Z</time>
      </trkpt>
      <trkpt lat="46.188041819259524" lon="8.96088095381856">
        <ele>901.37</ele>
        <time>2019-01-06T08:06:05Z</time>
      </trkpt>
      <trkpt lat="46.18802547454834" lon="8.960788669064641">
        <ele>901.37</ele>
        <time>2019-01-06T08:06:15Z</time>
      </trkpt>
      <trkpt lat="46.187997814267874" lon="8.960662018507719">
        <ele>902.33000000000004</ele>
        <time>2019-01-06T08:06:27Z</time>
      </trkpt>
      <trkpt lat="46.187998149544001" lon="8.960637878626585">
        <ele>904.74000000000001</ele>
        <time>2019-01-06T08:06:31Z</time>
      </trkpt>
      <trkpt lat="46.188007537275553" lon="8.960563279688358">
        <ele>907.13999999999999</ele>
        <time>2019-01-06T08:06:42Z</time>
      </trkpt>
      <trkpt lat="46.187992617487907" lon="8.960518604144454">
        <ele>907.62</ele>
        <time>2019-01-06T08:06:52Z</time>
      </trkpt>
      <trkpt lat="46.188001083210111" lon="8.960462445393205">
        <ele>908.10000000000002</ele>
        <time>2019-01-06T08:07:03Z</time>
      </trkpt>
      <trkpt lat="46.187999155372381" lon="8.960398659110069">
        <ele>908.58000000000004</ele>
        <time>2019-01-06T08:07:12Z</time>
      </trkpt>
      <trkpt lat="46.188019104301929" lon="8.960346942767501">
        <ele>909.53999999999996</ele>
        <time>2019-01-06T08:07:20Z</time>
      </trkpt>
      <trkpt lat="46.18804550729692" lon="8.960314672440291">
        <ele>910.50999999999999</ele>
        <time>2019-01-06T08:07:32Z</time>
      </trkpt>
      <trkpt lat="46.188035616651177" lon="8.960255580022931">
        <ele>913.38999999999999</ele>
        <time>2019-01-06T08:07:43Z</time>
      </trkpt>
      <trkpt lat="46.188035951927304" lon="8.960246276110411">
        <ele>913.87</ele>
        <time>2019-01-06T08:07:44Z</time>
      </trkpt>
      <trkpt lat="46.188032766804099" lon="8.96016807295382">
        <ele>914.83000000000004</ele>
        <time>2019-01-06T08:07:56Z</time>
      </trkpt>
      <trkpt lat="46.188044082373381" lon="8.960138401016593">
        <ele>916.75</ele>
        <time>2019-01-06T08:08:01Z</time>
      </trkpt>
      <trkpt lat="46.188054978847504" lon="8.960076710209251">
        <ele>918.20000000000005</ele>
        <time>2019-01-06T08:08:13Z</time>
      </trkpt>
      <trkpt lat="46.188061013817787" lon="8.960002278909087">
        <ele>920.60000000000002</ele>
        <time>2019-01-06T08:08:25Z</time>
      </trkpt>
      <trkpt lat="46.188065875321627" lon="8.95992374047637">
        <ele>922.03999999999996</ele>
        <time>2019-01-06T08:08:36Z</time>
      </trkpt>
      <trkpt lat="46.188128320500255" lon="8.959915107116103">
        <ele>923.48000000000002</ele>
        <time>2019-01-06T08:08:45Z</time>
      </trkpt>
      <trkpt lat="46.18819797411561" lon="8.959986688569188">
        <ele>924.92999999999995</ele>
        <time>2019-01-06T08:08:55Z</time>
      </trkpt>
      <trkpt lat="46.188266454264522" lon="8.960036057978869">
        <ele>925.88999999999999</ele>
        <time>2019-01-06T08:09:05Z</time>
      </trkpt>
      <trkpt lat="46.188354128971696" lon="8.960084170103073">
        <ele>926.37</ele>
        <time>2019-01-06T08:09:15Z</time>
      </trkpt>
      <trkpt lat="46.188406348228455" lon="8.960137562826276">
        <ele>928.28999999999996</ele>
        <time>2019-01-06T08:09:24Z</time>
      </trkpt>
      <trkpt lat="46.188443144783378" lon="8.960193302482367">
        <ele>931.16999999999996</ele>
        <time>2019-01-06T08:09:36Z</time>
      </trkpt>
      <trkpt lat="46.188402408733964" lon="8.960151728242636">
        <ele>932.62</ele>
        <time>2019-01-06T08:09:47Z</time>
      </trkpt>
      <trkpt lat="46.188382711261511" lon="8.960068076848984">
        <ele>934.05999999999995</ele>
        <time>2019-01-06T08:09:58Z</time>
      </trkpt>
      <trkpt lat="46.188381286337972" lon="8.960004625841975">
        <ele>935.98000000000002</ele>
        <time>2019-01-06T08:10:10Z</time>
      </trkpt>
      <trkpt lat="46.188364019617438" lon="8.95994670689106">
        <ele>936.94000000000005</ele>
        <time>2019-01-06T08:10:20Z</time>
      </trkpt>
      <trkpt lat="46.188331078737974" lon="8.959844447672367">
        <ele>937.41999999999996</ele>
        <time>2019-01-06T08:10:32Z</time>
      </trkpt>
      <trkpt lat="46.188324289396405" lon="8.959781499579549">
        <ele>937.41999999999996</ele>
        <time>2019-01-06T08:10:40Z</time>
      </trkpt>
      <trkpt lat="46.188310123980045" lon="8.959692986682057">
        <ele>938.38</ele>
        <time>2019-01-06T08:10:51Z</time>
      </trkpt>
      <trkpt lat="46.188312638550997" lon="8.95962274633348">
        <ele>941.26999999999998</ele>
        <time>2019-01-06T08:11:01Z</time>
      </trkpt>
      <trkpt lat="46.188314147293568" lon="8.95953725092113">
        <ele>943.19000000000005</ele>
        <time>2019-01-06T08:11:12Z</time>
      </trkpt>
      <trkpt lat="46.188322948291898" lon="8.959481678903103">
        <ele>946.55999999999995</ele>
        <time>2019-01-06T08:11:19Z</time>
      </trkpt>
      <trkpt lat="46.188316997140646" lon="8.959441278129816">
        <ele>949.44000000000005</ele>
        <time>2019-01-06T08:11:23Z</time>
      </trkpt>
      <trkpt lat="46.188313644379377" lon="8.959431974217296">
        <ele>949.91999999999996</ele>
        <time>2019-01-06T08:11:24Z</time>
      </trkpt>
      <trkpt lat="46.188295120373368" lon="8.959377994760871">
        <ele>951.36000000000001</ele>
        <time>2019-01-06T08:11:30Z</time>
      </trkpt>
      <trkpt lat="46.188274165615439" lon="8.959334157407284">
        <ele>948.96000000000004</ele>
        <time>2019-01-06T08:11:35Z</time>
      </trkpt>
      <trkpt lat="46.188248852267861" lon="8.95926165394485">
        <ele>950.88</ele>
        <time>2019-01-06T08:11:47Z</time>
      </trkpt>
      <trkpt lat="46.188246170058846" lon="8.959176745265722">
        <ele>953.27999999999997</ele>
        <time>2019-01-06T08:11:57Z</time>
      </trkpt>
      <trkpt lat="46.188247259706259" lon="8.959098123013973">
        <ele>954.73000000000002</ele>
        <time>2019-01-06T08:12:07Z</time>
      </trkpt>
      <trkpt lat="46.18822873570025" lon="8.959036432206631">
        <ele>957.13</ele>
        <time>2019-01-06T08:12:17Z</time>
      </trkpt>
      <trkpt lat="46.188251283019781" lon="8.95895529538393">
        <ele>958.09000000000003</ele>
        <time>2019-01-06T08:12:28Z</time>
      </trkpt>
      <trkpt lat="46.188242062926292" lon="8.958911122754216">
        <ele>960.00999999999999</ele>
        <time>2019-01-06T08:12:37Z</time>
      </trkpt>
      <trkpt lat="46.188217168673873" lon="8.958841636776924">
        <ele>960.00999999999999</ele>
        <time>2019-01-06T08:12:45Z</time>
      </trkpt>
      <trkpt lat="46.188205601647496" lon="8.95879645831883">
        <ele>960.49000000000001</ele>
        <time>2019-01-06T08:12:53Z</time>
      </trkpt>
      <trkpt lat="46.188238291069865" lon="8.95873636007309">
        <ele>960.98000000000002</ele>
        <time>2019-01-06T08:13:01Z</time>
      </trkpt>
      <trkpt lat="46.18823510594666" lon="8.958653463050723">
        <ele>961.46000000000004</ele>
        <time>2019-01-06T08:13:10Z</time>
      </trkpt>
      <trkpt lat="46.188233094289899" lon="8.958627227693796">
        <ele>962.41999999999996</ele>
        <time>2019-01-06T08:13:17Z</time>
      </trkpt>
      <trkpt lat="46.188241224735975" lon="8.958587748929858">
        <ele>963.38</ele>
        <time>2019-01-06T08:13:24Z</time>
      </trkpt>
      <trkpt lat="46.18823560886085" lon="8.958563022315502">
        <ele>963.86000000000001</ele>
        <time>2019-01-06T08:13:32Z</time>
      </trkpt>
      <trkpt lat="46.188232088461518" lon="8.958488088101149">
        <ele>964.34000000000003</ele>
        <time>2019-01-06T08:13:40Z</time>
      </trkpt>
      <trkpt lat="46.188238793984056" lon="8.958425475284457">
        <ele>963.86000000000001</ele>
        <time>2019-01-06T08:13:52Z</time>
      </trkpt>
      <trkpt lat="46.188235525041819" lon="8.958467971533537">
        <ele>964.34000000000003</ele>
        <time>2019-01-06T08:14:04Z</time>
      </trkpt>
      <trkpt lat="46.188244242221117" lon="8.958482053130865">
        <ele>965.29999999999995</ele>
        <time>2019-01-06T08:14:15Z</time>
      </trkpt>
      <trkpt lat="46.188249941915274" lon="8.958468390628696">
        <ele>963.86000000000001</ele>
        <time>2019-01-06T08:14:26Z</time>
      </trkpt>
      <trkpt lat="46.188274417072535" lon="8.958417512476444">
        <ele>965.29999999999995</ele>
        <time>2019-01-06T08:14:51Z</time>
      </trkpt>
      <trkpt lat="46.188256395980716" lon="8.958385577425361">
        <ele>968.17999999999995</ele>
        <time>2019-01-06T08:15:08Z</time>
      </trkpt>
      <trkpt lat="46.188256395980716" lon="8.958397815003991">
        <ele>968.66999999999996</ele>
        <time>2019-01-06T08:15:13Z</time>
      </trkpt>
      <trkpt lat="46.188277350738645" lon="8.958463780581951">
        <ele>970.11000000000001</ele>
        <time>2019-01-06T08:15:21Z</time>
      </trkpt>
      <trkpt lat="46.188290845602751" lon="8.95852136425674">
        <ele>968.17999999999995</ele>
        <time>2019-01-06T08:15:36Z</time>
      </trkpt>
      <trkpt lat="46.188277853652835" lon="8.958518598228693">
        <ele>967.22000000000003</ele>
        <time>2019-01-06T08:15:50Z</time>
      </trkpt>
      <trkpt lat="46.188288750126958" lon="8.958434946835041">
        <ele>966.74000000000001</ele>
        <time>2019-01-06T08:16:07Z</time>
      </trkpt>
      <trkpt lat="46.1882209405303" lon="8.958352720364928">
        <ele>966.25999999999999</ele>
        <time>2019-01-06T08:16:18Z</time>
      </trkpt>
      <trkpt lat="46.188231837004423" lon="8.958321288228035">
        <ele>967.22000000000003</ele>
        <time>2019-01-06T08:16:31Z</time>
      </trkpt>
      <trkpt lat="46.188271148130298" lon="8.958409549668431">
        <ele>966.74000000000001</ele>
        <time>2019-01-06T08:16:38Z</time>
      </trkpt>
      <trkpt lat="46.188285732641816" lon="8.958477359265089">
        <ele>967.22000000000003</ele>
        <time>2019-01-06T08:16:48Z</time>
      </trkpt>
      <trkpt lat="46.188300233334303" lon="8.958447938784957">
        <ele>967.22000000000003</ele>
        <time>2019-01-06T08:17:03Z</time>
      </trkpt>
      <trkpt lat="46.188312890008092" lon="8.958458416163921">
        <ele>967.22000000000003</ele>
        <time>2019-01-06T08:17:17Z</time>
      </trkpt>
      <trkpt lat="46.188321439549327" lon="8.958460092544556">
        <ele>968.17999999999995</ele>
        <time>2019-01-06T08:17:33Z</time>
      </trkpt>
      <trkpt lat="46.188313225284219" lon="8.958447687327862">
        <ele>966.74000000000001</ele>
        <time>2019-01-06T08:17:49Z</time>
      </trkpt>
      <trkpt lat="46.188281206414104" lon="8.958456572145224">
        <ele>966.74000000000001</ele>
        <time>2019-01-06T08:18:19Z</time>
      </trkpt>
      <trkpt lat="46.18828103877604" lon="8.958401922136545">
        <ele>966.74000000000001</ele>
        <time>2019-01-06T08:18:42Z</time>
      </trkpt>
      <trkpt lat="46.188301490619779" lon="8.958402508869767">
        <ele>966.74000000000001</ele>
        <time>2019-01-06T08:19:06Z</time>
      </trkpt>
      <trkpt lat="46.188288498669863" lon="8.958403011783958">
        <ele>966.74000000000001</ele>
        <time>2019-01-06T08:19:33Z</time>
      </trkpt>
      <trkpt lat="46.18830056861043" lon="8.95838993601501">
        <ele>967.22000000000003</ele>
        <time>2019-01-06T08:19:42Z</time>
      </trkpt>
      <trkpt lat="46.188323954120278" lon="8.958374848589301">
        <ele>968.17999999999995</ele>
        <time>2019-01-06T08:19:52Z</time>
      </trkpt>
      <trkpt lat="46.188321188092232" lon="8.958330424502492">
        <ele>969.14999999999998</ele>
        <time>2019-01-06T08:20:03Z</time>
      </trkpt>
      <trkpt lat="46.188348261639476" lon="8.958349535241723">
        <ele>970.59000000000003</ele>
        <time>2019-01-06T08:20:14Z</time>
      </trkpt>
      <trkpt lat="46.188388830050826" lon="8.958397647365928">
        <ele>972.50999999999999</ele>
        <time>2019-01-06T08:20:25Z</time>
      </trkpt>
      <trkpt lat="46.188416490331292" lon="8.958285665139556">
        <ele>974.42999999999995</ele>
        <time>2019-01-06T08:20:37Z</time>
      </trkpt>
      <trkpt lat="46.188445407897234" lon="8.958188770338893">
        <ele>976.36000000000001</ele>
        <time>2019-01-06T08:20:48Z</time>
      </trkpt>
      <trkpt lat="46.188469547778368" lon="8.958180472254753">
        <ele>977.79999999999995</ele>
        <time>2019-01-06T08:20:55Z</time>
      </trkpt>
      <trkpt lat="46.188529981300235" lon="8.958204863592982">
        <ele>979.72000000000003</ele>
        <time>2019-01-06T08:21:06Z</time>
      </trkpt>
      <trkpt lat="46.188535010442138" lon="8.958134455606341">
        <ele>981.63999999999999</ele>
        <time>2019-01-06T08:21:17Z</time>
      </trkpt>
      <trkpt lat="46.188531490042806" lon="8.95807527936995">
        <ele>982.60000000000002</ele>
        <time>2019-01-06T08:21:27Z</time>
      </trkpt>
      <trkpt lat="46.188569879159331" lon="8.958055665716529">
        <ele>983.57000000000005</ele>
        <time>2019-01-06T08:21:38Z</time>
      </trkpt>
      <trkpt lat="46.188585134223104" lon="8.957991376519203">
        <ele>985.00999999999999</ele>
        <time>2019-01-06T08:21:50Z</time>
      </trkpt>
      <trkpt lat="46.188617320731282" lon="8.95801174454391">
        <ele>985.97000000000003</ele>
        <time>2019-01-06T08:21:59Z</time>
      </trkpt>
      <trkpt lat="46.188644981011748" lon="8.95796824246645">
        <ele>986.92999999999995</ele>
        <time>2019-01-06T08:22:07Z</time>
      </trkpt>
      <trkpt lat="46.188700385391712" lon="8.957907138392329">
        <ele>988.37</ele>
        <time>2019-01-06T08:22:18Z</time>
      </trkpt>
      <trkpt lat="46.188754867762327" lon="8.957893308252096">
        <ele>990.29999999999995</ele>
        <time>2019-01-06T08:22:28Z</time>
      </trkpt>
      <trkpt lat="46.188809182494879" lon="8.957855924963951">
        <ele>992.22000000000003</ele>
        <time>2019-01-06T08:22:38Z</time>
      </trkpt>
      <trkpt lat="46.18884933181107" lon="8.957840586081147">
        <ele>993.17999999999995</ele>
        <time>2019-01-06T08:22:48Z</time>
      </trkpt>
      <trkpt lat="46.188869029283524" lon="8.957793982699513">
        <ele>995.10000000000002</ele>
        <time>2019-01-06T08:22:58Z</time>
      </trkpt>
      <trkpt lat="46.188865508884192" lon="8.95775911398232">
        <ele>996.53999999999996</ele>
        <time>2019-01-06T08:23:09Z</time>
      </trkpt>
      <trkpt lat="46.188873471692204" lon="8.957743523642421">
        <ele>997.50999999999999</ele>
        <time>2019-01-06T08:23:17Z</time>
      </trkpt>
      <trkpt lat="46.188922673463821" lon="8.957718294113874">
        <ele>999.42999999999995</ele>
        <time>2019-01-06T08:23:25Z</time>
      </trkpt>
      <trkpt lat="46.18901738896966" lon="8.957729274407029">
        <ele>1001.83</ele>
        <time>2019-01-06T08:23:36Z</time>
      </trkpt>
      <trkpt lat="46.18903549388051" lon="8.957803789526224">
        <ele>1001.83</ele>
        <time>2019-01-06T08:23:49Z</time>
      </trkpt>
      <trkpt lat="46.18899199180305" lon="8.957905462011695">
        <ele>1003.75</ele>
        <time>2019-01-06T08:24:02Z</time>
      </trkpt>
      <trkpt lat="46.18899492546916" lon="8.957984000444412">
        <ele>1005.6799999999999</ele>
        <time>2019-01-06T08:24:12Z</time>
      </trkpt>
      <trkpt lat="46.189010012894869" lon="8.958019958809018">
        <ele>1006.64</ele>
        <time>2019-01-06T08:24:25Z</time>
      </trkpt>
      <trkpt lat="46.188991153612733" lon="8.9579311106354">
        <ele>1006.16</ele>
        <time>2019-01-06T08:24:45Z</time>
      </trkpt>
      <trkpt lat="46.18900028988719" lon="8.957895571365953">
        <ele>1006.16</ele>
        <time>2019-01-06T08:24:48Z</time>
      </trkpt>
      <trkpt lat="46.189092239364982" lon="8.957883501425386">
        <ele>1006.64</ele>
        <time>2019-01-06T08:25:00Z</time>
      </trkpt>
      <trkpt lat="46.189156863838434" lon="8.957854248583317">
        <ele>1008.08</ele>
        <time>2019-01-06T08:25:12Z</time>
      </trkpt>
      <trkpt lat="46.189226768910885" lon="8.957841591909528">
        <ele>1010.48</ele>
        <time>2019-01-06T08:25:23Z</time>
      </trkpt>
      <trkpt lat="46.189263816922903" lon="8.95781435072422">
        <ele>1011.4400000000001</ele>
        <time>2019-01-06T08:25:34Z</time>
      </trkpt>
      <trkpt lat="46.189274629577994" lon="8.95778501406312">
        <ele>1013.85</ele>
        <time>2019-01-06T08:25:45Z</time>
      </trkpt>
      <trkpt lat="46.189304133877158" lon="8.957847626879811">
        <ele>1015.29</ele>
        <time>2019-01-06T08:25:56Z</time>
      </trkpt>
      <trkpt lat="46.189288794994354" lon="8.957934631034732">
        <ele>1016.73</ele>
        <time>2019-01-06T08:26:07Z</time>
      </trkpt>
      <trkpt lat="46.18931544944644" lon="8.957902025431395">
        <ele>1018.17</ele>
        <time>2019-01-06T08:26:17Z</time>
      </trkpt>
      <trkpt lat="46.189356939867139" lon="8.957886770367622">
        <ele>1019.62</ele>
        <time>2019-01-06T08:26:27Z</time>
      </trkpt>
      <trkpt lat="46.189393987879157" lon="8.957858188077807">
        <ele>1020.58</ele>
        <time>2019-01-06T08:26:38Z</time>
      </trkpt>
      <trkpt lat="46.189414439722896" lon="8.95784754306078">
        <ele>1021.0599999999999</ele>
        <time>2019-01-06T08:26:48Z</time>
      </trkpt>
      <trkpt lat="46.189385019242764" lon="8.957954496145248">
        <ele>1022.02</ele>
        <time>2019-01-06T08:27:02Z</time>
      </trkpt>
      <trkpt lat="46.189324920997024" lon="8.957998417317867">
        <ele>1021.0599999999999</ele>
        <time>2019-01-06T08:27:15Z</time>
      </trkpt>
      <trkpt lat="46.189344953745604" lon="8.958034878596664">
        <ele>1022.98</ele>
        <time>2019-01-06T08:27:31Z</time>
      </trkpt>
      <trkpt lat="46.189262559637427" lon="8.958090366795659">
        <ele>1022.02</ele>
        <time>2019-01-06T08:28:01Z</time>
      </trkpt>
      <trkpt lat="46.189382001757622" lon="8.957963129505515">
        <ele>1024.9000000000001</ele>
        <time>2019-01-06T08:28:12Z</time>
      </trkpt>
      <trkpt lat="46.189437825232744" lon="8.957943432033062">
        <ele>1025.3800000000001</ele>
        <time>2019-01-06T08:28:21Z</time>
      </trkpt>
      <trkpt lat="46.189483003690839" lon="8.957968661561608">
        <ele>1028.27</ele>
        <time>2019-01-06T08:28:30Z</time>
      </trkpt>
      <trkpt lat="46.1894850153476" lon="8.957918956875801">
        <ele>1030.1900000000001</ele>
        <time>2019-01-06T08:28:38Z</time>
      </trkpt>
      <trkpt lat="46.189523320645094" lon="8.957909904420376">
        <ele>1032.5899999999999</ele>
        <time>2019-01-06T08:28:47Z</time>
      </trkpt>
      <trkpt lat="46.189580485224724" lon="8.958016019314528">
        <ele>1033.0699999999999</ele>
        <time>2019-01-06T08:28:58Z</time>
      </trkpt>
      <trkpt lat="46.189566403627396" lon="8.958136467263103">
        <ele>1034.52</ele>
        <time>2019-01-06T08:29:08Z</time>
      </trkpt>
      <trkpt lat="46.189535055309534" lon="8.958248198032379">
        <ele>1035.96</ele>
        <time>2019-01-06T08:29:19Z</time>
      </trkpt>
      <trkpt lat="46.189538575708866" lon="8.958305865526199">
        <ele>1037.8800000000001</ele>
        <time>2019-01-06T08:29:31Z</time>
      </trkpt>
      <trkpt lat="46.189544694498181" lon="8.958358336240053">
        <ele>1040.76</ele>
        <time>2019-01-06T08:29:40Z</time>
      </trkpt>
      <trkpt lat="46.189574534073472" lon="8.958448190242052">
        <ele>1041.25</ele>
        <time>2019-01-06T08:29:52Z</time>
      </trkpt>
      <trkpt lat="46.189600517973304" lon="8.958525639027357">
        <ele>1042.6900000000001</ele>
        <time>2019-01-06T08:30:02Z</time>
      </trkpt>
      <trkpt lat="46.189616024494171" lon="8.958528824150562">
        <ele>1044.6099999999999</ele>
        <time>2019-01-06T08:30:12Z</time>
      </trkpt>
      <trkpt lat="46.189613845199347" lon="8.958439975976944">
        <ele>1045.5699999999999</ele>
        <time>2019-01-06T08:30:24Z</time>
      </trkpt>
      <trkpt lat="46.189642259851098" lon="8.958477526903153">
        <ele>1046.05</ele>
        <time>2019-01-06T08:30:34Z</time>
      </trkpt>
      <trkpt lat="46.189678218215704" lon="8.958459589630365">
        <ele>1047.49</ele>
        <time>2019-01-06T08:30:45Z</time>
      </trkpt>
      <trkpt lat="46.189679559320211" lon="8.958417763933539">
        <ele>1048.45</ele>
        <time>2019-01-06T08:31:00Z</time>
      </trkpt>
      <trkpt lat="46.189666232094169" lon="8.958411728963256">
        <ele>1048.45</ele>
        <time>2019-01-06T08:31:19Z</time>
      </trkpt>
      <trkpt lat="46.189664723351598" lon="8.958410639315844">
        <ele>1047.97</ele>
        <time>2019-01-06T08:31:38Z</time>
      </trkpt>
      <trkpt lat="46.189659023657441" lon="8.958376860246062">
        <ele>1047.97</ele>
        <time>2019-01-06T08:31:57Z</time>
      </trkpt>
      <trkpt lat="46.189677966758609" lon="8.958341237157583">
        <ele>1048.45</ele>
        <time>2019-01-06T08:32:16Z</time>
      </trkpt>
      <trkpt lat="46.18966924957931" lon="8.958374513313174">
        <ele>1048.9400000000001</ele>
        <time>2019-01-06T08:32:30Z</time>
      </trkpt>
      <trkpt lat="46.189663633704185" lon="8.958425810560584">
        <ele>1048.9400000000001</ele>
        <time>2019-01-06T08:32:50Z</time>
      </trkpt>
      <trkpt lat="46.189664304256439" lon="8.958397060632706">
        <ele>1048.45</ele>
        <time>2019-01-06T08:33:02Z</time>
      </trkpt>
      <trkpt lat="46.189705543220043" lon="8.958364287391305">
        <ele>1049.4200000000001</ele>
        <time>2019-01-06T08:33:11Z</time>
      </trkpt>
      <trkpt lat="46.189728425815701" lon="8.958374261856079">
        <ele>1050.8599999999999</ele>
        <time>2019-01-06T08:33:25Z</time>
      </trkpt>
      <trkpt lat="46.189778968691826" lon="8.95837333984673">
        <ele>1052.3</ele>
        <time>2019-01-06T08:33:36Z</time>
      </trkpt>
      <trkpt lat="46.189790535718203" lon="8.958452297374606">
        <ele>1054.22</ele>
        <time>2019-01-06T08:33:46Z</time>
      </trkpt>
      <trkpt lat="46.189828170463443" lon="8.958468390628696">
        <ele>1055.1800000000001</ele>
        <time>2019-01-06T08:33:57Z</time>
      </trkpt>
      <trkpt lat="46.189832529053092" lon="8.958541816100478">
        <ele>1056.1500000000001</ele>
        <time>2019-01-06T08:34:05Z</time>
      </trkpt>
      <trkpt lat="46.189839066937566" lon="8.958597555756569">
        <ele>1057.5899999999999</ele>
        <time>2019-01-06T08:34:14Z</time>
      </trkpt>
      <trkpt lat="46.189872343093157" lon="8.958567213267088">
        <ele>1059.51</ele>
        <time>2019-01-06T08:34:26Z</time>
      </trkpt>
      <trkpt lat="46.189873768016696" lon="8.958519017323852">
        <ele>1060.95</ele>
        <time>2019-01-06T08:34:37Z</time>
      </trkpt>
      <trkpt lat="46.189876617863774" lon="8.958477107807994">
        <ele>1061.9100000000001</ele>
        <time>2019-01-06T08:34:46Z</time>
      </trkpt>
      <trkpt lat="46.189915593713522" lon="8.958408962935209">
        <ele>1063.3599999999999</ele>
        <time>2019-01-06T08:34:59Z</time>
      </trkpt>
      <trkpt lat="46.189943253993988" lon="8.958490854129195">
        <ele>1064.3199999999999</ele>
        <time>2019-01-06T08:35:09Z</time>
      </trkpt>
      <trkpt lat="46.189955743029714" lon="8.958451710641384">
        <ele>1066.24</ele>
        <time>2019-01-06T08:35:21Z</time>
      </trkpt>
      <trkpt lat="46.189937554299831" lon="8.958408879116178">
        <ele>1068.1600000000001</ele>
        <time>2019-01-06T08:35:30Z</time>
      </trkpt>
      <trkpt lat="46.189962280914187" lon="8.958357330411673">
        <ele>1069.5999999999999</ele>
        <time>2019-01-06T08:35:42Z</time>
      </trkpt>
      <trkpt lat="46.18998390622437" lon="8.958392282947898">
        <ele>1070.5699999999999</ele>
        <time>2019-01-06T08:35:45Z</time>
      </trkpt>
      <trkpt lat="46.190032185986638" lon="8.958457326516509">
        <ele>1071.53</ele>
        <time>2019-01-06T08:35:54Z</time>
      </trkpt>
      <trkpt lat="46.190068479627371" lon="8.958518262952566">
        <ele>1072.97</ele>
        <time>2019-01-06T08:36:02Z</time>
      </trkpt>
      <trkpt lat="46.19010359980166" lon="8.958577858284116">
        <ele>1074.4100000000001</ele>
        <time>2019-01-06T08:36:12Z</time>
      </trkpt>
      <trkpt lat="46.19010410271585" lon="8.958540391176939">
        <ele>1075.8499999999999</ele>
        <time>2019-01-06T08:36:25Z</time>
      </trkpt>
      <trkpt lat="46.190104857087135" lon="8.958438215777278">
        <ele>1077.29</ele>
        <time>2019-01-06T08:36:37Z</time>
      </trkpt>
      <trkpt lat="46.190125811845064" lon="8.958364119753242">
        <ele>1078.74</ele>
        <time>2019-01-06T08:36:49Z</time>
      </trkpt>
      <trkpt lat="46.19015003554523" lon="8.958345679566264">
        <ele>1080.1800000000001</ele>
        <time>2019-01-06T08:36:59Z</time>
      </trkpt>
      <trkpt lat="46.190160932019353" lon="8.958264291286469">
        <ele>1081.6199999999999</ele>
        <time>2019-01-06T08:37:10Z</time>
      </trkpt>
      <trkpt lat="46.190154645591974" lon="8.958207126706839">
        <ele>1083.0599999999999</ele>
        <time>2019-01-06T08:37:21Z</time>
      </trkpt>
      <trkpt lat="46.190172247588634" lon="8.958211066201329">
        <ele>1083.54</ele>
        <time>2019-01-06T08:37:34Z</time>
      </trkpt>
      <trkpt lat="46.190198566764593" lon="8.958237301558256">
        <ele>1083.54</ele>
        <time>2019-01-06T08:37:47Z</time>
      </trkpt>
      <trkpt lat="46.190195381641388" lon="8.958240738138557">
        <ele>1085.47</ele>
        <time>2019-01-06T08:37:49Z</time>
      </trkpt>
      <trkpt lat="46.190226897597313" lon="8.958219699561596">
        <ele>1087.3900000000001</ele>
        <time>2019-01-06T08:38:01Z</time>
      </trkpt>
      <trkpt lat="46.190211307257414" lon="8.958172090351582">
        <ele>1089.79</ele>
        <time>2019-01-06T08:38:13Z</time>
      </trkpt>
      <trkpt lat="46.190228322520852" lon="8.958093551918864">
        <ele>1091.23</ele>
        <time>2019-01-06T08:38:24Z</time>
      </trkpt>
      <trkpt lat="46.190245253965259" lon="8.958058096468449">
        <ele>1092.6800000000001</ele>
        <time>2019-01-06T08:38:37Z</time>
      </trkpt>
      <trkpt lat="46.190288839861751" lon="8.958051642403007">
        <ele>1095.0799999999999</ele>
        <time>2019-01-06T08:38:49Z</time>
      </trkpt>
      <trkpt lat="46.190312393009663" lon="8.958021886646748">
        <ele>1096.52</ele>
        <time>2019-01-06T08:39:01Z</time>
      </trkpt>
      <trkpt lat="46.190320858731866" lon="8.957989616319537">
        <ele>1097.48</ele>
        <time>2019-01-06T08:39:15Z</time>
      </trkpt>
      <trkpt lat="46.190358325839043" lon="8.958052815869451">
        <ele>1098.9200000000001</ele>
        <time>2019-01-06T08:39:26Z</time>
      </trkpt>
      <trkpt lat="46.190377604216337" lon="8.958089696243405">
        <ele>1099.8900000000001</ele>
        <time>2019-01-06T08:39:39Z</time>
      </trkpt>
      <trkpt lat="46.190391350537539" lon="8.958021467551589">
        <ele>1101.3299999999999</ele>
        <time>2019-01-06T08:39:49Z</time>
      </trkpt>
      <trkpt lat="46.190392021089792" lon="8.957997914403677">
        <ele>1102.77</ele>
        <time>2019-01-06T08:39:57Z</time>
      </trkpt>
      <trkpt lat="46.19037969969213" lon="8.957964051514864">
        <ele>1103.73</ele>
        <time>2019-01-06T08:40:07Z</time>
      </trkpt>
      <trkpt lat="46.190407779067755" lon="8.957939995452762">
        <ele>1104.21</ele>
        <time>2019-01-06T08:40:16Z</time>
      </trkpt>
      <trkpt lat="46.190435942262411" lon="8.957921471446753">
        <ele>1105.6500000000001</ele>
        <time>2019-01-06T08:40:26Z</time>
      </trkpt>
      <trkpt lat="46.190437031909823" lon="8.957876041531563">
        <ele>1105.1700000000001</ele>
        <time>2019-01-06T08:40:41Z</time>
      </trkpt>
      <trkpt lat="46.190475672483444" lon="8.957891715690494">
        <ele>1106.6099999999999</ele>
        <time>2019-01-06T08:40:50Z</time>
      </trkpt>
      <trkpt lat="46.19046519510448" lon="8.957864055410028">
        <ele>1107.5799999999999</ele>
        <time>2019-01-06T08:41:02Z</time>
      </trkpt>
      <trkpt lat="46.190457902848721" lon="8.957826001569629">
        <ele>1109.02</ele>
        <time>2019-01-06T08:41:12Z</time>
      </trkpt>
      <trkpt lat="46.190472235903144" lon="8.957794066518545">
        <ele>1109.5</ele>
        <time>2019-01-06T08:41:21Z</time>
      </trkpt>
      <trkpt lat="46.190468212589622" lon="8.95777084864676">
        <ele>1110.9400000000001</ele>
        <time>2019-01-06T08:41:31Z</time>
      </trkpt>
      <trkpt lat="46.190475672483444" lon="8.957729944959283">
        <ele>1112.8599999999999</ele>
        <time>2019-01-06T08:41:41Z</time>
      </trkpt>
      <trkpt lat="46.190523616969585" lon="8.957755761221051">
        <ele>1113.8199999999999</ele>
        <time>2019-01-06T08:41:51Z</time>
      </trkpt>
      <trkpt lat="46.19056343100965" lon="8.957804376259446">
        <ele>1114.3099999999999</ele>
        <time>2019-01-06T08:42:00Z</time>
      </trkpt>
      <trkpt lat="46.190535603091121" lon="8.957740003243089">
        <ele>1116.23</ele>
        <time>2019-01-06T08:42:11Z</time>
      </trkpt>
      <trkpt lat="46.190563179552555" lon="8.957725837826729">
        <ele>1117.1900000000001</ele>
        <time>2019-01-06T08:42:19Z</time>
      </trkpt>
      <trkpt lat="46.190569046884775" lon="8.957695160061121">
        <ele>1119.1099999999999</ele>
        <time>2019-01-06T08:42:30Z</time>
      </trkpt>
      <trkpt lat="46.190603077411652" lon="8.957668421790004">
        <ele>1120.55</ele>
        <time>2019-01-06T08:42:40Z</time>
      </trkpt>
      <trkpt lat="46.19066652841866" lon="8.957749642431736">
        <ele>1122.48</ele>
        <time>2019-01-06T08:42:51Z</time>
      </trkpt>
      <trkpt lat="46.190632162615657" lon="8.95769901573658">
        <ele>1124.8800000000001</ele>
        <time>2019-01-06T08:43:03Z</time>
      </trkpt>
      <trkpt lat="46.190676083788276" lon="8.957677055150271">
        <ele>1126.3199999999999</ele>
        <time>2019-01-06T08:43:13Z</time>
      </trkpt>
      <trkpt lat="46.190720675513148" lon="8.957706391811371">
        <ele>1128.24</ele>
        <time>2019-01-06T08:43:24Z</time>
      </trkpt>
      <trkpt lat="46.190767027437687" lon="8.957741428166628">
        <ele>1129.6900000000001</ele>
        <time>2019-01-06T08:43:37Z</time>
      </trkpt>
      <trkpt lat="46.190747329965234" lon="8.95768434740603">
        <ele>1132.5699999999999</ele>
        <time>2019-01-06T08:43:48Z</time>
      </trkpt>
      <trkpt lat="46.190734673291445" lon="8.957624416798353">
        <ele>1132.0899999999999</ele>
        <time>2019-01-06T08:43:57Z</time>
      </trkpt>
      <trkpt lat="46.190744312480092" lon="8.957551326602697">
        <ele>1133.53</ele>
        <time>2019-01-06T08:44:09Z</time>
      </trkpt>
      <trkpt lat="46.190768284723163" lon="8.957497766241431">
        <ele>1134.01</ele>
        <time>2019-01-06T08:44:19Z</time>
      </trkpt>
      <trkpt lat="46.190778762102127" lon="8.957459796220064">
        <ele>1135.45</ele>
        <time>2019-01-06T08:44:28Z</time>
      </trkpt>
      <trkpt lat="46.1907559633255" lon="8.95743221975863">
        <ele>1136.4200000000001</ele>
        <time>2019-01-06T08:44:38Z</time>
      </trkpt>
      <trkpt lat="46.190777672454715" lon="8.957411181181669">
        <ele>1138.8199999999999</ele>
        <time>2019-01-06T08:44:49Z</time>
      </trkpt>
      <trkpt lat="46.19086048565805" lon="8.957505812868476">
        <ele>1141.22</ele>
        <time>2019-01-06T08:45:03Z</time>
      </trkpt>
      <trkpt lat="46.190910525619984" lon="8.957586027681828">
        <ele>1143.1400000000001</ele>
        <time>2019-01-06T08:45:13Z</time>
      </trkpt>
      <trkpt lat="46.190945478156209" lon="8.957664985209703">
        <ele>1144.1099999999999</ele>
        <time>2019-01-06T08:45:24Z</time>
      </trkpt>
      <trkpt lat="46.19096215814352" lon="8.957726927474141">
        <ele>1145.55</ele>
        <time>2019-01-06T08:45:35Z</time>
      </trkpt>
      <trkpt lat="46.190986465662718" lon="8.95778157748282">
        <ele>1146.99</ele>
        <time>2019-01-06T08:45:45Z</time>
      </trkpt>
      <trkpt lat="46.191007671877742" lon="8.957811836153269">
        <ele>1147.95</ele>
        <time>2019-01-06T08:45:55Z</time>
      </trkpt>
      <trkpt lat="46.190991243347526" lon="8.957727933302522">
        <ele>1148.9100000000001</ele>
        <time>2019-01-06T08:46:03Z</time>
      </trkpt>
      <trkpt lat="46.191008510068059" lon="8.957682168111205">
        <ele>1150.8399999999999</ele>
        <time>2019-01-06T08:46:12Z</time>
      </trkpt>
      <trkpt lat="46.190988142043352" lon="8.957599103450775">
        <ele>1151.8</ele>
        <time>2019-01-06T08:46:23Z</time>
      </trkpt>
      <trkpt lat="46.190985292196274" lon="8.957586530596018">
        <ele>1151.8</ele>
        <time>2019-01-06T08:46:25Z</time>
      </trkpt>
      <trkpt lat="46.190983364358544" lon="8.957506734877825">
        <ele>1152.28</ele>
        <time>2019-01-06T08:46:33Z</time>
      </trkpt>
      <trkpt lat="46.190954111516476" lon="8.957415958866477">
        <ele>1152.76</ele>
        <time>2019-01-06T08:46:41Z</time>
      </trkpt>
      <trkpt lat="46.190963918343186" lon="8.957301042973995">
        <ele>1154.2</ele>
        <time>2019-01-06T08:46:53Z</time>
      </trkpt>
      <trkpt lat="46.190959056839347" lon="8.957176487892866">
        <ele>1156.1199999999999</ele>
        <time>2019-01-06T08:47:05Z</time>
      </trkpt>
      <trkpt lat="46.190956542268395" lon="8.957070205360651">
        <ele>1158.05</ele>
        <time>2019-01-06T08:47:15Z</time>
      </trkpt>
      <trkpt lat="46.190961822867393" lon="8.956979932263494">
        <ele>1159.97</ele>
        <time>2019-01-06T08:47:26Z</time>
      </trkpt>
      <trkpt lat="46.190971462056041" lon="8.956890748813748">
        <ele>1162.3699999999999</ele>
        <time>2019-01-06T08:47:38Z</time>
      </trkpt>
      <trkpt lat="46.190970120951533" lon="8.956818245351315">
        <ele>1163.8099999999999</ele>
        <time>2019-01-06T08:47:47Z</time>
      </trkpt>
      <trkpt lat="46.190965510904789" lon="8.956738533452153">
        <ele>1164.77</ele>
        <time>2019-01-06T08:47:56Z</time>
      </trkpt>
      <trkpt lat="46.190993338823318" lon="8.956696959212422">
        <ele>1166.22</ele>
        <time>2019-01-06T08:48:05Z</time>
      </trkpt>
      <trkpt lat="46.190996859222651" lon="8.956630658358336">
        <ele>1167.1800000000001</ele>
        <time>2019-01-06T08:48:14Z</time>
      </trkpt>
      <trkpt lat="46.190994679927826" lon="8.956547006964684">
        <ele>1167.1800000000001</ele>
        <time>2019-01-06T08:48:22Z</time>
      </trkpt>
      <trkpt lat="46.190997194498777" lon="8.956533595919609">
        <ele>1167.1800000000001</ele>
        <time>2019-01-06T08:48:23Z</time>
      </trkpt>
      <trkpt lat="46.191046228632331" lon="8.956481460481882">
        <ele>1168.6199999999999</ele>
        <time>2019-01-06T08:48:32Z</time>
      </trkpt>
      <trkpt lat="46.191032230854034" lon="8.956412561237812">
        <ele>1168.1400000000001</ele>
        <time>2019-01-06T08:48:42Z</time>
      </trkpt>
      <trkpt lat="46.191030722111464" lon="8.956387750804424">
        <ele>1167.1800000000001</ele>
        <time>2019-01-06T08:48:53Z</time>
      </trkpt>
      <trkpt lat="46.191024519503117" lon="8.956361515447497">
        <ele>1166.7</ele>
        <time>2019-01-06T08:48:56Z</time>
      </trkpt>
      <trkpt lat="46.190992332994938" lon="8.956223716959357">
        <ele>1166.7</ele>
        <time>2019-01-06T08:49:07Z</time>
      </trkpt>
      <trkpt lat="46.190970791503787" lon="8.956102095544338">
        <ele>1168.1400000000001</ele>
        <time>2019-01-06T08:49:18Z</time>
      </trkpt>
      <trkpt lat="46.190984034910798" lon="8.956063622608781">
        <ele>1168.6199999999999</ele>
        <time>2019-01-06T08:49:21Z</time>
      </trkpt>
      <trkpt lat="46.191020915284753" lon="8.95593261346221">
        <ele>1168.6199999999999</ele>
        <time>2019-01-06T08:49:32Z</time>
      </trkpt>
      <trkpt lat="46.19105352088809" lon="8.95586765371263">
        <ele>1169.5799999999999</ele>
        <time>2019-01-06T08:49:40Z</time>
      </trkpt>
      <trkpt lat="46.191068608313799" lon="8.955831108614802">
        <ele>1170.54</ele>
        <time>2019-01-06T08:49:53Z</time>
      </trkpt>
      <trkpt lat="46.191100543364882" lon="8.955822391435504">
        <ele>1170.0599999999999</ele>
        <time>2019-01-06T08:50:04Z</time>
      </trkpt>
      <trkpt lat="46.191100459545851" lon="8.955823983997107">
        <ele>1171.5</ele>
        <time>2019-01-06T08:50:23Z</time>
      </trkpt>
      <trkpt lat="46.19107648730278" lon="8.95582071505487">
        <ele>1172.47</ele>
        <time>2019-01-06T08:50:34Z</time>
      </trkpt>
      <trkpt lat="46.191082941368222" lon="8.955834209918976">
        <ele>1171.98</ele>
        <time>2019-01-06T08:50:47Z</time>
      </trkpt>
      <trkpt lat="46.191075565293431" lon="8.955854997038841">
        <ele>1171.98</ele>
        <time>2019-01-06T08:51:00Z</time>
      </trkpt>
      <trkpt lat="46.191063746809959" lon="8.955887602642179">
        <ele>1171.98</ele>
        <time>2019-01-06T08:51:14Z</time>
      </trkpt>
      <trkpt lat="46.191077074036002" lon="8.955836137756705">
        <ele>1174.3900000000001</ele>
        <time>2019-01-06T08:51:30Z</time>
      </trkpt>
      <trkpt lat="46.191076068207622" lon="8.955761874094605">
        <ele>1173.9100000000001</ele>
        <time>2019-01-06T08:51:41Z</time>
      </trkpt>
      <trkpt lat="46.191069278866053" lon="8.955730777233839">
        <ele>1173.9100000000001</ele>
        <time>2019-01-06T08:51:56Z</time>
      </trkpt>
      <trkpt lat="46.191108925268054" lon="8.955702362582088">
        <ele>1173.4300000000001</ele>
        <time>2019-01-06T08:52:10Z</time>
      </trkpt>
      <trkpt lat="46.191091574728489" lon="8.955708146095276">
        <ele>1172.47</ele>
        <time>2019-01-06T08:52:23Z</time>
      </trkpt>
      <trkpt lat="46.191081181168556" lon="8.955724658444524">
        <ele>1172.95</ele>
        <time>2019-01-06T08:52:40Z</time>
      </trkpt>
      <trkpt lat="46.191080678254366" lon="8.955725412815809">
        <ele>1172.47</ele>
        <time>2019-01-06T08:52:56Z</time>
      </trkpt>
      <trkpt lat="46.191082270815969" lon="8.955736476927996">
        <ele>1172.47</ele>
        <time>2019-01-06T08:53:11Z</time>
      </trkpt>
      <trkpt lat="46.191090401262045" lon="8.955733627080917">
        <ele>1172.47</ele>
        <time>2019-01-06T08:53:23Z</time>
      </trkpt>
      <trkpt lat="46.191101716831326" lon="8.955733291804791">
        <ele>1172.47</ele>
        <time>2019-01-06T08:53:36Z</time>
      </trkpt>
      <trkpt lat="46.191094340756536" lon="8.955733040347695">
        <ele>1171.02</ele>
        <time>2019-01-06T08:53:52Z</time>
      </trkpt>
      <trkpt lat="46.191095346584916" lon="8.955739578232169">
        <ele>1171.02</ele>
        <time>2019-01-06T08:54:07Z</time>
      </trkpt>
      <trkpt lat="46.191080091521144" lon="8.95573228597641">
        <ele>1171.5</ele>
        <time>2019-01-06T08:54:19Z</time>
      </trkpt>
      <trkpt lat="46.19108771905303" lon="8.955740751698613">
        <ele>1171.98</ele>
        <time>2019-01-06T08:54:31Z</time>
      </trkpt>
      <trkpt lat="46.191075397655368" lon="8.95575231872499">
        <ele>1171.98</ele>
        <time>2019-01-06T08:54:42Z</time>
      </trkpt>
      <trkpt lat="46.191080342978239" lon="8.955735638737679">
        <ele>1172.47</ele>
        <time>2019-01-06T08:54:54Z</time>
      </trkpt>
      <trkpt lat="46.191078582778573" lon="8.955752067267895">
        <ele>1171.98</ele>
        <time>2019-01-06T08:55:11Z</time>
      </trkpt>
      <trkpt lat="46.191084953024983" lon="8.955742428079248">
        <ele>1171.98</ele>
        <time>2019-01-06T08:55:31Z</time>
      </trkpt>
      <trkpt lat="46.191078834235668" lon="8.955736979842186">
        <ele>1171.5</ele>
        <time>2019-01-06T08:55:44Z</time>
      </trkpt>
      <trkpt lat="46.191075565293431" lon="8.955738404765725">
        <ele>1171.5</ele>
        <time>2019-01-06T08:55:59Z</time>
      </trkpt>
      <trkpt lat="46.191064082086086" lon="8.955723149701953">
        <ele>1170.54</ele>
        <time>2019-01-06T08:56:14Z</time>
      </trkpt>
      <trkpt lat="46.19106232188642" lon="8.955738237127662">
        <ele>1170.54</ele>
        <time>2019-01-06T08:56:28Z</time>
      </trkpt>
      <trkpt lat="46.191060896962881" lon="8.955749133601785">
        <ele>1170.54</ele>
        <time>2019-01-06T08:56:48Z</time>
      </trkpt>
      <trkpt lat="46.191074559465051" lon="8.955743853002787">
        <ele>1170.54</ele>
        <time>2019-01-06T08:57:03Z</time>
      </trkpt>
      <trkpt lat="46.191066429018974" lon="8.955753659829497">
        <ele>1170.54</ele>
        <time>2019-01-06T08:57:17Z</time>
      </trkpt>
      <trkpt lat="46.191066429018974" lon="8.955756342038512">
        <ele>1170.0599999999999</ele>
        <time>2019-01-06T08:57:28Z</time>
      </trkpt>
      <trkpt lat="46.191092496737838" lon="8.955754162743688">
        <ele>1170.54</ele>
        <time>2019-01-06T08:57:54Z</time>
      </trkpt>
      <trkpt lat="46.191080594435334" lon="8.955726670101285">
        <ele>1170.0599999999999</ele>
        <time>2019-01-06T08:58:17Z</time>
      </trkpt>
      <trkpt lat="46.191080845892429" lon="8.955735890194774">
        <ele>1169.0999999999999</ele>
        <time>2019-01-06T08:58:36Z</time>
      </trkpt>
      <trkpt lat="46.191072631627321" lon="8.955730106681585">
        <ele>1171.02</ele>
        <time>2019-01-06T08:58:53Z</time>
      </trkpt>
      <trkpt lat="46.191083444282413" lon="8.955752067267895">
        <ele>1173.9100000000001</ele>
        <time>2019-01-06T08:59:13Z</time>
      </trkpt>
      <trkpt lat="46.191095849499106" lon="8.955749217420816">
        <ele>1174.8699999999999</ele>
        <time>2019-01-06T08:59:27Z</time>
      </trkpt>
      <trkpt lat="46.191088138148189" lon="8.955761287361383">
        <ele>1174.8699999999999</ele>
        <time>2019-01-06T08:59:43Z</time>
      </trkpt>
      <trkpt lat="46.191093670204282" lon="8.955761287361383">
        <ele>1174.8699999999999</ele>
        <time>2019-01-06T09:00:00Z</time>
      </trkpt>
      <trkpt lat="46.191096268594265" lon="8.955746870487928">
        <ele>1174.3900000000001</ele>
        <time>2019-01-06T09:00:15Z</time>
      </trkpt>
      <trkpt lat="46.191100543364882" lon="8.955741673707962">
        <ele>1174.3900000000001</ele>
        <time>2019-01-06T09:00:29Z</time>
      </trkpt>
      <trkpt lat="46.191086545586586" lon="8.955750977620482">
        <ele>1173.4300000000001</ele>
        <time>2019-01-06T09:00:43Z</time>
      </trkpt>
      <trkpt lat="46.191097190603614" lon="8.955731028690934">
        <ele>1172.95</ele>
        <time>2019-01-06T09:01:01Z</time>
      </trkpt>
      <trkpt lat="46.19108428247273" lon="8.955739997327328">
        <ele>1172.47</ele>
        <time>2019-01-06T09:01:16Z</time>
      </trkpt>
      <trkpt lat="46.191069278866053" lon="8.955728933215141">
        <ele>1172.47</ele>
        <time>2019-01-06T09:01:29Z</time>
      </trkpt>
      <trkpt lat="46.191060394048691" lon="8.955711415037513">
        <ele>1171.98</ele>
        <time>2019-01-06T09:01:47Z</time>
      </trkpt>
      <trkpt lat="46.191062908619642" lon="8.955704541876912">
        <ele>1171.98</ele>
        <time>2019-01-06T09:02:03Z</time>
      </trkpt>
      <trkpt lat="46.191064668819308" lon="8.955713426694274">
        <ele>1172.47</ele>
        <time>2019-01-06T09:02:13Z</time>
      </trkpt>
      <trkpt lat="46.191077409312129" lon="8.955728346481919">
        <ele>1171.98</ele>
        <time>2019-01-06T09:02:33Z</time>
      </trkpt>
      <trkpt lat="46.191094173118472" lon="8.9557586889714">
        <ele>1171.5</ele>
        <time>2019-01-06T09:02:52Z</time>
      </trkpt>
      <trkpt lat="46.191089060157537" lon="8.95579045638442">
        <ele>1171.02</ele>
        <time>2019-01-06T09:03:06Z</time>
      </trkpt>
      <trkpt lat="46.191088473424315" lon="8.955762796103954">
        <ele>1171.5</ele>
        <time>2019-01-06T09:03:16Z</time>
      </trkpt>
      <trkpt lat="46.191143291071057" lon="8.955707643181086">
        <ele>1171.02</ele>
        <time>2019-01-06T09:03:28Z</time>
      </trkpt>
      <trkpt lat="46.191193498671055" lon="8.955752570182085">
        <ele>1172.47</ele>
        <time>2019-01-06T09:03:37Z</time>
      </trkpt>
      <trkpt lat="46.191248316317797" lon="8.955768998712301">
        <ele>1172.95</ele>
        <time>2019-01-06T09:03:45Z</time>
      </trkpt>
      <trkpt lat="46.191328950226307" lon="8.955781739205122">
        <ele>1175.3499999999999</ele>
        <time>2019-01-06T09:03:57Z</time>
      </trkpt>
      <trkpt lat="46.191375972703099" lon="8.955806214362383">
        <ele>1177.27</ele>
        <time>2019-01-06T09:04:06Z</time>
      </trkpt>
      <trkpt lat="46.191410170868039" lon="8.955818954855204">
        <ele>1178.71</ele>
        <time>2019-01-06T09:04:14Z</time>
      </trkpt>
      <trkpt lat="46.191452164202929" lon="8.955813087522984">
        <ele>1180.6400000000001</ele>
        <time>2019-01-06T09:04:23Z</time>
      </trkpt>
      <trkpt lat="46.191504215821624" lon="8.955788780003786">
        <ele>1182.0799999999999</ele>
        <time>2019-01-06T09:04:32Z</time>
      </trkpt>
      <trkpt lat="46.191545454785228" lon="8.95576748996973">
        <ele>1183.52</ele>
        <time>2019-01-06T09:04:42Z</time>
      </trkpt>
      <trkpt lat="46.191576635465026" lon="8.955774195492268">
        <ele>1185.4400000000001</ele>
        <time>2019-01-06T09:04:56Z</time>
      </trkpt>
      <trkpt lat="46.191617203876376" lon="8.955764723941684">
        <ele>1186.4000000000001</ele>
        <time>2019-01-06T09:05:07Z</time>
      </trkpt>
      <trkpt lat="46.191679229959846" lon="8.95576891489327">
        <ele>1188.3299999999999</ele>
        <time>2019-01-06T09:05:17Z</time>
      </trkpt>
      <trkpt lat="46.191718289628625" lon="8.955762209370732">
        <ele>1189.29</ele>
        <time>2019-01-06T09:05:29Z</time>
      </trkpt>
      <trkpt lat="46.191737316548824" lon="8.955752654001117">
        <ele>1190.25</ele>
        <time>2019-01-06T09:05:38Z</time>
      </trkpt>
      <trkpt lat="46.191754164174199" lon="8.955758018419147">
        <ele>1190.73</ele>
        <time>2019-01-06T09:05:49Z</time>
      </trkpt>
      <trkpt lat="46.191809149459004" lon="8.955760700628161">
        <ele>1192.1700000000001</ele>
        <time>2019-01-06T09:06:00Z</time>
      </trkpt>
      <trkpt lat="46.19184510782361" lon="8.955777548253536">
        <ele>1194.0899999999999</ele>
        <time>2019-01-06T09:06:09Z</time>
      </trkpt>
      <trkpt lat="46.191862709820271" lon="8.955755000934005">
        <ele>1194.5799999999999</ele>
        <time>2019-01-06T09:06:17Z</time>
      </trkpt>
      <trkpt lat="46.191902104765177" lon="8.955715857446194">
        <ele>1195.54</ele>
        <time>2019-01-06T09:06:27Z</time>
      </trkpt>
      <trkpt lat="46.191956168040633" lon="8.955736141651869">
        <ele>1196.02</ele>
        <time>2019-01-06T09:06:37Z</time>
      </trkpt>
      <trkpt lat="46.192002519965172" lon="8.955752654001117">
        <ele>1197.9400000000001</ele>
        <time>2019-01-06T09:06:49Z</time>
      </trkpt>
      <trkpt lat="46.192023390904069" lon="8.955752905458212">
        <ele>1198.4200000000001</ele>
        <time>2019-01-06T09:06:59Z</time>
      </trkpt>
      <trkpt lat="46.192036047577858" lon="8.955731112509966">
        <ele>1198.9000000000001</ele>
        <time>2019-01-06T09:07:08Z</time>
      </trkpt>
      <trkpt lat="46.192061444744468" lon="8.955720635131002">
        <ele>1199.3800000000001</ele>
        <time>2019-01-06T09:07:20Z</time>
      </trkpt>
      <trkpt lat="46.192072425037622" lon="8.955698758363724">
        <ele>1201.3</ele>
        <time>2019-01-06T09:07:25Z</time>
      </trkpt>
      <trkpt lat="46.192074855789542" lon="8.955667829141021">
        <ele>1201.3</ele>
        <time>2019-01-06T09:07:27Z</time>
      </trkpt>
      <trkpt lat="46.192105868831277" lon="8.955583088099957">
        <ele>1204.6700000000001</ele>
        <time>2019-01-06T09:07:36Z</time>
      </trkpt>
      <trkpt lat="46.192134534940124" lon="8.955497341230512">
        <ele>1207.55</ele>
        <time>2019-01-06T09:07:46Z</time>
      </trkpt>
      <trkpt lat="46.192164458334446" lon="8.955448977649212">
        <ele>1209</ele>
        <time>2019-01-06T09:07:57Z</time>
      </trkpt>
      <trkpt lat="46.192213073372841" lon="8.955381670966744">
        <ele>1211.8800000000001</ele>
        <time>2019-01-06T09:08:09Z</time>
      </trkpt>
      <trkpt lat="46.192258335649967" lon="8.955308329313994">
        <ele>1214.28</ele>
        <time>2019-01-06T09:08:20Z</time>
      </trkpt>
      <trkpt lat="46.192291863262653" lon="8.955218810588121">
        <ele>1215.72</ele>
        <time>2019-01-06T09:08:30Z</time>
      </trkpt>
      <trkpt lat="46.192324887961149" lon="8.955124011263251">
        <ele>1217.1700000000001</ele>
        <time>2019-01-06T09:08:41Z</time>
      </trkpt>
      <trkpt lat="46.192381717264652" lon="8.955054692924023">
        <ele>1218.1300000000001</ele>
        <time>2019-01-06T09:08:53Z</time>
      </trkpt>
      <trkpt lat="46.192419938743114" lon="8.955010939389467">
        <ele>1218.6099999999999</ele>
        <time>2019-01-06T09:09:02Z</time>
      </trkpt>
      <trkpt lat="46.192461596801877" lon="8.954973388463259">
        <ele>1220.53</ele>
        <time>2019-01-06T09:09:13Z</time>
      </trkpt>
      <trkpt lat="46.192487329244614" lon="8.954936340451241">
        <ele>1221.97</ele>
        <time>2019-01-06T09:09:23Z</time>
      </trkpt>
      <trkpt lat="46.19252379052341" lon="8.954912452027202">
        <ele>1222.9300000000001</ele>
        <time>2019-01-06T09:09:33Z</time>
      </trkpt>
      <trkpt lat="46.19254725985229" lon="8.95485470071435">
        <ele>1223.9000000000001</ele>
        <time>2019-01-06T09:09:45Z</time>
      </trkpt>
      <trkpt lat="46.192577686160803" lon="8.954780353233218">
        <ele>1224.8599999999999</ele>
        <time>2019-01-06T09:09:57Z</time>
      </trkpt>
      <trkpt lat="46.192590426653624" lon="8.95475260913372">
        <ele>1225.8199999999999</ele>
        <time>2019-01-06T09:10:05Z</time>
      </trkpt>
      <trkpt lat="46.192622445523739" lon="8.954784376546741">
        <ele>1226.3</ele>
        <time>2019-01-06T09:10:13Z</time>
      </trkpt>
      <trkpt lat="46.192659325897694" lon="8.954858556389809">
        <ele>1227.26</ele>
        <time>2019-01-06T09:10:23Z</time>
      </trkpt>
      <trkpt lat="46.19269922375679" lon="8.954880349338055">
        <ele>1226.78</ele>
        <time>2019-01-06T09:10:34Z</time>
      </trkpt>
      <trkpt lat="46.192735768854618" lon="8.954936675727367">
        <ele>1228.7</ele>
        <time>2019-01-06T09:10:44Z</time>
      </trkpt>
      <trkpt lat="46.192739037796855" lon="8.955018566921353">
        <ele>1231.1099999999999</ele>
        <time>2019-01-06T09:10:57Z</time>
      </trkpt>
      <trkpt lat="46.192746162414551" lon="8.955113952979446">
        <ele>1234.47</ele>
        <time>2019-01-06T09:11:08Z</time>
      </trkpt>
      <trkpt lat="46.192757561802864" lon="8.955197185277939">
        <ele>1236.8699999999999</ele>
        <time>2019-01-06T09:11:17Z</time>
      </trkpt>
      <trkpt lat="46.192760914564133" lon="8.955268347635865">
        <ele>1239.28</ele>
        <time>2019-01-06T09:11:28Z</time>
      </trkpt>
      <trkpt lat="46.192743312567472" lon="8.955383766442537">
        <ele>1241.6800000000001</ele>
        <time>2019-01-06T09:11:41Z</time>
      </trkpt>
      <trkpt lat="46.192749515175819" lon="8.955456605181098">
        <ele>1243.5999999999999</ele>
        <time>2019-01-06T09:11:52Z</time>
      </trkpt>
      <trkpt lat="46.192725207656622" lon="8.955571604892612">
        <ele>1245.04</ele>
        <time>2019-01-06T09:12:04Z</time>
      </trkpt>
      <trkpt lat="46.192724369466305" lon="8.955633128061891">
        <ele>1246.01</ele>
        <time>2019-01-06T09:12:14Z</time>
      </trkpt>
      <trkpt lat="46.192736942321062" lon="8.955711666494608">
        <ele>1247.9300000000001</ele>
        <time>2019-01-06T09:12:25Z</time>
      </trkpt>
      <trkpt lat="46.192707773298025" lon="8.955709068104625">
        <ele>1247.9300000000001</ele>
        <time>2019-01-06T09:12:40Z</time>
      </trkpt>
      <trkpt lat="46.192719675600529" lon="8.955777799710631">
        <ele>1249.8499999999999</ele>
        <time>2019-01-06T09:12:51Z</time>
      </trkpt>
      <trkpt lat="46.192719424143434" lon="8.95582415163517">
        <ele>1249.8499999999999</ele>
        <time>2019-01-06T09:13:00Z</time>
      </trkpt>
      <trkpt lat="46.192717663943768" lon="8.955876119434834">
        <ele>1252.25</ele>
        <time>2019-01-06T09:13:09Z</time>
      </trkpt>
      <trkpt lat="46.192729147151113" lon="8.955895062536001">
        <ele>1253.7</ele>
        <time>2019-01-06T09:13:18Z</time>
      </trkpt>
      <trkpt lat="46.192723531275988" lon="8.955954071134329">
        <ele>1255.1400000000001</ele>
        <time>2019-01-06T09:13:32Z</time>
      </trkpt>
      <trkpt lat="46.19276225566864" lon="8.956033196300268">
        <ele>1256.5799999999999</ele>
        <time>2019-01-06T09:13:43Z</time>
      </trkpt>
      <trkpt lat="46.192758148536086" lon="8.956102430820465">
        <ele>1258.5</ele>
        <time>2019-01-06T09:13:53Z</time>
      </trkpt>
      <trkpt lat="46.192751610651612" lon="8.956173844635487">
        <ele>1258.5</ele>
        <time>2019-01-06T09:14:03Z</time>
      </trkpt>
      <trkpt lat="46.192752532660961" lon="8.956199493259192">
        <ele>1260.4300000000001</ele>
        <time>2019-01-06T09:14:07Z</time>
      </trkpt>
      <trkpt lat="46.192789999768138" lon="8.956167474389076">
        <ele>1262.3499999999999</ele>
        <time>2019-01-06T09:14:14Z</time>
      </trkpt>
      <trkpt lat="46.192803494632244" lon="8.956141406670213">
        <ele>1265.23</ele>
        <time>2019-01-06T09:14:19Z</time>
      </trkpt>
      <trkpt lat="46.192838447168469" lon="8.95609874278307">
        <ele>1264.75</ele>
        <time>2019-01-06T09:14:27Z</time>
      </trkpt>
      <trkpt lat="46.192806847393513" lon="8.956066053360701">
        <ele>1265.71</ele>
        <time>2019-01-06T09:14:39Z</time>
      </trkpt>
      <trkpt lat="46.192801650613546" lon="8.956069154664874">
        <ele>1265.71</ele>
        <time>2019-01-06T09:14:40Z</time>
      </trkpt>
      <trkpt lat="46.192857641726732" lon="8.956065215170384">
        <ele>1267.6400000000001</ele>
        <time>2019-01-06T09:14:48Z</time>
      </trkpt>
      <trkpt lat="46.192896952852607" lon="8.956106789410114">
        <ele>1268.5999999999999</ele>
        <time>2019-01-06T09:14:58Z</time>
      </trkpt>
      <trkpt lat="46.192956883460283" lon="8.956082817167044">
        <ele>1271.96</ele>
        <time>2019-01-06T09:15:08Z</time>
      </trkpt>
      <trkpt lat="46.193014634773135" lon="8.956069741398096">
        <ele>1271.96</ele>
        <time>2019-01-06T09:15:20Z</time>
      </trkpt>
      <trkpt lat="46.19308227673173" lon="8.956110393628478">
        <ele>1273.4000000000001</ele>
        <time>2019-01-06T09:15:32Z</time>
      </trkpt>
      <trkpt lat="46.193156205117702" lon="8.956108465790749">
        <ele>1274.3599999999999</ele>
        <time>2019-01-06T09:15:42Z</time>
      </trkpt>
      <trkpt lat="46.193147990852594" lon="8.956100922077894">
        <ele>1274.3599999999999</ele>
        <time>2019-01-06T09:15:47Z</time>
      </trkpt>
      <trkpt lat="46.193155953660607" lon="8.956090696156025">
        <ele>1274.3599999999999</ele>
        <time>2019-01-06T09:15:50Z</time>
      </trkpt>
      <trkpt lat="46.193140111863613" lon="8.956138892099261">
        <ele>1275.3299999999999</ele>
        <time>2019-01-06T09:15:59Z</time>
      </trkpt>
      <trkpt lat="46.193148326128721" lon="8.956172000616789">
        <ele>1276.29</ele>
        <time>2019-01-06T09:16:06Z</time>
      </trkpt>
      <trkpt lat="46.193153187632561" lon="8.956177867949009">
        <ele>1278.21</ele>
        <time>2019-01-06T09:16:08Z</time>
      </trkpt>
      <trkpt lat="46.193174896761775" lon="8.956208461895585">
        <ele>1281.5699999999999</ele>
        <time>2019-01-06T09:16:15Z</time>
      </trkpt>
      <trkpt lat="46.193236839026213" lon="8.956229249015451">
        <ele>1283.5</ele>
        <time>2019-01-06T09:16:25Z</time>
      </trkpt>
      <trkpt lat="46.193242454901338" lon="8.956243833526969">
        <ele>1284.9400000000001</ele>
        <time>2019-01-06T09:16:28Z</time>
      </trkpt>
      <trkpt lat="46.193262990564108" lon="8.956321198493242">
        <ele>1286.3800000000001</ele>
        <time>2019-01-06T09:16:38Z</time>
      </trkpt>
      <trkpt lat="46.193304900079966" lon="8.956365622580051">
        <ele>1286.8599999999999</ele>
        <time>2019-01-06T09:16:46Z</time>
      </trkpt>
      <trkpt lat="46.193345552310348" lon="8.956394707784057">
        <ele>1287.8199999999999</ele>
        <time>2019-01-06T09:16:54Z</time>
      </trkpt>
      <trkpt lat="46.193386288359761" lon="8.956423541530967">
        <ele>1288.3</ele>
        <time>2019-01-06T09:17:04Z</time>
      </trkpt>
      <trkpt lat="46.19341654703021" lon="8.956492189317942">
        <ele>1290.23</ele>
        <time>2019-01-06T09:17:14Z</time>
      </trkpt>
      <trkpt lat="46.193464323878288" lon="8.956553209573031">
        <ele>1290.71</ele>
        <time>2019-01-06T09:17:23Z</time>
      </trkpt>
      <trkpt lat="46.19350254535675" lon="8.956608027219772">
        <ele>1291.1900000000001</ele>
        <time>2019-01-06T09:17:31Z</time>
      </trkpt>
      <trkpt lat="46.193524757400155" lon="8.956568045541644">
        <ele>1290.71</ele>
        <time>2019-01-06T09:17:35Z</time>
      </trkpt>
      <trkpt lat="46.193580077961087" lon="8.95645740441978">
        <ele>1290.71</ele>
        <time>2019-01-06T09:17:47Z</time>
      </trkpt>
      <trkpt lat="46.19364864192903" lon="8.956373333930969">
        <ele>1290.71</ele>
        <time>2019-01-06T09:17:59Z</time>
      </trkpt>
      <trkpt lat="46.193688791245222" lon="8.956293035298586">
        <ele>1294.0699999999999</ele>
        <time>2019-01-06T09:18:10Z</time>
      </trkpt>
      <trkpt lat="46.193737741559744" lon="8.956252802163363">
        <ele>1296.48</ele>
        <time>2019-01-06T09:18:20Z</time>
      </trkpt>
      <trkpt lat="46.193768084049225" lon="8.95614174194634">
        <ele>1298.4000000000001</ele>
        <time>2019-01-06T09:18:30Z</time>
      </trkpt>
      <trkpt lat="46.193785183131695" lon="8.956074686720967">
        <ele>1300.3199999999999</ele>
        <time>2019-01-06T09:18:43Z</time>
      </trkpt>
      <trkpt lat="46.193813011050224" lon="8.956042416393757">
        <ele>1301.76</ele>
        <time>2019-01-06T09:18:54Z</time>
      </trkpt>
      <trkpt lat="46.193805383518338" lon="8.9560108166188">
        <ele>1302.72</ele>
        <time>2019-01-06T09:19:04Z</time>
      </trkpt>
      <trkpt lat="46.19382499717176" lon="8.955932948738337">
        <ele>1302.24</ele>
        <time>2019-01-06T09:19:17Z</time>
      </trkpt>
      <trkpt lat="46.193864727392793" lon="8.955949209630489">
        <ele>1303.2</ele>
        <time>2019-01-06T09:19:29Z</time>
      </trkpt>
      <trkpt lat="46.193914180621505" lon="8.955966141074896">
        <ele>1306.5699999999999</ele>
        <time>2019-01-06T09:19:42Z</time>
      </trkpt>
      <trkpt lat="46.193918790668249" lon="8.955964213237166">
        <ele>1306.5699999999999</ele>
        <time>2019-01-06T09:19:43Z</time>
      </trkpt>
      <trkpt lat="46.194003028795123" lon="8.955949461087585">
        <ele>1306.5699999999999</ele>
        <time>2019-01-06T09:19:57Z</time>
      </trkpt>
      <trkpt lat="46.194050973281264" lon="8.955955160781741">
        <ele>1308.97</ele>
        <time>2019-01-06T09:20:07Z</time>
      </trkpt>
      <trkpt lat="46.194070167839527" lon="8.955967398360372">
        <ele>1310.4100000000001</ele>
        <time>2019-01-06T09:20:18Z</time>
      </trkpt>
      <trkpt lat="46.194104198366404" lon="8.955951472744346">
        <ele>1311.8599999999999</ele>
        <time>2019-01-06T09:20:26Z</time>
      </trkpt>
      <trkpt lat="46.194113334640861" lon="8.955909479409456">
        <ele>1311.3800000000001</ele>
        <time>2019-01-06T09:20:39Z</time>
      </trkpt>
      <trkpt lat="46.194127919152379" lon="8.955986592918634">
        <ele>1310.9000000000001</ele>
        <time>2019-01-06T09:20:49Z</time>
      </trkpt>
      <trkpt lat="46.194160608574748" lon="8.955945940688252">
        <ele>1312.8199999999999</ele>
        <time>2019-01-06T09:21:03Z</time>
      </trkpt>
      <trkpt lat="46.194187682121992" lon="8.955931272357702">
        <ele>1313.78</ele>
        <time>2019-01-06T09:21:15Z</time>
      </trkpt>
      <trkpt lat="46.194245517253876" lon="8.955969493836165">
        <ele>1315.22</ele>
        <time>2019-01-06T09:21:25Z</time>
      </trkpt>
      <trkpt lat="46.194329671561718" lon="8.955952478572726">
        <ele>1317.6199999999999</ele>
        <time>2019-01-06T09:21:38Z</time>
      </trkpt>
      <trkpt lat="46.194357750937343" lon="8.955928841605783">
        <ele>1318.5899999999999</ele>
        <time>2019-01-06T09:21:50Z</time>
      </trkpt>
      <trkpt lat="46.194394882768393" lon="8.955891374498606">
        <ele>1320.03</ele>
        <time>2019-01-06T09:22:01Z</time>
      </trkpt>
      <trkpt lat="46.194409299641848" lon="8.955852733924985">
        <ele>1322.9100000000001</ele>
        <time>2019-01-06T09:22:11Z</time>
      </trkpt>
      <trkpt lat="46.19442799128592" lon="8.955839155241847">
        <ele>1323.8699999999999</ele>
        <time>2019-01-06T09:22:21Z</time>
      </trkpt>
      <trkpt lat="46.194413406774402" lon="8.955848878249526">
        <ele>1322.4300000000001</ele>
        <time>2019-01-06T09:22:25Z</time>
      </trkpt>
      <trkpt lat="46.194419525563717" lon="8.955808309838176">
        <ele>1323.3900000000001</ele>
        <time>2019-01-06T09:22:40Z</time>
      </trkpt>
      <trkpt lat="46.194495968520641" lon="8.955768411979079">
        <ele>1325.8</ele>
        <time>2019-01-06T09:22:52Z</time>
      </trkpt>
      <trkpt lat="46.194499488919973" lon="8.955742511898279">
        <ele>1327.24</ele>
        <time>2019-01-06T09:23:01Z</time>
      </trkpt>
      <trkpt lat="46.194499991834164" lon="8.955706637352705">
        <ele>1327.72</ele>
        <time>2019-01-06T09:23:13Z</time>
      </trkpt>
      <trkpt lat="46.194522539153695" lon="8.95564871840179">
        <ele>1328.2</ele>
        <time>2019-01-06T09:23:27Z</time>
      </trkpt>
      <trkpt lat="46.194602167233825" lon="8.955595241859555">
        <ele>1330.1199999999999</ele>
        <time>2019-01-06T09:23:39Z</time>
      </trkpt>
      <trkpt lat="46.194636365398765" lon="8.955560708418489">
        <ele>1331.0799999999999</ele>
        <time>2019-01-06T09:23:47Z</time>
      </trkpt>
      <trkpt lat="46.194654302671552" lon="8.955511841922998">
        <ele>1333.49</ele>
        <time>2019-01-06T09:23:58Z</time>
      </trkpt>
      <trkpt lat="46.194643154740334" lon="8.955482253804803">
        <ele>1334.9300000000001</ele>
        <time>2019-01-06T09:24:09Z</time>
      </trkpt>
      <trkpt lat="46.19460535235703" lon="8.955444116145372">
        <ele>1336.3699999999999</ele>
        <time>2019-01-06T09:24:20Z</time>
      </trkpt>
      <trkpt lat="46.1945775244385" lon="8.955458700656891">
        <ele>1337.3299999999999</ele>
        <time>2019-01-06T09:24:26Z</time>
      </trkpt>
      <trkpt lat="46.19453938677907" lon="8.955393489450216">
        <ele>1338.77</ele>
        <time>2019-01-06T09:24:36Z</time>
      </trkpt>
      <trkpt lat="46.194520443677902" lon="8.955366583541036">
        <ele>1338.29</ele>
        <time>2019-01-06T09:24:47Z</time>
      </trkpt>
      <trkpt lat="46.19459412060678" lon="8.955311179161072">
        <ele>1340.22</ele>
        <time>2019-01-06T09:24:58Z</time>
      </trkpt>
      <trkpt lat="46.19467131793499" lon="8.955270610749722">
        <ele>1343.5799999999999</ele>
        <time>2019-01-06T09:25:08Z</time>
      </trkpt>
      <trkpt lat="46.194757567718625" lon="8.955289805307984">
        <ele>1345.5</ele>
        <time>2019-01-06T09:25:17Z</time>
      </trkpt>
      <trkpt lat="46.194790173321962" lon="8.955278908833861">
        <ele>1347.4300000000001</ele>
        <time>2019-01-06T09:25:26Z</time>
      </trkpt>
      <trkpt lat="46.194817749783397" lon="8.955226605758071">
        <ele>1347.4300000000001</ele>
        <time>2019-01-06T09:25:38Z</time>
      </trkpt>
      <trkpt lat="46.194841135293245" lon="8.955200621858239">
        <ele>1347.4300000000001</ele>
        <time>2019-01-06T09:25:48Z</time>
      </trkpt>
      <trkpt lat="46.19489754550159" lon="8.955153934657574">
        <ele>1348.8699999999999</ele>
        <time>2019-01-06T09:26:00Z</time>
      </trkpt>
      <trkpt lat="46.194941131398082" lon="8.955117054283619">
        <ele>1350.79</ele>
        <time>2019-01-06T09:26:09Z</time>
      </trkpt>
      <trkpt lat="46.194983460009098" lon="8.955072881653905">
        <ele>1352.71</ele>
        <time>2019-01-06T09:26:18Z</time>
      </trkpt>
      <trkpt lat="46.195015562698245" lon="8.955005742609501">
        <ele>1354.6300000000001</ele>
        <time>2019-01-06T09:26:28Z</time>
      </trkpt>
      <trkpt lat="46.195049006491899" lon="8.954963497817516">
        <ele>1356.5599999999999</ele>
        <time>2019-01-06T09:26:39Z</time>
      </trkpt>
      <trkpt lat="46.195066692307591" lon="8.954906919971108">
        <ele>1356.5599999999999</ele>
        <time>2019-01-06T09:26:52Z</time>
      </trkpt>
      <trkpt lat="46.195060489699244" lon="8.954855874180794">
        <ele>1359.4400000000001</ele>
        <time>2019-01-06T09:27:04Z</time>
      </trkpt>
      <trkpt lat="46.195079935714602" lon="8.95480927079916">
        <ele>1360.4000000000001</ele>
        <time>2019-01-06T09:27:15Z</time>
      </trkpt>
      <trkpt lat="46.195104829967022" lon="8.954727882519364">
        <ele>1362.3299999999999</ele>
        <time>2019-01-06T09:27:26Z</time>
      </trkpt>
      <trkpt lat="46.195135004818439" lon="8.954671891406179">
        <ele>1363.77</ele>
        <time>2019-01-06T09:27:38Z</time>
      </trkpt>
      <trkpt lat="46.195181524381042" lon="8.954592766240239">
        <ele>1365.21</ele>
        <time>2019-01-06T09:27:49Z</time>
      </trkpt>
      <trkpt lat="46.195256374776363" lon="8.954508109018207">
        <ele>1368.5699999999999</ele>
        <time>2019-01-06T09:28:02Z</time>
      </trkpt>
      <trkpt lat="46.195263834670186" lon="8.954501403495669">
        <ele>1367.6099999999999</ele>
        <time>2019-01-06T09:28:03Z</time>
      </trkpt>
      <trkpt lat="46.195306079462171" lon="8.954440215602517">
        <ele>1370.5</ele>
        <time>2019-01-06T09:28:17Z</time>
      </trkpt>
      <trkpt lat="46.195341115817428" lon="8.954375591129065">
        <ele>1372.4200000000001</ele>
        <time>2019-01-06T09:28:29Z</time>
      </trkpt>
      <trkpt lat="46.19536860845983" lon="8.954336615279317">
        <ele>1373.3800000000001</ele>
        <time>2019-01-06T09:28:40Z</time>
      </trkpt>
      <trkpt lat="46.19537154212594" lon="8.954262183979154">
        <ele>1374.8199999999999</ele>
        <time>2019-01-06T09:28:51Z</time>
      </trkpt>
      <trkpt lat="46.195351844653487" lon="8.954325551167131">
        <ele>1376.75</ele>
        <time>2019-01-06T09:29:04Z</time>
      </trkpt>
      <trkpt lat="46.19534513913095" lon="8.954316917806864">
        <ele>1377.23</ele>
        <time>2019-01-06T09:29:18Z</time>
      </trkpt>
      <trkpt lat="46.195270624011755" lon="8.954327311366797">
        <ele>1378.6700000000001</ele>
        <time>2019-01-06T09:29:30Z</time>
      </trkpt>
      <trkpt lat="46.19524740613997" lon="8.954254053533077">
        <ele>1381.0699999999999</ele>
        <time>2019-01-06T09:29:42Z</time>
      </trkpt>
      <trkpt lat="46.195293590426445" lon="8.954214071854949">
        <ele>1383.47</ele>
        <time>2019-01-06T09:29:53Z</time>
      </trkpt>
      <trkpt lat="46.19529384188354" lon="8.954174090176821">
        <ele>1383.47</ele>
        <time>2019-01-06T09:30:02Z</time>
      </trkpt>
      <trkpt lat="46.195291746407747" lon="8.954110387712717">
        <ele>1386.3599999999999</ele>
        <time>2019-01-06T09:30:12Z</time>
      </trkpt>
      <trkpt lat="46.195286549627781" lon="8.954105777665973">
        <ele>1386.3599999999999</ele>
        <time>2019-01-06T09:30:13Z</time>
      </trkpt>
      <trkpt lat="46.195231983438134" lon="8.954111309722066">
        <ele>1388.28</ele>
        <time>2019-01-06T09:30:24Z</time>
      </trkpt>
      <trkpt lat="46.195168700069189" lon="8.954128995537758">
        <ele>1390.2</ele>
        <time>2019-01-06T09:30:34Z</time>
      </trkpt>
      <trkpt lat="46.195165179669857" lon="8.954057162627578">
        <ele>1392.1300000000001</ele>
        <time>2019-01-06T09:30:43Z</time>
      </trkpt>
      <trkpt lat="46.195115558803082" lon="8.954086247831583">
        <ele>1393.5699999999999</ele>
        <time>2019-01-06T09:30:56Z</time>
      </trkpt>
      <trkpt lat="46.195065015926957" lon="8.954068059101701">
        <ele>1394.53</ele>
        <time>2019-01-06T09:31:05Z</time>
      </trkpt>
      <trkpt lat="46.195057388395071" lon="8.953994633629918">
        <ele>1395.01</ele>
        <time>2019-01-06T09:31:17Z</time>
      </trkpt>
      <trkpt lat="46.195120168849826" lon="8.953862451016903">
        <ele>1396.45</ele>
        <time>2019-01-06T09:31:29Z</time>
      </trkpt>
      <trkpt lat="46.195157719776034" lon="8.95381735637784">
        <ele>1395.49</ele>
        <time>2019-01-06T09:31:40Z</time>
      </trkpt>
      <trkpt lat="46.195222344249487" lon="8.953778631985188">
        <ele>1396.45</ele>
        <time>2019-01-06T09:31:50Z</time>
      </trkpt>
      <trkpt lat="46.19528797455132" lon="8.953751726076007">
        <ele>1397.8900000000001</ele>
        <time>2019-01-06T09:32:01Z</time>
      </trkpt>
      <trkpt lat="46.195321921259165" lon="8.953726077452302">
        <ele>1399.3399999999999</ele>
        <time>2019-01-06T09:32:08Z</time>
      </trkpt>
      <trkpt lat="46.195367937907577" lon="8.953661369159818">
        <ele>1401.74</ele>
        <time>2019-01-06T09:32:19Z</time>
      </trkpt>
      <trkpt lat="46.195400124415755" lon="8.953573945909739">
        <ele>1402.7</ele>
        <time>2019-01-06T09:32:31Z</time>
      </trkpt>
      <trkpt lat="46.195404566824436" lon="8.953505214303732">
        <ele>1404.1400000000001</ele>
        <time>2019-01-06T09:32:42Z</time>
      </trkpt>
      <trkpt lat="46.195423677563667" lon="8.953433129936457">
        <ele>1405.5799999999999</ele>
        <time>2019-01-06T09:32:54Z</time>
      </trkpt>
      <trkpt lat="46.195424515753984" lon="8.953345622867346">
        <ele>1407.03</ele>
        <time>2019-01-06T09:33:08Z</time>
      </trkpt>
      <trkpt lat="46.195416888222098" lon="8.95328376442194">
        <ele>1408.47</ele>
        <time>2019-01-06T09:33:16Z</time>
      </trkpt>
      <trkpt lat="46.195412864908576" lon="8.953208662569523">
        <ele>1410.8699999999999</ele>
        <time>2019-01-06T09:33:28Z</time>
      </trkpt>
      <trkpt lat="46.19543993845582" lon="8.953123167157173">
        <ele>1413.76</ele>
        <time>2019-01-06T09:33:38Z</time>
      </trkpt>
      <trkpt lat="46.195450918748975" lon="8.953021494671702">
        <ele>1416.1600000000001</ele>
        <time>2019-01-06T09:33:50Z</time>
      </trkpt>
      <trkpt lat="46.195470867678523" lon="8.952963491901755">
        <ele>1418.0799999999999</ele>
        <time>2019-01-06T09:34:00Z</time>
      </trkpt>
      <trkpt lat="46.195470197126269" lon="8.952944297343493">
        <ele>1419.04</ele>
        <time>2019-01-06T09:34:11Z</time>
      </trkpt>
      <trkpt lat="46.195486122742295" lon="8.95288017578423">
        <ele>1420.49</ele>
        <time>2019-01-06T09:34:24Z</time>
      </trkpt>
      <trkpt lat="46.195502886548638" lon="8.952750759199262">
        <ele>1422.8900000000001</ele>
        <time>2019-01-06T09:34:37Z</time>
      </trkpt>
      <trkpt lat="46.195488469675183" lon="8.952678171917796">
        <ele>1424.8099999999999</ele>
        <time>2019-01-06T09:34:47Z</time>
      </trkpt>
      <trkpt lat="46.195487296208739" lon="8.952616984024644">
        <ele>1426.25</ele>
        <time>2019-01-06T09:34:58Z</time>
      </trkpt>
      <trkpt lat="46.195523589849472" lon="8.952552108094096">
        <ele>1428.6600000000001</ele>
        <time>2019-01-06T09:35:09Z</time>
      </trkpt>
      <trkpt lat="46.195521913468838" lon="8.952478431165218">
        <ele>1431.0599999999999</ele>
        <time>2019-01-06T09:35:20Z</time>
      </trkpt>
      <trkpt lat="46.195491068065166" lon="8.952396623790264">
        <ele>1433.9400000000001</ele>
        <time>2019-01-06T09:35:30Z</time>
      </trkpt>
      <trkpt lat="46.195527948439121" lon="8.952311966568232">
        <ele>1435.8699999999999</ele>
        <time>2019-01-06T09:35:43Z</time>
      </trkpt>
      <trkpt lat="46.195581676438451" lon="8.952257987111807">
        <ele>1437.3099999999999</ele>
        <time>2019-01-06T09:35:55Z</time>
      </trkpt>
      <trkpt lat="46.195601122453809" lon="8.952184142544866">
        <ele>1438.75</ele>
        <time>2019-01-06T09:36:06Z</time>
      </trkpt>
      <trkpt lat="46.195646300911903" lon="8.95213158801198">
        <ele>1439.71</ele>
        <time>2019-01-06T09:36:17Z</time>
      </trkpt>
      <trkpt lat="46.195705225691199" lon="8.952043326571584">
        <ele>1440.1900000000001</ele>
        <time>2019-01-06T09:36:31Z</time>
      </trkpt>
      <trkpt lat="46.195757361128926" lon="8.951985407620668">
        <ele>1440.1900000000001</ele>
        <time>2019-01-06T09:36:40Z</time>
      </trkpt>
      <trkpt lat="46.195806814357638" lon="8.951932936906815">
        <ele>1441.1500000000001</ele>
        <time>2019-01-06T09:36:53Z</time>
      </trkpt>
      <trkpt lat="46.195835061371326" lon="8.951902510598302">
        <ele>1442.5999999999999</ele>
        <time>2019-01-06T09:37:03Z</time>
      </trkpt>
      <trkpt lat="46.195854926481843" lon="8.95185406319797">
        <ele>1445</ele>
        <time>2019-01-06T09:37:11Z</time>
      </trkpt>
      <trkpt lat="46.195878898724914" lon="8.951782062649727">
        <ele>1446.4400000000001</ele>
        <time>2019-01-06T09:37:20Z</time>
      </trkpt>
      <trkpt lat="46.195896835997701" lon="8.951720455661416">
        <ele>1448.3599999999999</ele>
        <time>2019-01-06T09:37:31Z</time>
      </trkpt>
      <trkpt lat="46.195927681401372" lon="8.951631775125861">
        <ele>1450.77</ele>
        <time>2019-01-06T09:37:42Z</time>
      </trkpt>
      <trkpt lat="46.195975206792355" lon="8.951573437079787">
        <ele>1451.73</ele>
        <time>2019-01-06T09:37:55Z</time>
      </trkpt>
      <trkpt lat="46.195992222055793" lon="8.951518451794982">
        <ele>1453.6500000000001</ele>
        <time>2019-01-06T09:38:07Z</time>
      </trkpt>
      <trkpt lat="46.19603069499135" lon="8.951482158154249">
        <ele>1456.05</ele>
        <time>2019-01-06T09:38:17Z</time>
      </trkpt>
      <trkpt lat="46.196035221219063" lon="8.951422479003668">
        <ele>1458.9400000000001</ele>
        <time>2019-01-06T09:38:28Z</time>
      </trkpt>
      <trkpt lat="46.19607076048851" lon="8.95140253007412">
        <ele>1459.9000000000001</ele>
        <time>2019-01-06T09:38:34Z</time>
      </trkpt>
      <trkpt lat="46.196117615327239" lon="8.951354585587978">
        <ele>1461.8199999999999</ele>
        <time>2019-01-06T09:38:43Z</time>
      </trkpt>
      <trkpt lat="46.196129852905869" lon="8.951344694942236">
        <ele>1462.78</ele>
        <time>2019-01-06T09:38:45Z</time>
      </trkpt>
      <trkpt lat="46.196106970310211" lon="8.951293984428048">
        <ele>1463.74</ele>
        <time>2019-01-06T09:38:56Z</time>
      </trkpt>
      <trkpt lat="46.196101270616055" lon="8.951265905052424">
        <ele>1464.23</ele>
        <time>2019-01-06T09:39:03Z</time>
      </trkpt>
      <trkpt lat="46.196130942553282" lon="8.951205220073462">
        <ele>1465.6700000000001</ele>
        <time>2019-01-06T09:39:12Z</time>
      </trkpt>
      <trkpt lat="46.196168996393681" lon="8.951140092685819">
        <ele>1467.1099999999999</ele>
        <time>2019-01-06T09:39:25Z</time>
      </trkpt>
      <trkpt lat="46.196174276992679" lon="8.951072115451098">
        <ele>1469.03</ele>
        <time>2019-01-06T09:39:36Z</time>
      </trkpt>
      <trkpt lat="46.196179138496518" lon="8.950986033305526">
        <ele>1469.99</ele>
        <time>2019-01-06T09:39:46Z</time>
      </trkpt>
      <trkpt lat="46.196171762421727" lon="8.950935490429401">
        <ele>1470.47</ele>
        <time>2019-01-06T09:39:54Z</time>
      </trkpt>
      <trkpt lat="46.196160782128572" lon="8.950932389125228">
        <ele>1471.4400000000001</ele>
        <time>2019-01-06T09:39:58Z</time>
      </trkpt>
      <trkpt lat="46.196135804057121" lon="8.950937418267131">
        <ele>1470.47</ele>
        <time>2019-01-06T09:40:01Z</time>
      </trkpt>
      <trkpt lat="46.196113005280495" lon="8.950918056070805">
        <ele>1470.95</ele>
        <time>2019-01-06T09:40:12Z</time>
      </trkpt>
      <trkpt lat="46.19611082598567" lon="8.950864998623729">
        <ele>1470.47</ele>
        <time>2019-01-06T09:40:23Z</time>
      </trkpt>
      <trkpt lat="46.196098504588008" lon="8.950789477676153">
        <ele>1471.4400000000001</ele>
        <time>2019-01-06T09:40:30Z</time>
      </trkpt>
      <trkpt lat="46.196094145998359" lon="8.950709262862802">
        <ele>1471.9200000000001</ele>
        <time>2019-01-06T09:40:43Z</time>
      </trkpt>
      <trkpt lat="46.196159357205033" lon="8.950668023899198">
        <ele>1471.9200000000001</ele>
        <time>2019-01-06T09:40:59Z</time>
      </trkpt>
      <trkpt lat="46.196175869554281" lon="8.950674813240767">
        <ele>1472.4000000000001</ele>
        <time>2019-01-06T09:41:03Z</time>
      </trkpt>
      <trkpt lat="46.196228507906199" lon="8.950743209570646">
        <ele>1473.3599999999999</ele>
        <time>2019-01-06T09:41:12Z</time>
      </trkpt>
      <trkpt lat="46.196288941428065" lon="8.950716052204371">
        <ele>1474.3199999999999</ele>
        <time>2019-01-06T09:41:22Z</time>
      </trkpt>
      <trkpt lat="46.196317691355944" lon="8.950681099668145">
        <ele>1474.3199999999999</ele>
        <time>2019-01-06T13:33:58Z</time>
      </trkpt>
      <trkpt lat="46.196309980005026" lon="8.950686464086175">
        <ele>1474.3199999999999</ele>
        <time>2019-01-06T13:34:16Z</time>
      </trkpt>
      <trkpt lat="46.196306375786662" lon="8.950735162943602">
        <ele>1474.3199999999999</ele>
        <time>2019-01-06T13:34:27Z</time>
      </trkpt>
      <trkpt lat="46.196279721334577" lon="8.950800877064467">
        <ele>1474.3199999999999</ele>
        <time>2019-01-06T13:34:39Z</time>
      </trkpt>
      <trkpt lat="46.196268992498517" lon="8.95091537386179">
        <ele>1471.4400000000001</ele>
        <time>2019-01-06T13:34:52Z</time>
      </trkpt>
      <trkpt lat="46.196233537048101" lon="8.950974969193339">
        <ele>1471.9200000000001</ele>
        <time>2019-01-06T13:35:00Z</time>
      </trkpt>
      <trkpt lat="46.196232112124562" lon="8.951003048568964">
        <ele>1469.99</ele>
        <time>2019-01-06T13:35:03Z</time>
      </trkpt>
      <trkpt lat="46.196240577846766" lon="8.951046550646424">
        <ele>1472.4000000000001</ele>
        <time>2019-01-06T13:35:11Z</time>
      </trkpt>
      <trkpt lat="46.196243427693844" lon="8.951063062995672">
        <ele>1468.55</ele>
        <time>2019-01-06T13:35:13Z</time>
      </trkpt>
      <trkpt lat="46.196245523169637" lon="8.951129196211696">
        <ele>1468.0699999999999</ele>
        <time>2019-01-06T13:35:23Z</time>
      </trkpt>
      <trkpt lat="46.196244936436415" lon="8.951135315001011">
        <ele>1466.1500000000001</ele>
        <time>2019-01-06T13:35:26Z</time>
      </trkpt>
      <trkpt lat="46.196245439350605" lon="8.951148306950927">
        <ele>1470.47</ele>
        <time>2019-01-06T13:35:29Z</time>
      </trkpt>
      <trkpt lat="46.196242673322558" lon="8.951145121827722">
        <ele>1469.03</ele>
        <time>2019-01-06T13:35:30Z</time>
      </trkpt>
      <trkpt lat="46.196232531219721" lon="8.9511445350945">
        <ele>1465.6700000000001</ele>
        <time>2019-01-06T13:35:34Z</time>
      </trkpt>
      <trkpt lat="46.196231273934245" lon="8.951147133484483">
        <ele>1465.6700000000001</ele>
        <time>2019-01-06T13:35:35Z</time>
      </trkpt>
      <trkpt lat="46.196228759363294" lon="8.951138835400343">
        <ele>1465.6700000000001</ele>
        <time>2019-01-06T13:35:41Z</time>
      </trkpt>
      <trkpt lat="46.196238063275814" lon="8.951158197596669">
        <ele>1466.1500000000001</ele>
        <time>2019-01-06T13:35:47Z</time>
      </trkpt>
      <trkpt lat="46.196228340268135" lon="8.951165238395333">
        <ele>1464.71</ele>
        <time>2019-01-06T13:35:54Z</time>
      </trkpt>
      <trkpt lat="46.19621735997498" lon="8.951194491237402">
        <ele>1463.26</ele>
        <time>2019-01-06T13:36:01Z</time>
      </trkpt>
      <trkpt lat="46.196176707744598" lon="8.951257355511189">
        <ele>1461.8199999999999</ele>
        <time>2019-01-06T13:36:12Z</time>
      </trkpt>
      <trkpt lat="46.196169918403029" lon="8.951286859810352">
        <ele>1462.3</ele>
        <time>2019-01-06T13:36:22Z</time>
      </trkpt>
      <trkpt lat="46.196184335276484" lon="8.951361710205674">
        <ele>1459.9000000000001</ele>
        <time>2019-01-06T13:36:33Z</time>
      </trkpt>
      <trkpt lat="46.196152316406369" lon="8.951418036594987">
        <ele>1457.5</ele>
        <time>2019-01-06T13:36:39Z</time>
      </trkpt>
      <trkpt lat="46.196100432425737" lon="8.951449887827039">
        <ele>1457.98</ele>
        <time>2019-01-06T13:36:48Z</time>
      </trkpt>
      <trkpt lat="46.196071514859796" lon="8.951459610834718">
        <ele>1456.53</ele>
        <time>2019-01-06T13:37:00Z</time>
      </trkpt>
      <trkpt lat="46.196067994460464" lon="8.951472016051412">
        <ele>1455.5699999999999</ele>
        <time>2019-01-06T13:37:12Z</time>
      </trkpt>
      <trkpt lat="46.196083668619394" lon="8.951495485380292">
        <ele>1455.5699999999999</ele>
        <time>2019-01-06T13:37:25Z</time>
      </trkpt>
      <trkpt lat="46.196061708033085" lon="8.951518619433045">
        <ele>1455.0899999999999</ele>
        <time>2019-01-06T13:37:36Z</time>
      </trkpt>
      <trkpt lat="46.196055505424738" lon="8.951520379632711">
        <ele>1455.5699999999999</ele>
        <time>2019-01-06T13:37:50Z</time>
      </trkpt>
      <trkpt lat="46.196022983640432" lon="8.951535718515515">
        <ele>1455.0899999999999</ele>
        <time>2019-01-06T13:37:59Z</time>
      </trkpt>
      <trkpt lat="46.196011835709214" lon="8.95156673155725">
        <ele>1452.21</ele>
        <time>2019-01-06T13:38:08Z</time>
      </trkpt>
      <trkpt lat="46.19600772857666" lon="8.951579136773944">
        <ele>1452.21</ele>
        <time>2019-01-06T13:38:22Z</time>
      </trkpt>
      <trkpt lat="46.195996077731252" lon="8.951595732942224">
        <ele>1450.77</ele>
        <time>2019-01-06T13:38:36Z</time>
      </trkpt>
      <trkpt lat="46.195970429107547" lon="8.95163613371551">
        <ele>1449.8099999999999</ele>
        <time>2019-01-06T13:38:45Z</time>
      </trkpt>
      <trkpt lat="46.195942349731922" lon="8.951726909726858">
        <ele>1447.4000000000001</ele>
        <time>2019-01-06T13:38:56Z</time>
      </trkpt>
      <trkpt lat="46.195898428559303" lon="8.951781308278441">
        <ele>1446.4400000000001</ele>
        <time>2019-01-06T13:39:07Z</time>
      </trkpt>
      <trkpt lat="46.195869678631425" lon="8.951860098168254">
        <ele>1444.52</ele>
        <time>2019-01-06T13:39:21Z</time>
      </trkpt>
      <trkpt lat="46.195851992815733" lon="8.951922794803977">
        <ele>1442.5999999999999</ele>
        <time>2019-01-06T13:39:31Z</time>
      </trkpt>
      <trkpt lat="46.195815363898873" lon="8.95198155194521">
        <ele>1440.6700000000001</ele>
        <time>2019-01-06T13:39:42Z</time>
      </trkpt>
      <trkpt lat="46.195766581222415" lon="8.952057994902134">
        <ele>1437.79</ele>
        <time>2019-01-06T13:39:51Z</time>
      </trkpt>
      <trkpt lat="46.195733640342951" lon="8.952127313241363">
        <ele>1436.3499999999999</ele>
        <time>2019-01-06T13:40:00Z</time>
      </trkpt>
      <trkpt lat="46.19567153044045" lon="8.952195458114147">
        <ele>1433.9400000000001</ele>
        <time>2019-01-06T13:40:14Z</time>
      </trkpt>
      <trkpt lat="46.195640685036778" lon="8.952320935204625">
        <ele>1430.0999999999999</ele>
        <time>2019-01-06T13:40:26Z</time>
      </trkpt>
      <trkpt lat="46.1956153716892" lon="8.952438365668058">
        <ele>1428.1800000000001</ele>
        <time>2019-01-06T13:40:37Z</time>
      </trkpt>
      <trkpt lat="46.195595674216747" lon="8.952435851097107">
        <ele>1428.1800000000001</ele>
        <time>2019-01-06T13:40:48Z</time>
      </trkpt>
      <trkpt lat="46.1956153716892" lon="8.952456219121814">
        <ele>1429.1400000000001</ele>
        <time>2019-01-06T13:41:09Z</time>
      </trkpt>
      <trkpt lat="46.195601290091872" lon="8.952460074797273">
        <ele>1428.1800000000001</ele>
        <time>2019-01-06T13:41:23Z</time>
      </trkpt>
      <trkpt lat="46.195594668388367" lon="8.95262511447072">
        <ele>1427.21</ele>
        <time>2019-01-06T13:41:36Z</time>
      </trkpt>
      <trkpt lat="46.195596177130938" lon="8.952630646526814">
        <ele>1426.25</ele>
        <time>2019-01-06T13:41:38Z</time>
      </trkpt>
      <trkpt lat="46.195573043078184" lon="8.952692253515124">
        <ele>1424.3299999999999</ele>
        <time>2019-01-06T13:41:49Z</time>
      </trkpt>
      <trkpt lat="46.195547142997384" lon="8.952740449458361">
        <ele>1424.8099999999999</ele>
        <time>2019-01-06T13:41:57Z</time>
      </trkpt>
      <trkpt lat="46.195569606497884" lon="8.952859807759523">
        <ele>1422.4100000000001</ele>
        <time>2019-01-06T13:42:06Z</time>
      </trkpt>
      <trkpt lat="46.195545550435781" lon="8.952933317050338">
        <ele>1420</ele>
        <time>2019-01-06T13:42:15Z</time>
      </trkpt>
      <trkpt lat="46.195539934560657" lon="8.95301797427237">
        <ele>1419.52</ele>
        <time>2019-01-06T13:42:24Z</time>
      </trkpt>
      <trkpt lat="46.195525350049138" lon="8.953079162165523">
        <ele>1416.1600000000001</ele>
        <time>2019-01-06T13:42:30Z</time>
      </trkpt>
      <trkpt lat="46.195518393069506" lon="8.953104140236974">
        <ele>1415.2</ele>
        <time>2019-01-06T13:42:32Z</time>
      </trkpt>
      <trkpt lat="46.195519901812077" lon="8.953189887106419">
        <ele>1414.24</ele>
        <time>2019-01-06T13:42:44Z</time>
      </trkpt>
      <trkpt lat="46.195504730567336" lon="8.953265827149153">
        <ele>1413.28</ele>
        <time>2019-01-06T13:42:55Z</time>
      </trkpt>
      <trkpt lat="46.195508250966668" lon="8.953334810212255">
        <ele>1409.9100000000001</ele>
        <time>2019-01-06T13:43:03Z</time>
      </trkpt>
      <trkpt lat="46.195508586242795" lon="8.953361297026277">
        <ele>1409.4300000000001</ele>
        <time>2019-01-06T13:43:05Z</time>
      </trkpt>
      <trkpt lat="46.195515291765332" lon="8.953449558466673">
        <ele>1407.51</ele>
        <time>2019-01-06T13:43:15Z</time>
      </trkpt>
      <trkpt lat="46.195512944832444" lon="8.953486941754818">
        <ele>1409.4300000000001</ele>
        <time>2019-01-06T13:43:18Z</time>
      </trkpt>
      <trkpt lat="46.195473549887538" lon="8.95355885848403">
        <ele>1406.0699999999999</ele>
        <time>2019-01-06T13:43:27Z</time>
      </trkpt>
      <trkpt lat="46.19546189904213" lon="8.953627841547132">
        <ele>1402.7</ele>
        <time>2019-01-06T13:43:34Z</time>
      </trkpt>
      <trkpt lat="46.195460557937622" lon="8.953637396916747">
        <ele>1402.7</ele>
        <time>2019-01-06T13:43:35Z</time>
      </trkpt>
      <trkpt lat="46.195457372814417" lon="8.953665727749467">
        <ele>1401.26</ele>
        <time>2019-01-06T13:43:37Z</time>
      </trkpt>
      <trkpt lat="46.195372212678194" lon="8.953758012503386">
        <ele>1399.8199999999999</ele>
        <time>2019-01-06T13:43:47Z</time>
      </trkpt>
      <trkpt lat="46.195357795804739" lon="8.953799502924085">
        <ele>1396.9300000000001</ele>
        <time>2019-01-06T13:43:51Z</time>
      </trkpt>
      <trkpt lat="46.195283364504576" lon="8.95386521704495">
        <ele>1396.9300000000001</ele>
        <time>2019-01-06T13:44:00Z</time>
      </trkpt>
      <trkpt lat="46.195170795544982" lon="8.953919364139438">
        <ele>1395.01</ele>
        <time>2019-01-06T13:44:12Z</time>
      </trkpt>
      <trkpt lat="46.195139111950994" lon="8.953988011926413">
        <ele>1391.1700000000001</ele>
        <time>2019-01-06T13:44:20Z</time>
      </trkpt>
      <trkpt lat="46.195139363408089" lon="8.954001171514392">
        <ele>1391.1700000000001</ele>
        <time>2019-01-06T13:44:21Z</time>
      </trkpt>
      <trkpt lat="46.195146823301911" lon="8.954020030796528">
        <ele>1389.72</ele>
        <time>2019-01-06T13:44:23Z</time>
      </trkpt>
      <trkpt lat="46.195204742252827" lon="8.954035621136427">
        <ele>1387.8</ele>
        <time>2019-01-06T13:44:33Z</time>
      </trkpt>
      <trkpt lat="46.195221003144979" lon="8.954041404649615">
        <ele>1386.8399999999999</ele>
        <time>2019-01-06T13:44:35Z</time>
      </trkpt>
      <trkpt lat="46.195224020630121" lon="8.954058922827244">
        <ele>1385.8800000000001</ele>
        <time>2019-01-06T13:44:37Z</time>
      </trkpt>
      <trkpt lat="46.195230558514595" lon="8.954094043001533">
        <ele>1383.96</ele>
        <time>2019-01-06T13:44:40Z</time>
      </trkpt>
      <trkpt lat="46.195278251543641" lon="8.954071328043938">
        <ele>1382.99</ele>
        <time>2019-01-06T13:44:48Z</time>
      </trkpt>
      <trkpt lat="46.195303061977029" lon="8.954087002202869">
        <ele>1379.1500000000001</ele>
        <time>2019-01-06T13:44:51Z</time>
      </trkpt>
      <trkpt lat="46.195318233221769" lon="8.954185824841261">
        <ele>1381.0699999999999</ele>
        <time>2019-01-06T13:44:58Z</time>
      </trkpt>
      <trkpt lat="46.195297613739967" lon="8.954213568940759">
        <ele>1379.1500000000001</ele>
        <time>2019-01-06T13:45:01Z</time>
      </trkpt>
      <trkpt lat="46.19528504088521" lon="8.95427031442523">
        <ele>1376.75</ele>
        <time>2019-01-06T13:45:11Z</time>
      </trkpt>
      <trkpt lat="46.195312114432454" lon="8.954300154000521">
        <ele>1372.9000000000001</ele>
        <time>2019-01-06T13:45:14Z</time>
      </trkpt>
      <trkpt lat="46.195365926250815" lon="8.95430208183825">
        <ele>1370.98</ele>
        <time>2019-01-06T13:45:24Z</time>
      </trkpt>
      <trkpt lat="46.195416133850813" lon="8.95433041267097">
        <ele>1367.6099999999999</ele>
        <time>2019-01-06T13:45:33Z</time>
      </trkpt>
      <trkpt lat="46.195416804403067" lon="8.954351367428899">
        <ele>1366.1700000000001</ele>
        <time>2019-01-06T13:45:35Z</time>
      </trkpt>
      <trkpt lat="46.195386964827776" lon="8.954444658011198">
        <ele>1368.0899999999999</ele>
        <time>2019-01-06T13:45:43Z</time>
      </trkpt>
      <trkpt lat="46.195359053090215" lon="8.954481119289994">
        <ele>1365.21</ele>
        <time>2019-01-06T13:45:47Z</time>
      </trkpt>
      <trkpt lat="46.195358466356993" lon="8.954513473436236">
        <ele>1362.3299999999999</ele>
        <time>2019-01-06T13:45:49Z</time>
      </trkpt>
      <trkpt lat="46.195346647873521" lon="8.954539205878973">
        <ele>1361.8399999999999</ele>
        <time>2019-01-06T13:45:51Z</time>
      </trkpt>
      <trkpt lat="46.195321921259165" lon="8.95456594415009">
        <ele>1363.77</ele>
        <time>2019-01-06T13:45:54Z</time>
      </trkpt>
      <trkpt lat="46.195308594033122" lon="8.954587318003178">
        <ele>1362.8099999999999</ele>
        <time>2019-01-06T13:45:56Z</time>
      </trkpt>
      <trkpt lat="46.195241287350655" lon="8.954640878364444">
        <ele>1362.3299999999999</ele>
        <time>2019-01-06T13:46:04Z</time>
      </trkpt>
      <trkpt lat="46.195204155519605" lon="8.954699719324708">
        <ele>1360.8800000000001</ele>
        <time>2019-01-06T13:46:13Z</time>
      </trkpt>
      <trkpt lat="46.195173477753997" lon="8.954810947179794">
        <ele>1357.52</ele>
        <time>2019-01-06T13:46:23Z</time>
      </trkpt>
      <trkpt lat="46.195170795544982" lon="8.954816646873951">
        <ele>1357.52</ele>
        <time>2019-01-06T13:46:24Z</time>
      </trkpt>
      <trkpt lat="46.195146404206753" lon="8.954898370429874">
        <ele>1354.6300000000001</ele>
        <time>2019-01-06T13:46:32Z</time>
      </trkpt>
      <trkpt lat="46.195136094465852" lon="8.954946314916015">
        <ele>1351.27</ele>
        <time>2019-01-06T13:46:35Z</time>
      </trkpt>
      <trkpt lat="46.195127544924617" lon="8.954956457018852">
        <ele>1354.6300000000001</ele>
        <time>2019-01-06T13:46:36Z</time>
      </trkpt>
      <trkpt lat="46.195125197991729" lon="8.954966180026531">
        <ele>1351.27</ele>
        <time>2019-01-06T13:46:38Z</time>
      </trkpt>
      <trkpt lat="46.19510474614799" lon="8.955040276050568">
        <ele>1349.8299999999999</ele>
        <time>2019-01-06T13:46:45Z</time>
      </trkpt>
      <trkpt lat="46.195065015926957" lon="8.955073384568095">
        <ele>1348.3900000000001</ele>
        <time>2019-01-06T13:46:52Z</time>
      </trkpt>
      <trkpt lat="46.194983208552003" lon="8.95515963435173">
        <ele>1352.23</ele>
        <time>2019-01-06T13:47:04Z</time>
      </trkpt>
      <trkpt lat="46.194975916296244" lon="8.955162484198809">
        <ele>1352.23</ele>
        <time>2019-01-06T13:47:05Z</time>
      </trkpt>
      <trkpt lat="46.194898886606097" lon="8.955253260210156">
        <ele>1352.23</ele>
        <time>2019-01-06T13:47:15Z</time>
      </trkpt>
      <trkpt lat="46.194865275174379" lon="8.955279663205147">
        <ele>1349.8299999999999</ele>
        <time>2019-01-06T13:47:22Z</time>
      </trkpt>
      <trkpt lat="46.194854127243161" lon="8.955305395647883">
        <ele>1348.3900000000001</ele>
        <time>2019-01-06T13:47:24Z</time>
      </trkpt>
      <trkpt lat="46.194811798632145" lon="8.955327607691288">
        <ele>1346.46</ele>
        <time>2019-01-06T13:47:30Z</time>
      </trkpt>
      <trkpt lat="46.194683639332652" lon="8.955309335142374">
        <ele>1343.0999999999999</ele>
        <time>2019-01-06T13:47:42Z</time>
      </trkpt>
      <trkpt lat="46.19461951777339" lon="8.955295085906982">
        <ele>1340.22</ele>
        <time>2019-01-06T13:47:51Z</time>
      </trkpt>
      <trkpt lat="46.194603592157364" lon="8.955292906612158">
        <ele>1339.73</ele>
        <time>2019-01-06T13:47:52Z</time>
      </trkpt>
      <trkpt lat="46.194552630186081" lon="8.955263569951057">
        <ele>1340.22</ele>
        <time>2019-01-06T13:48:03Z</time>
      </trkpt>
      <trkpt lat="46.194497225806117" lon="8.955243201926351">
        <ele>1339.25</ele>
        <time>2019-01-06T13:48:17Z</time>
      </trkpt>
      <trkpt lat="46.194469230249524" lon="8.955257367342711">
        <ele>1339.73</ele>
        <time>2019-01-06T13:48:19Z</time>
      </trkpt>
      <trkpt lat="46.194433439522982" lon="8.955275053158402">
        <ele>1339.73</ele>
        <time>2019-01-06T13:48:22Z</time>
      </trkpt>
      <trkpt lat="46.194398738443851" lon="8.955282093957067">
        <ele>1339.73</ele>
        <time>2019-01-06T13:48:31Z</time>
      </trkpt>
      <trkpt lat="46.194394212216139" lon="8.955312101170421">
        <ele>1339.25</ele>
        <time>2019-01-06T13:48:51Z</time>
      </trkpt>
      <trkpt lat="46.194412652403116" lon="8.955293325707316">
        <ele>1339.73</ele>
        <time>2019-01-06T13:49:06Z</time>
      </trkpt>
      <trkpt lat="46.194425141438842" lon="8.95530472509563">
        <ele>1338.77</ele>
        <time>2019-01-06T13:49:23Z</time>
      </trkpt>
      <trkpt lat="46.194443246349692" lon="8.955287039279938">
        <ele>1338.77</ele>
        <time>2019-01-06T13:49:45Z</time>
      </trkpt>
      <trkpt lat="46.194441318511963" lon="8.955313777551055">
        <ele>1339.73</ele>
        <time>2019-01-06T13:50:05Z</time>
      </trkpt>
      <trkpt lat="46.194450706243515" lon="8.955300031229854">
        <ele>1338.29</ele>
        <time>2019-01-06T13:50:18Z</time>
      </trkpt>
      <trkpt lat="46.194464368745685" lon="8.955305647104979">
        <ele>1339.73</ele>
        <time>2019-01-06T13:50:20Z</time>
      </trkpt>
      <trkpt lat="46.194555396214128" lon="8.955301959067583">
        <ele>1340.22</ele>
        <time>2019-01-06T13:50:31Z</time>
      </trkpt>
      <trkpt lat="46.194584313780069" lon="8.955368008464575">
        <ele>1337.8099999999999</ele>
        <time>2019-01-06T13:50:37Z</time>
      </trkpt>
      <trkpt lat="46.19463904760778" lon="8.955417880788446">
        <ele>1336.3699999999999</ele>
        <time>2019-01-06T13:50:45Z</time>
      </trkpt>
      <trkpt lat="46.194684226065874" lon="8.955533551052213">
        <ele>1334.45</ele>
        <time>2019-01-06T13:50:55Z</time>
      </trkpt>
      <trkpt lat="46.194690596312284" lon="8.955607227981091">
        <ele>1332.52</ele>
        <time>2019-01-06T13:51:05Z</time>
      </trkpt>
      <trkpt lat="46.194674670696259" lon="8.955622902140021">
        <ele>1330.5999999999999</ele>
        <time>2019-01-06T13:51:10Z</time>
      </trkpt>
      <trkpt lat="46.194671485573053" lon="8.955670678988099">
        <ele>1327.24</ele>
        <time>2019-01-06T13:51:16Z</time>
      </trkpt>
      <trkpt lat="46.194657487794757" lon="8.955691466107965">
        <ele>1328.6800000000001</ele>
        <time>2019-01-06T13:51:20Z</time>
      </trkpt>
      <trkpt lat="46.194604346528649" lon="8.955697836354375">
        <ele>1325.8</ele>
        <time>2019-01-06T13:51:28Z</time>
      </trkpt>
      <trkpt lat="46.194596635177732" lon="8.955729268491268">
        <ele>1323.8699999999999</ele>
        <time>2019-01-06T13:51:31Z</time>
      </trkpt>
      <trkpt lat="46.194584481418133" lon="8.955784672871232">
        <ele>1321.95</ele>
        <time>2019-01-06T13:51:37Z</time>
      </trkpt>
      <trkpt lat="46.194516336545348" lon="8.955846782773733">
        <ele>1321.95</ele>
        <time>2019-01-06T13:51:47Z</time>
      </trkpt>
      <trkpt lat="46.194509882479906" lon="8.955856170505285">
        <ele>1321.47</ele>
        <time>2019-01-06T13:51:48Z</time>
      </trkpt>
      <trkpt lat="46.194417178630829" lon="8.955934708938003">
        <ele>1318.0999999999999</ele>
        <time>2019-01-06T13:51:59Z</time>
      </trkpt>
      <trkpt lat="46.194394128397107" lon="8.955929847434163">
        <ele>1317.6199999999999</ele>
        <time>2019-01-06T13:52:01Z</time>
      </trkpt>
      <trkpt lat="46.194270327687263" lon="8.955989023670554">
        <ele>1314.74</ele>
        <time>2019-01-06T13:52:10Z</time>
      </trkpt>
      <trkpt lat="46.194254150614142" lon="8.955999920144677">
        <ele>1314.26</ele>
        <time>2019-01-06T13:52:11Z</time>
      </trkpt>
      <trkpt lat="46.194118112325668" lon="8.95597661845386">
        <ele>1312.3399999999999</ele>
        <time>2019-01-06T13:52:23Z</time>
      </trkpt>
      <trkpt lat="46.194075113162398" lon="8.955950299277902">
        <ele>1310.4100000000001</ele>
        <time>2019-01-06T13:52:32Z</time>
      </trkpt>
      <trkpt lat="46.19404292665422" lon="8.955956334248185">
        <ele>1309.9300000000001</ele>
        <time>2019-01-06T13:52:36Z</time>
      </trkpt>
      <trkpt lat="46.193956257775426" lon="8.95591258071363">
        <ele>1307.05</ele>
        <time>2019-01-06T13:52:45Z</time>
      </trkpt>
      <trkpt lat="46.193907726556063" lon="8.955977624282241">
        <ele>1303.2</ele>
        <time>2019-01-06T13:52:54Z</time>
      </trkpt>
      <trkpt lat="46.193823739886284" lon="8.956059431657195">
        <ele>1300.3199999999999</ele>
        <time>2019-01-06T13:53:05Z</time>
      </trkpt>
      <trkpt lat="46.193846287205815" lon="8.956027077510953">
        <ele>1301.28</ele>
        <time>2019-01-06T13:53:14Z</time>
      </trkpt>
      <trkpt lat="46.193832037970424" lon="8.956024060025811">
        <ele>1300.8</ele>
        <time>2019-01-06T13:53:30Z</time>
      </trkpt>
      <trkpt lat="46.193833546712995" lon="8.956028753891587">
        <ele>1300.3199999999999</ele>
        <time>2019-01-06T13:53:41Z</time>
      </trkpt>
      <trkpt lat="46.193792056292295" lon="8.956010481342673">
        <ele>1300.8</ele>
        <time>2019-01-06T13:53:54Z</time>
      </trkpt>
      <trkpt lat="46.193804126232862" lon="8.955944683402777">
        <ele>1300.3199999999999</ele>
        <time>2019-01-06T13:54:05Z</time>
      </trkpt>
      <trkpt lat="46.193815274164081" lon="8.956045182421804">
        <ele>1302.72</ele>
        <time>2019-01-06T13:54:16Z</time>
      </trkpt>
      <trkpt lat="46.193849053233862" lon="8.956034621223807">
        <ele>1302.72</ele>
        <time>2019-01-06T13:54:32Z</time>
      </trkpt>
      <trkpt lat="46.193839497864246" lon="8.956063874065876">
        <ele>1299.3599999999999</ele>
        <time>2019-01-06T13:54:45Z</time>
      </trkpt>
      <trkpt lat="46.193817369639874" lon="8.956048032268882">
        <ele>1300.3199999999999</ele>
        <time>2019-01-06T13:55:04Z</time>
      </trkpt>
      <trkpt lat="46.19385190308094" lon="8.956038728356361">
        <ele>1299.8399999999999</ele>
        <time>2019-01-06T13:55:19Z</time>
      </trkpt>
      <trkpt lat="46.193846287205815" lon="8.956031855195761">
        <ele>1300.8</ele>
        <time>2019-01-06T13:55:35Z</time>
      </trkpt>
      <trkpt lat="46.19383187033236" lon="8.956022132188082">
        <ele>1298.4000000000001</ele>
        <time>2019-01-06T13:55:50Z</time>
      </trkpt>
      <trkpt lat="46.19385726749897" lon="8.956012660637498">
        <ele>1300.3199999999999</ele>
        <time>2019-01-06T13:56:06Z</time>
      </trkpt>
      <trkpt lat="46.193861039355397" lon="8.95601375028491">
        <ele>1300.8</ele>
        <time>2019-01-06T13:56:23Z</time>
      </trkpt>
      <trkpt lat="46.193835809826851" lon="8.956030094996095">
        <ele>1301.28</ele>
        <time>2019-01-06T13:56:41Z</time>
      </trkpt>
      <trkpt lat="46.193824578076601" lon="8.956006960943341">
        <ele>1301.28</ele>
        <time>2019-01-06T13:56:57Z</time>
      </trkpt>
      <trkpt lat="46.19385433383286" lon="8.956051636487246">
        <ele>1300.8</ele>
        <time>2019-01-06T13:57:10Z</time>
      </trkpt>
      <trkpt lat="46.193838492035866" lon="8.956101257354021">
        <ele>1300.8</ele>
        <time>2019-01-06T13:57:22Z</time>
      </trkpt>
      <trkpt lat="46.193829774856567" lon="8.956074016168714">
        <ele>1300.3199999999999</ele>
        <time>2019-01-06T13:57:35Z</time>
      </trkpt>
      <trkpt lat="46.193842515349388" lon="8.956061862409115">
        <ele>1300.8</ele>
        <time>2019-01-06T13:57:47Z</time>
      </trkpt>
      <trkpt lat="46.193861877545714" lon="8.956046858802438">
        <ele>1299.8399999999999</ele>
        <time>2019-01-06T13:58:02Z</time>
      </trkpt>
      <trkpt lat="46.193859027698636" lon="8.956055995076895">
        <ele>1299.8399999999999</ele>
        <time>2019-01-06T13:58:06Z</time>
      </trkpt>
      <trkpt lat="46.19379616342485" lon="8.956052055582404">
        <ele>1300.8</ele>
        <time>2019-01-06T13:58:15Z</time>
      </trkpt>
      <trkpt lat="46.193809323012829" lon="8.956011822447181">
        <ele>1301.28</ele>
        <time>2019-01-06T13:58:32Z</time>
      </trkpt>
      <trkpt lat="46.193834552541375" lon="8.955979468300939">
        <ele>1301.76</ele>
        <time>2019-01-06T13:58:51Z</time>
      </trkpt>
      <trkpt lat="46.193825835362077" lon="8.955986425280571">
        <ele>1301.28</ele>
        <time>2019-01-06T13:59:01Z</time>
      </trkpt>
      <trkpt lat="46.193792643025517" lon="8.95601618103683">
        <ele>1301.76</ele>
        <time>2019-01-06T13:59:20Z</time>
      </trkpt>
      <trkpt lat="46.193779651075602" lon="8.956091785803437">
        <ele>1300.3199999999999</ele>
        <time>2019-01-06T13:59:27Z</time>
      </trkpt>
      <trkpt lat="46.193762384355068" lon="8.956203684210777">
        <ele>1296.96</ele>
        <time>2019-01-06T13:59:35Z</time>
      </trkpt>
      <trkpt lat="46.193764312192798" lon="8.956234697252512">
        <ele>1295.51</ele>
        <time>2019-01-06T13:59:37Z</time>
      </trkpt>
      <trkpt lat="46.193763474002481" lon="8.956264453008771">
        <ele>1294.55</ele>
        <time>2019-01-06T13:59:40Z</time>
      </trkpt>
      <trkpt lat="46.193737825378776" lon="8.956332933157682">
        <ele>1293.5899999999999</ele>
        <time>2019-01-06T13:59:46Z</time>
      </trkpt>
      <trkpt lat="46.193692144006491" lon="8.956349194049835">
        <ele>1294.0699999999999</ele>
        <time>2019-01-06T13:59:50Z</time>
      </trkpt>
      <trkpt lat="46.193648390471935" lon="8.956394959241152">
        <ele>1290.71</ele>
        <time>2019-01-06T13:59:56Z</time>
      </trkpt>
      <trkpt lat="46.193640846759081" lon="8.956406861543655">
        <ele>1291.1900000000001</ele>
        <time>2019-01-06T13:59:57Z</time>
      </trkpt>
      <trkpt lat="46.193619053810835" lon="8.956459499895573">
        <ele>1292.1500000000001</ele>
        <time>2019-01-06T14:00:01Z</time>
      </trkpt>
      <trkpt lat="46.193606732413173" lon="8.956535439938307">
        <ele>1288.3</ele>
        <time>2019-01-06T14:00:06Z</time>
      </trkpt>
      <trkpt lat="46.193599607795477" lon="8.956551449373364">
        <ele>1287.8199999999999</ele>
        <time>2019-01-06T14:00:08Z</time>
      </trkpt>
      <trkpt lat="46.19355333968997" lon="8.956587491557002">
        <ele>1290.23</ele>
        <time>2019-01-06T14:00:12Z</time>
      </trkpt>
      <trkpt lat="46.193490726873279" lon="8.95659570582211">
        <ele>1289.27</ele>
        <time>2019-01-06T14:00:17Z</time>
      </trkpt>
      <trkpt lat="46.193352341651917" lon="8.956514149904251">
        <ele>1287.3399999999999</ele>
        <time>2019-01-06T14:00:29Z</time>
      </trkpt>
      <trkpt lat="46.193343037739396" lon="8.956500235944986">
        <ele>1287.3399999999999</ele>
        <time>2019-01-06T14:00:30Z</time>
      </trkpt>
      <trkpt lat="46.193233150988817" lon="8.956378027796745">
        <ele>1284.9400000000001</ele>
        <time>2019-01-06T14:00:45Z</time>
      </trkpt>
      <trkpt lat="46.193177159875631" lon="8.956287754699588">
        <ele>1282.0599999999999</ele>
        <time>2019-01-06T14:00:54Z</time>
      </trkpt>
      <trkpt lat="46.193120749667287" lon="8.956239810213447">
        <ele>1278.6900000000001</ele>
        <time>2019-01-06T14:01:03Z</time>
      </trkpt>
      <trkpt lat="46.193080013617873" lon="8.956201756373048">
        <ele>1276.29</ele>
        <time>2019-01-06T14:01:11Z</time>
      </trkpt>
      <trkpt lat="46.193031733855605" lon="8.95621751435101">
        <ele>1274.3599999999999</ele>
        <time>2019-01-06T14:01:21Z</time>
      </trkpt>
      <trkpt lat="46.192954955622554" lon="8.956243330612779">
        <ele>1271.96</ele>
        <time>2019-01-06T14:01:34Z</time>
      </trkpt>
      <trkpt lat="46.192878931760788" lon="8.95630837418139">
        <ele>1269.5599999999999</ele>
        <time>2019-01-06T14:01:45Z</time>
      </trkpt>
      <trkpt lat="46.192834926769137" lon="8.956365957856178">
        <ele>1266.6700000000001</ele>
        <time>2019-01-06T14:01:52Z</time>
      </trkpt>
      <trkpt lat="46.192787317559123" lon="8.956455560401082">
        <ele>1264.75</ele>
        <time>2019-01-06T14:02:02Z</time>
      </trkpt>
      <trkpt lat="46.192734008654952" lon="8.956504510715604">
        <ele>1261.8699999999999</ele>
        <time>2019-01-06T14:02:11Z</time>
      </trkpt>
      <trkpt lat="46.19272219017148" lon="8.956491854041815">
        <ele>1261.8699999999999</ele>
        <time>2019-01-06T14:02:12Z</time>
      </trkpt>
      <trkpt lat="46.19271288625896" lon="8.956467295065522">
        <ele>1259.9400000000001</ele>
        <time>2019-01-06T14:02:17Z</time>
      </trkpt>
      <trkpt lat="46.192658990621567" lon="8.956510797142983">
        <ele>1258.98</ele>
        <time>2019-01-06T14:02:24Z</time>
      </trkpt>
      <trkpt lat="46.192540721967816" lon="8.956598555669189">
        <ele>1256.0999999999999</ele>
        <time>2019-01-06T14:02:37Z</time>
      </trkpt>
      <trkpt lat="46.192478109151125" lon="8.956672819331288">
        <ele>1255.1400000000001</ele>
        <time>2019-01-06T14:02:47Z</time>
      </trkpt>
      <trkpt lat="46.192406192421913" lon="8.956745071336627">
        <ele>1252.74</ele>
        <time>2019-01-06T14:02:58Z</time>
      </trkpt>
      <trkpt lat="46.192357074469328" lon="8.956815311685205">
        <ele>1250.8099999999999</ele>
        <time>2019-01-06T14:03:07Z</time>
      </trkpt>
      <trkpt lat="46.192290522158146" lon="8.956904327496886">
        <ele>1248.8900000000001</ele>
        <time>2019-01-06T14:03:19Z</time>
      </trkpt>
      <trkpt lat="46.192266969010234" lon="8.957035085186362">
        <ele>1247.45</ele>
        <time>2019-01-06T14:03:28Z</time>
      </trkpt>
      <trkpt lat="46.192238721996546" lon="8.95716249011457">
        <ele>1246.97</ele>
        <time>2019-01-06T14:03:38Z</time>
      </trkpt>
      <trkpt lat="46.192241488024592" lon="8.957218984141946">
        <ele>1247.45</ele>
        <time>2019-01-06T14:03:43Z</time>
      </trkpt>
      <trkpt lat="46.192224640399218" lon="8.957373965531588">
        <ele>1249.3699999999999</ele>
        <time>2019-01-06T14:03:54Z</time>
      </trkpt>
      <trkpt lat="46.192208379507065" lon="8.957440685480833">
        <ele>1245.53</ele>
        <time>2019-01-06T14:04:01Z</time>
      </trkpt>
      <trkpt lat="46.192230172455311" lon="8.957600612193346">
        <ele>1245.53</ele>
        <time>2019-01-06T14:04:13Z</time>
      </trkpt>
      <trkpt lat="46.192246098071337" lon="8.957719886675477">
        <ele>1245.04</ele>
        <time>2019-01-06T14:04:23Z</time>
      </trkpt>
      <trkpt lat="46.192217599600554" lon="8.957807561382651">
        <ele>1242.1600000000001</ele>
        <time>2019-01-06T14:04:33Z</time>
      </trkpt>
      <trkpt lat="46.192222628742456" lon="8.957915185019374">
        <ele>1241.6800000000001</ele>
        <time>2019-01-06T14:04:42Z</time>
      </trkpt>
      <trkpt lat="46.192217348143458" lon="8.958043428137898">
        <ele>1241.2</ele>
        <time>2019-01-06T14:04:52Z</time>
      </trkpt>
      <trkpt lat="46.19224333204329" lon="8.958121882751584">
        <ele>1241.2</ele>
        <time>2019-01-06T14:05:00Z</time>
      </trkpt>
      <trkpt lat="46.192271495237947" lon="8.958223639056087">
        <ele>1239.76</ele>
        <time>2019-01-06T14:05:11Z</time>
      </trkpt>
      <trkpt lat="46.19231172837317" lon="8.958320785313845">
        <ele>1237.3499999999999</ele>
        <time>2019-01-06T14:05:22Z</time>
      </trkpt>
      <trkpt lat="46.192360846325755" lon="8.958420027047396">
        <ele>1236.3900000000001</ele>
        <time>2019-01-06T14:05:32Z</time>
      </trkpt>
      <trkpt lat="46.192365037277341" lon="8.958492781966925">
        <ele>1235.9100000000001</ele>
        <time>2019-01-06T14:05:38Z</time>
      </trkpt>
      <trkpt lat="46.192415580153465" lon="8.958655977621675">
        <ele>1235.9100000000001</ele>
        <time>2019-01-06T14:05:50Z</time>
      </trkpt>
      <trkpt lat="46.192442569881678" lon="8.958756644278765">
        <ele>1232.55</ele>
        <time>2019-01-06T14:05:59Z</time>
      </trkpt>
      <trkpt lat="46.192462602630258" lon="8.95881799980998">
        <ele>1229.1800000000001</ele>
        <time>2019-01-06T14:06:06Z</time>
      </trkpt>
      <trkpt lat="46.192485652863979" lon="8.958866111934185">
        <ele>1227.74</ele>
        <time>2019-01-06T14:06:13Z</time>
      </trkpt>
      <trkpt lat="46.192493783310056" lon="8.958926880732179">
        <ele>1227.74</ele>
        <time>2019-01-06T14:06:22Z</time>
      </trkpt>
      <trkpt lat="46.192515576258302" lon="8.958990667015314">
        <ele>1223.9000000000001</ele>
        <time>2019-01-06T14:06:30Z</time>
      </trkpt>
      <trkpt lat="46.192525299265981" lon="8.959006173536181">
        <ele>1221.49</ele>
        <time>2019-01-06T14:06:34Z</time>
      </trkpt>
      <trkpt lat="46.192562012001872" lon="8.959085047245026">
        <ele>1218.6099999999999</ele>
        <time>2019-01-06T14:06:44Z</time>
      </trkpt>
      <trkpt lat="46.192637449130416" lon="8.95917565561831">
        <ele>1217.1700000000001</ele>
        <time>2019-01-06T14:06:56Z</time>
      </trkpt>
      <trkpt lat="46.192676005885005" lon="8.959281854331493">
        <ele>1214.28</ele>
        <time>2019-01-06T14:07:05Z</time>
      </trkpt>
      <trkpt lat="46.192683465778828" lon="8.959293253719807">
        <ele>1214.28</ele>
        <time>2019-01-06T14:07:06Z</time>
      </trkpt>
      <trkpt lat="46.192780528217554" lon="8.959460724145174">
        <ele>1214.28</ele>
        <time>2019-01-06T14:07:19Z</time>
      </trkpt>
      <trkpt lat="46.192797627300024" lon="8.959496011957526">
        <ele>1215.72</ele>
        <time>2019-01-06T14:07:23Z</time>
      </trkpt>
      <trkpt lat="46.192863760516047" lon="8.959547393023968">
        <ele>1217.6500000000001</ele>
        <time>2019-01-06T14:07:35Z</time>
      </trkpt>
      <trkpt lat="46.192869124934077" lon="8.959552338346839">
        <ele>1217.6500000000001</ele>
        <time>2019-01-06T14:07:36Z</time>
      </trkpt>
      <trkpt lat="46.192891420796514" lon="8.95958561450243">
        <ele>1219.0899999999999</ele>
        <time>2019-01-06T14:07:39Z</time>
      </trkpt>
      <trkpt lat="46.192978089675307" lon="8.95969994366169">
        <ele>1217.6500000000001</ele>
        <time>2019-01-06T14:07:49Z</time>
      </trkpt>
      <trkpt lat="46.193053275346756" lon="8.959777895361185">
        <ele>1219.0899999999999</ele>
        <time>2019-01-06T14:08:00Z</time>
      </trkpt>
      <trkpt lat="46.193135417997837" lon="8.95988317206502">
        <ele>1220.53</ele>
        <time>2019-01-06T14:08:10Z</time>
      </trkpt>
      <trkpt lat="46.193141536787152" lon="8.959895661100745">
        <ele>1220.05</ele>
        <time>2019-01-06T14:08:11Z</time>
      </trkpt>
      <trkpt lat="46.193245723843575" lon="8.960042344406247">
        <ele>1219.0899999999999</ele>
        <time>2019-01-06T14:08:23Z</time>
      </trkpt>
      <trkpt lat="46.193252010270953" lon="8.960177376866341">
        <ele>1217.1700000000001</ele>
        <time>2019-01-06T14:08:33Z</time>
      </trkpt>
      <trkpt lat="46.193229127675295" lon="8.960283407941461">
        <ele>1217.1700000000001</ele>
        <time>2019-01-06T14:08:43Z</time>
      </trkpt>
      <trkpt lat="46.193239605054259" lon="8.960305619984865">
        <ele>1217.1700000000001</ele>
        <time>2019-01-06T14:08:44Z</time>
      </trkpt>
      <trkpt lat="46.193245137110353" lon="8.960364377126098">
        <ele>1216.21</ele>
        <time>2019-01-06T14:08:47Z</time>
      </trkpt>
      <trkpt lat="46.193282939493656" lon="8.960506282746792">
        <ele>1215.72</ele>
        <time>2019-01-06T14:08:58Z</time>
      </trkpt>
      <trkpt lat="46.193302469328046" lon="8.960598735138774">
        <ele>1215.72</ele>
        <time>2019-01-06T14:09:04Z</time>
      </trkpt>
      <trkpt lat="46.193296769633889" lon="8.960644165053964">
        <ele>1214.28</ele>
        <time>2019-01-06T14:09:06Z</time>
      </trkpt>
      <trkpt lat="46.193309761583805" lon="8.960679620504379">
        <ele>1211.8800000000001</ele>
        <time>2019-01-06T14:09:10Z</time>
      </trkpt>
      <trkpt lat="46.193289896473289" lon="8.960762685164809">
        <ele>1209.96</ele>
        <time>2019-01-06T14:09:19Z</time>
      </trkpt>
      <trkpt lat="46.193294590339065" lon="8.960826387628913">
        <ele>1207.0699999999999</ele>
        <time>2019-01-06T14:09:26Z</time>
      </trkpt>
      <trkpt lat="46.1933324765414" lon="8.960905261337757">
        <ele>1204.1900000000001</ele>
        <time>2019-01-06T14:09:36Z</time>
      </trkpt>
      <trkpt lat="46.193259134888649" lon="8.960887407884002">
        <ele>1203.71</ele>
        <time>2019-01-06T14:09:39Z</time>
      </trkpt>
      <trkpt lat="46.193224852904677" lon="8.96102705039084">
        <ele>1201.3</ele>
        <time>2019-01-06T14:09:50Z</time>
      </trkpt>
      <trkpt lat="46.19321814738214" lon="8.961053788661957">
        <ele>1200.3399999999999</ele>
        <time>2019-01-06T14:09:52Z</time>
      </trkpt>
      <trkpt lat="46.193234156817198" lon="8.961195191368461">
        <ele>1197.9400000000001</ele>
        <time>2019-01-06T14:10:06Z</time>
      </trkpt>
      <trkpt lat="46.193240359425545" lon="8.961212206631899">
        <ele>1197.46</ele>
        <time>2019-01-06T14:10:08Z</time>
      </trkpt>
      <trkpt lat="46.193269276991487" lon="8.96129728294909">
        <ele>1196.98</ele>
        <time>2019-01-06T14:10:17Z</time>
      </trkpt>
      <trkpt lat="46.193256787955761" lon="8.961328379809856">
        <ele>1195.0599999999999</ele>
        <time>2019-01-06T14:10:20Z</time>
      </trkpt>
      <trkpt lat="46.193231977522373" lon="8.961420077830553">
        <ele>1194.0899999999999</ele>
        <time>2019-01-06T14:10:32Z</time>
      </trkpt>
      <trkpt lat="46.193248070776463" lon="8.961460394784808">
        <ele>1190.73</ele>
        <time>2019-01-06T14:10:36Z</time>
      </trkpt>
      <trkpt lat="46.193254860118032" lon="8.96148051135242">
        <ele>1188.8099999999999</ele>
        <time>2019-01-06T14:10:38Z</time>
      </trkpt>
      <trkpt lat="46.193258045241237" lon="8.96150641143322">
        <ele>1183.04</ele>
        <time>2019-01-06T14:10:40Z</time>
      </trkpt>
      <trkpt lat="46.193257626146078" lon="8.96152057684958">
        <ele>1184.48</ele>
        <time>2019-01-06T14:10:41Z</time>
      </trkpt>
      <trkpt lat="46.193252177909017" lon="8.961547901853919">
        <ele>1185.4400000000001</ele>
        <time>2019-01-06T14:10:43Z</time>
      </trkpt>
      <trkpt lat="46.1932288762182" lon="8.961597606539726">
        <ele>1188.8099999999999</ele>
        <time>2019-01-06T14:10:50Z</time>
      </trkpt>
      <trkpt lat="46.19321865029633" lon="8.961597271263599">
        <ele>1188.8099999999999</ele>
        <time>2019-01-06T14:10:51Z</time>
      </trkpt>
      <trkpt lat="46.193204484879971" lon="8.9616334810853">
        <ele>1188.3299999999999</ele>
        <time>2019-01-06T14:10:55Z</time>
      </trkpt>
      <trkpt lat="46.193217393010855" lon="8.96166424266994">
        <ele>1188.3299999999999</ele>
        <time>2019-01-06T14:10:58Z</time>
      </trkpt>
      <trkpt lat="46.193207586184144" lon="8.961792318150401">
        <ele>1186.8800000000001</ele>
        <time>2019-01-06T14:11:09Z</time>
      </trkpt>
      <trkpt lat="46.193248741328716" lon="8.961858870461583">
        <ele>1184.48</ele>
        <time>2019-01-06T14:11:18Z</time>
      </trkpt>
      <trkpt lat="46.193279586732388" lon="8.961849398910999">
        <ele>1181.1199999999999</ele>
        <time>2019-01-06T14:11:26Z</time>
      </trkpt>
      <trkpt lat="46.193296182900667" lon="8.961843363940716">
        <ele>1180.1600000000001</ele>
        <time>2019-01-06T14:11:28Z</time>
      </trkpt>
      <trkpt lat="46.193307414650917" lon="8.961845291778445">
        <ele>1176.79</ele>
        <time>2019-01-06T14:11:30Z</time>
      </trkpt>
      <trkpt lat="46.19331881403923" lon="8.961870186030865">
        <ele>1180.1600000000001</ele>
        <time>2019-01-06T14:11:32Z</time>
      </trkpt>
      <trkpt lat="46.193334991112351" lon="8.961946545168757">
        <ele>1176.79</ele>
        <time>2019-01-06T14:11:40Z</time>
      </trkpt>
      <trkpt lat="46.193334739655256" lon="8.961967080831528">
        <ele>1175.8299999999999</ele>
        <time>2019-01-06T14:11:42Z</time>
      </trkpt>
      <trkpt lat="46.193335242569447" lon="8.961989292874932">
        <ele>1177.75</ele>
        <time>2019-01-06T14:11:44Z</time>
      </trkpt>
      <trkpt lat="46.193329207599163" lon="8.962012175470591">
        <ele>1181.1199999999999</ele>
        <time>2019-01-06T14:11:46Z</time>
      </trkpt>
      <trkpt lat="46.193331219255924" lon="8.96201703697443">
        <ele>1181.1199999999999</ele>
        <time>2019-01-06T14:11:47Z</time>
      </trkpt>
      <trkpt lat="46.193285034969449" lon="8.962069256231189">
        <ele>1178.23</ele>
        <time>2019-01-06T14:11:57Z</time>
      </trkpt>
      <trkpt lat="46.193257793784142" lon="8.962164307013154">
        <ele>1174.3900000000001</ele>
        <time>2019-01-06T14:12:07Z</time>
      </trkpt>
      <trkpt lat="46.193249998614192" lon="8.962196912616491">
        <ele>1173.4300000000001</ele>
        <time>2019-01-06T14:12:12Z</time>
      </trkpt>
      <trkpt lat="46.193254189565778" lon="8.962228428572416">
        <ele>1170.54</ele>
        <time>2019-01-06T14:12:17Z</time>
      </trkpt>
      <trkpt lat="46.193270366638899" lon="8.962300596758723">
        <ele>1167.1800000000001</ele>
        <time>2019-01-06T14:12:24Z</time>
      </trkpt>
      <trkpt lat="46.193239102140069" lon="8.962384751066566">
        <ele>1166.7</ele>
        <time>2019-01-06T14:12:33Z</time>
      </trkpt>
      <trkpt lat="46.19323180988431" lon="8.962419535964727">
        <ele>1162.8499999999999</ele>
        <time>2019-01-06T14:12:36Z</time>
      </trkpt>
      <trkpt lat="46.193236084654927" lon="8.962431522086263">
        <ele>1162.8499999999999</ele>
        <time>2019-01-06T14:12:37Z</time>
      </trkpt>
      <trkpt lat="46.193255949765444" lon="8.962467228993774">
        <ele>1161.4100000000001</ele>
        <time>2019-01-06T14:12:41Z</time>
      </trkpt>
      <trkpt lat="46.193236503750086" lon="8.962559178471565">
        <ele>1158.05</ele>
        <time>2019-01-06T14:12:48Z</time>
      </trkpt>
      <trkpt lat="46.193218315020204" lon="8.962627574801445">
        <ele>1157.5599999999999</ele>
        <time>2019-01-06T14:12:54Z</time>
      </trkpt>
      <trkpt lat="46.193222003057599" lon="8.962701000273228">
        <ele>1158.53</ele>
        <time>2019-01-06T14:13:00Z</time>
      </trkpt>
      <trkpt lat="46.19318931363523" lon="8.962717009708285">
        <ele>1159.97</ele>
        <time>2019-01-06T14:13:05Z</time>
      </trkpt>
      <trkpt lat="46.19316391646862" lon="8.962713489308953">
        <ele>1158.05</ele>
        <time>2019-01-06T14:13:08Z</time>
      </trkpt>
      <trkpt lat="46.193134663626552" lon="8.962720027193427">
        <ele>1156.1199999999999</ele>
        <time>2019-01-06T14:13:13Z</time>
      </trkpt>
      <trkpt lat="46.193078001961112" lon="8.962704101577401">
        <ele>1153.24</ele>
        <time>2019-01-06T14:13:21Z</time>
      </trkpt>
      <trkpt lat="46.193071715533733" lon="8.962699742987752">
        <ele>1152.76</ele>
        <time>2019-01-06T14:13:22Z</time>
      </trkpt>
      <trkpt lat="46.193017903715372" lon="8.962679291144013">
        <ele>1149.8699999999999</ele>
        <time>2019-01-06T14:13:28Z</time>
      </trkpt>
      <trkpt lat="46.192953027784824" lon="8.962662192061544">
        <ele>1146.99</ele>
        <time>2019-01-06T14:13:42Z</time>
      </trkpt>
      <trkpt lat="46.192905167117715" lon="8.962630843743682">
        <ele>1143.6300000000001</ele>
        <time>2019-01-06T14:13:52Z</time>
      </trkpt>
      <trkpt lat="46.19286778382957" lon="8.962600836530328">
        <ele>1142.6600000000001</ele>
        <time>2019-01-06T14:13:59Z</time>
      </trkpt>
      <trkpt lat="46.192798465490341" lon="8.962574098259211">
        <ele>1140.26</ele>
        <time>2019-01-06T14:14:10Z</time>
      </trkpt>
      <trkpt lat="46.192822773009539" lon="8.962685577571392">
        <ele>1137.3800000000001</ele>
        <time>2019-01-06T14:14:21Z</time>
      </trkpt>
      <trkpt lat="46.192832412198186" lon="8.962719859555364">
        <ele>1136.4200000000001</ele>
        <time>2019-01-06T14:14:24Z</time>
      </trkpt>
      <trkpt lat="46.192835513502359" lon="8.962844666093588">
        <ele>1134.49</ele>
        <time>2019-01-06T14:14:33Z</time>
      </trkpt>
      <trkpt lat="46.192837273702025" lon="8.962875930592418">
        <ele>1133.53</ele>
        <time>2019-01-06T14:14:35Z</time>
      </trkpt>
      <trkpt lat="46.192809948697686" lon="8.962946254760027">
        <ele>1132.0899999999999</ele>
        <time>2019-01-06T14:14:41Z</time>
      </trkpt>
      <trkpt lat="46.19275345467031" lon="8.9630754198879">
        <ele>1132.0899999999999</ele>
        <time>2019-01-06T14:14:53Z</time>
      </trkpt>
      <trkpt lat="46.192752029746771" lon="8.963170470669866">
        <ele>1131.6099999999999</ele>
        <time>2019-01-06T14:15:00Z</time>
      </trkpt>
      <trkpt lat="46.192717077210546" lon="8.963310532271862">
        <ele>1127.76</ele>
        <time>2019-01-06T14:15:11Z</time>
      </trkpt>
      <trkpt lat="46.192711461335421" lon="8.963466184213758">
        <ele>1125.8399999999999</ele>
        <time>2019-01-06T14:15:21Z</time>
      </trkpt>
      <trkpt lat="46.192719843238592" lon="8.963547488674521">
        <ele>1124.4000000000001</ele>
        <time>2019-01-06T14:15:30Z</time>
      </trkpt>
      <trkpt lat="46.19273342192173" lon="8.963638264685869">
        <ele>1124.8800000000001</ele>
        <time>2019-01-06T14:15:44Z</time>
      </trkpt>
      <trkpt lat="46.192739708349109" lon="8.963669696822763">
        <ele>1126.3199999999999</ele>
        <time>2019-01-06T14:15:46Z</time>
      </trkpt>
      <trkpt lat="46.192740462720394" lon="8.963718228042126">
        <ele>1127.76</ele>
        <time>2019-01-06T14:15:49Z</time>
      </trkpt>
      <trkpt lat="46.192744318395853" lon="8.963803555816412">
        <ele>1125.3599999999999</ele>
        <time>2019-01-06T14:15:56Z</time>
      </trkpt>
      <trkpt lat="46.192750688642263" lon="8.96383473649621">
        <ele>1125.8399999999999</ele>
        <time>2019-01-06T14:16:04Z</time>
      </trkpt>
      <trkpt lat="46.192741384729743" lon="8.963839011266828">
        <ele>1128.24</ele>
        <time>2019-01-06T14:16:17Z</time>
      </trkpt>
      <trkpt lat="46.192749263718724" lon="8.963853260502219">
        <ele>1126.8</ele>
        <time>2019-01-06T14:16:37Z</time>
      </trkpt>
      <trkpt lat="46.192735936492682" lon="8.963704062625766">
        <ele>1126.8</ele>
        <time>2019-01-06T14:16:49Z</time>
      </trkpt>
      <trkpt lat="46.192742558196187" lon="8.963688807561994">
        <ele>1125.8399999999999</ele>
        <time>2019-01-06T14:17:00Z</time>
      </trkpt>
      <trkpt lat="46.19274809025228" lon="8.963681934401393">
        <ele>1124.8800000000001</ele>
        <time>2019-01-06T14:17:14Z</time>
      </trkpt>
      <trkpt lat="46.192742977291346" lon="8.96367346867919">
        <ele>1125.3599999999999</ele>
        <time>2019-01-06T14:17:24Z</time>
      </trkpt>
      <trkpt lat="46.192736187949777" lon="8.963656034320593">
        <ele>1125.8399999999999</ele>
        <time>2019-01-06T14:17:33Z</time>
      </trkpt>
      <trkpt lat="46.192730404436588" lon="8.963662572205067">
        <ele>1122.96</ele>
        <time>2019-01-06T14:17:41Z</time>
      </trkpt>
      <trkpt lat="46.192723447456956" lon="8.963685287162662">
        <ele>1122</ele>
        <time>2019-01-06T14:17:56Z</time>
      </trkpt>
      <trkpt lat="46.192733086645603" lon="8.963683694601059">
        <ele>1125.3599999999999</ele>
        <time>2019-01-06T14:18:06Z</time>
      </trkpt>
      <trkpt lat="46.192696876823902" lon="8.963690483942628">
        <ele>1125.3599999999999</ele>
        <time>2019-01-06T14:18:14Z</time>
      </trkpt>
      <trkpt lat="46.192693524062634" lon="8.963693836703897">
        <ele>1125.3599999999999</ele>
        <time>2019-01-06T14:18:28Z</time>
      </trkpt>
      <trkpt lat="46.192690087482333" lon="8.96368763409555">
        <ele>1123.4400000000001</ele>
        <time>2019-01-06T14:18:32Z</time>
      </trkpt>
      <trkpt lat="46.192728225141764" lon="8.963641868904233">
        <ele>1123.9200000000001</ele>
        <time>2019-01-06T14:18:47Z</time>
      </trkpt>
      <trkpt lat="46.19271095842123" lon="8.963599959388375">
        <ele>1127.76</ele>
        <time>2019-01-06T14:18:54Z</time>
      </trkpt>
      <trkpt lat="46.192709198221564" lon="8.963584201410413">
        <ele>1127.76</ele>
        <time>2019-01-06T14:18:55Z</time>
      </trkpt>
      <trkpt lat="46.192708946764469" lon="8.963576070964336">
        <ele>1124.4000000000001</ele>
        <time>2019-01-06T14:18:58Z</time>
      </trkpt>
      <trkpt lat="46.192713137716055" lon="8.96357674151659">
        <ele>1124.4000000000001</ele>
        <time>2019-01-06T14:18:59Z</time>
      </trkpt>
      <trkpt lat="46.192720932886004" lon="8.963587386533618">
        <ele>1127.76</ele>
        <time>2019-01-06T14:19:10Z</time>
      </trkpt>
      <trkpt lat="46.192702073603868" lon="8.963613538071513">
        <ele>1127.28</ele>
        <time>2019-01-06T14:19:21Z</time>
      </trkpt>
      <trkpt lat="46.192703414708376" lon="8.963608257472515">
        <ele>1124.8800000000001</ele>
        <time>2019-01-06T14:19:29Z</time>
      </trkpt>
      <trkpt lat="46.192711209878325" lon="8.963608341291547">
        <ele>1126.3199999999999</ele>
        <time>2019-01-06T14:19:37Z</time>
      </trkpt>
      <trkpt lat="46.192711712792516" lon="8.963609598577023">
        <ele>1126.8</ele>
        <time>2019-01-06T14:19:45Z</time>
      </trkpt>
      <trkpt lat="46.192711461335421" lon="8.963610185310245">
        <ele>1124.4000000000001</ele>
        <time>2019-01-06T14:19:48Z</time>
      </trkpt>
      <trkpt lat="46.192691596224904" lon="8.963597444817424">
        <ele>1127.76</ele>
        <time>2019-01-06T14:20:01Z</time>
      </trkpt>
      <trkpt lat="46.1926952842623" lon="8.963600546121597">
        <ele>1126.8</ele>
        <time>2019-01-06T14:20:16Z</time>
      </trkpt>
      <trkpt lat="46.192710874602199" lon="8.963611274957657">
        <ele>1126.3199999999999</ele>
        <time>2019-01-06T14:20:26Z</time>
      </trkpt>
      <trkpt lat="46.192710204049945" lon="8.963606161996722">
        <ele>1123.4400000000001</ele>
        <time>2019-01-06T14:20:40Z</time>
      </trkpt>
      <trkpt lat="46.192710287868977" lon="8.963608425110579">
        <ele>1123.4400000000001</ele>
        <time>2019-01-06T14:20:41Z</time>
      </trkpt>
      <trkpt lat="46.192719340324402" lon="8.963622590526938">
        <ele>1126.8</ele>
        <time>2019-01-06T14:20:47Z</time>
      </trkpt>
      <trkpt lat="46.19271975941956" lon="8.963624434545636">
        <ele>1128.73</ele>
        <time>2019-01-06T14:20:49Z</time>
      </trkpt>
      <trkpt lat="46.192715652287006" lon="8.963633654639125">
        <ele>1128.24</ele>
        <time>2019-01-06T14:21:06Z</time>
      </trkpt>
      <trkpt lat="46.192713556811213" lon="8.963642120361328">
        <ele>1126.3199999999999</ele>
        <time>2019-01-06T14:21:14Z</time>
      </trkpt>
      <trkpt lat="46.192706767469645" lon="8.963637258857489">
        <ele>1124.4000000000001</ele>
        <time>2019-01-06T14:21:26Z</time>
      </trkpt>
      <trkpt lat="46.192706432193518" lon="8.963635331019759">
        <ele>1124.8800000000001</ele>
        <time>2019-01-06T14:21:39Z</time>
      </trkpt>
      <trkpt lat="46.192710371688008" lon="8.963626194745302">
        <ele>1126.8</ele>
        <time>2019-01-06T14:21:50Z</time>
      </trkpt>
      <trkpt lat="46.192714227363467" lon="8.963652681559324">
        <ele>1129.6900000000001</ele>
        <time>2019-01-06T14:21:57Z</time>
      </trkpt>
      <trkpt lat="46.192741133272648" lon="8.963704230263829">
        <ele>1129.6900000000001</ele>
        <time>2019-01-06T14:22:16Z</time>
      </trkpt>
      <trkpt lat="46.192744066938758" lon="8.963700458407402">
        <ele>1126.8</ele>
        <time>2019-01-06T14:22:25Z</time>
      </trkpt>
      <trkpt lat="46.192724453285336" lon="8.963721999898553">
        <ele>1123.9200000000001</ele>
        <time>2019-01-06T14:22:33Z</time>
      </trkpt>
      <trkpt lat="46.192731158807874" lon="8.963769022375345">
        <ele>1127.76</ele>
        <time>2019-01-06T14:22:37Z</time>
      </trkpt>
      <trkpt lat="46.192777846008539" lon="8.963911850005388">
        <ele>1129.6900000000001</ele>
        <time>2019-01-06T14:22:48Z</time>
      </trkpt>
      <trkpt lat="46.192797040566802" lon="8.963968511670828">
        <ele>1128.73</ele>
        <time>2019-01-06T14:22:53Z</time>
      </trkpt>
      <trkpt lat="46.19280718266964" lon="8.964018886908889">
        <ele>1130.6500000000001</ele>
        <time>2019-01-06T14:22:57Z</time>
      </trkpt>
      <trkpt lat="46.192827131599188" lon="8.964151404798031">
        <ele>1132.0899999999999</ele>
        <time>2019-01-06T14:23:07Z</time>
      </trkpt>
      <trkpt lat="46.192839285358787" lon="8.964277971535921">
        <ele>1133.53</ele>
        <time>2019-01-06T14:23:19Z</time>
      </trkpt>
      <trkpt lat="46.19283308275044" lon="8.964286856353283">
        <ele>1136.9000000000001</ele>
        <time>2019-01-06T14:23:20Z</time>
      </trkpt>
      <trkpt lat="46.19281648658216" lon="8.964307643473148">
        <ele>1132.5699999999999</ele>
        <time>2019-01-06T14:23:23Z</time>
      </trkpt>
      <trkpt lat="46.192814894020557" lon="8.964323736727238">
        <ele>1129.21</ele>
        <time>2019-01-06T14:23:24Z</time>
      </trkpt>
      <trkpt lat="46.192813972011209" lon="8.964338740333915">
        <ele>1133.05</ele>
        <time>2019-01-06T14:23:25Z</time>
      </trkpt>
      <trkpt lat="46.192814726382494" lon="8.964359443634749">
        <ele>1135.45</ele>
        <time>2019-01-06T14:23:27Z</time>
      </trkpt>
      <trkpt lat="46.192825455218554" lon="8.964365897700191">
        <ele>1130.6500000000001</ele>
        <time>2019-01-06T14:23:29Z</time>
      </trkpt>
      <trkpt lat="46.192835848778486" lon="8.964390205219388">
        <ele>1134.49</ele>
        <time>2019-01-06T14:23:32Z</time>
      </trkpt>
      <trkpt lat="46.192841045558453" lon="8.964389115571976">
        <ele>1128.73</ele>
        <time>2019-01-06T14:23:33Z</time>
      </trkpt>
      <trkpt lat="46.192844565957785" lon="8.964388528838754">
        <ele>1134.49</ele>
        <time>2019-01-06T14:23:34Z</time>
      </trkpt>
      <trkpt lat="46.192847834900022" lon="8.964395234361291">
        <ele>1130.6500000000001</ele>
        <time>2019-01-06T14:23:35Z</time>
      </trkpt>
      <trkpt lat="46.19285169057548" lon="8.964415937662125">
        <ele>1135.45</ele>
        <time>2019-01-06T14:23:37Z</time>
      </trkpt>
      <trkpt lat="46.192854372784495" lon="8.964422307908535">
        <ele>1134.01</ele>
        <time>2019-01-06T14:23:38Z</time>
      </trkpt>
      <trkpt lat="46.192852696403861" lon="8.964425995945931">
        <ele>1130.6500000000001</ele>
        <time>2019-01-06T14:23:39Z</time>
      </trkpt>
      <trkpt lat="46.192852947860956" lon="8.964427169412375">
        <ele>1130.6500000000001</ele>
        <time>2019-01-06T14:23:40Z</time>
      </trkpt>
      <trkpt lat="46.192852444946766" lon="8.964433204382658">
        <ele>1132.0899999999999</ele>
        <time>2019-01-06T14:23:42Z</time>
      </trkpt>
      <trkpt lat="46.192852444946766" lon="8.964432533830404">
        <ele>1135.45</ele>
        <time>2019-01-06T14:23:43Z</time>
      </trkpt>
      <trkpt lat="46.192847080528736" lon="8.964433623477817">
        <ele>1130.1700000000001</ele>
        <time>2019-01-06T14:23:48Z</time>
      </trkpt>
      <trkpt lat="46.192846996709704" lon="8.964429935440421">
        <ele>1138.8199999999999</ele>
        <time>2019-01-06T14:23:49Z</time>
      </trkpt>
      <trkpt lat="46.192849511280656" lon="8.964408058673143">
        <ele>1138.8199999999999</ele>
        <time>2019-01-06T14:23:55Z</time>
      </trkpt>
      <trkpt lat="46.192867029458284" lon="8.964381571859121">
        <ele>1134.01</ele>
        <time>2019-01-06T14:23:58Z</time>
      </trkpt>
      <trkpt lat="46.192877255380154" lon="8.964377883821726">
        <ele>1138.3399999999999</ele>
        <time>2019-01-06T14:23:59Z</time>
      </trkpt>
      <trkpt lat="46.192896366119385" lon="8.964360281825066">
        <ele>1141.7</ele>
        <time>2019-01-06T14:24:02Z</time>
      </trkpt>
      <trkpt lat="46.192934922873974" lon="8.964325496926904">
        <ele>1136.4200000000001</ele>
        <time>2019-01-06T14:24:10Z</time>
      </trkpt>
      <trkpt lat="46.192941293120384" lon="8.96432138979435">
        <ele>1132.5699999999999</ele>
        <time>2019-01-06T14:24:11Z</time>
      </trkpt>
      <trkpt lat="46.192957554012537" lon="8.964298842474818">
        <ele>1131.1300000000001</ele>
        <time>2019-01-06T14:24:16Z</time>
      </trkpt>
      <trkpt lat="46.192971467971802" lon="8.964285012334585">
        <ele>1128.24</ele>
        <time>2019-01-06T14:24:20Z</time>
      </trkpt>
      <trkpt lat="46.192980101332068" lon="8.964281743392348">
        <ele>1127.76</ele>
        <time>2019-01-06T14:24:21Z</time>
      </trkpt>
      <trkpt lat="46.193029973655939" lon="8.964360784739256">
        <ele>1124.4000000000001</ele>
        <time>2019-01-06T14:24:30Z</time>
      </trkpt>
      <trkpt lat="46.193039612844586" lon="8.964423649013042">
        <ele>1116.23</ele>
        <time>2019-01-06T14:24:35Z</time>
      </trkpt>
      <trkpt lat="46.19304371997714" lon="8.964432785287499">
        <ele>1112.3800000000001</ele>
        <time>2019-01-06T14:24:36Z</time>
      </trkpt>
      <trkpt lat="46.193046486005187" lon="8.964444603770971">
        <ele>1112.8599999999999</ele>
        <time>2019-01-06T14:24:37Z</time>
      </trkpt>
      <trkpt lat="46.193050090223551" lon="8.964456841349602">
        <ele>1117.1900000000001</ele>
        <time>2019-01-06T14:24:38Z</time>
      </trkpt>
      <trkpt lat="46.193054532632232" lon="8.964493805542588">
        <ele>1122</ele>
        <time>2019-01-06T14:24:41Z</time>
      </trkpt>
      <trkpt lat="46.193053107708693" lon="8.964517274871469">
        <ele>1122.96</ele>
        <time>2019-01-06T14:24:43Z</time>
      </trkpt>
      <trkpt lat="46.193077750504017" lon="8.964608637616038">
        <ele>1123.4400000000001</ele>
        <time>2019-01-06T14:24:51Z</time>
      </trkpt>
      <trkpt lat="46.193075571209192" lon="8.964652307331562">
        <ele>1121.52</ele>
        <time>2019-01-06T14:24:54Z</time>
      </trkpt>
      <trkpt lat="46.193081187084317" lon="8.964713076129556">
        <ele>1118.1500000000001</ele>
        <time>2019-01-06T14:24:58Z</time>
      </trkpt>
      <trkpt lat="46.193074313923717" lon="8.964786753058434">
        <ele>1114.79</ele>
        <time>2019-01-06T14:25:03Z</time>
      </trkpt>
      <trkpt lat="46.193074146285653" lon="8.964795721694827">
        <ele>1117.6700000000001</ele>
        <time>2019-01-06T14:25:04Z</time>
      </trkpt>
      <trkpt lat="46.193094095215201" lon="8.964869314804673">
        <ele>1114.79</ele>
        <time>2019-01-06T14:25:11Z</time>
      </trkpt>
      <trkpt lat="46.193089988082647" lon="8.964882977306843">
        <ele>1114.79</ele>
        <time>2019-01-06T14:25:12Z</time>
      </trkpt>
      <trkpt lat="46.19310088455677" lon="8.964915415272117">
        <ele>1112.8599999999999</ele>
        <time>2019-01-06T14:25:20Z</time>
      </trkpt>
      <trkpt lat="46.193122006952763" lon="8.964894041419029">
        <ele>1113.3399999999999</ele>
        <time>2019-01-06T14:25:24Z</time>
      </trkpt>
      <trkpt lat="46.193176573142409" lon="8.964798655360937">
        <ele>1112.3800000000001</ele>
        <time>2019-01-06T14:25:33Z</time>
      </trkpt>
      <trkpt lat="46.193221500143409" lon="8.964744424447417">
        <ele>1114.79</ele>
        <time>2019-01-06T14:25:38Z</time>
      </trkpt>
      <trkpt lat="46.193247819319367" lon="8.964719446375966">
        <ele>1110.9400000000001</ele>
        <time>2019-01-06T14:25:41Z</time>
      </trkpt>
      <trkpt lat="46.19330364279449" lon="8.964638393372297">
        <ele>1107.0999999999999</ele>
        <time>2019-01-06T14:25:50Z</time>
      </trkpt>
      <trkpt lat="46.193311354145408" lon="8.964617773890495">
        <ele>1106.6099999999999</ele>
        <time>2019-01-06T14:25:52Z</time>
      </trkpt>
      <trkpt lat="46.193356364965439" lon="8.964476119726896">
        <ele>1104.6900000000001</ele>
        <time>2019-01-06T14:26:04Z</time>
      </trkpt>
      <trkpt lat="46.193390898406506" lon="8.964386684820056">
        <ele>1097.96</ele>
        <time>2019-01-06T14:26:13Z</time>
      </trkpt>
      <trkpt lat="46.19339500553906" lon="8.964419206604362">
        <ele>1098.4400000000001</ele>
        <time>2019-01-06T14:26:15Z</time>
      </trkpt>
      <trkpt lat="46.193411853164434" lon="8.964480394497514">
        <ele>1097</ele>
        <time>2019-01-06T14:26:24Z</time>
      </trkpt>
      <trkpt lat="46.193438759073615" lon="8.964546276256442">
        <ele>1093.6400000000001</ele>
        <time>2019-01-06T14:26:30Z</time>
      </trkpt>
      <trkpt lat="46.193443620577455" lon="8.964554993435741">
        <ele>1093.6400000000001</ele>
        <time>2019-01-06T14:26:31Z</time>
      </trkpt>
      <trkpt lat="46.193471616134048" lon="8.964610481634736">
        <ele>1095.0799999999999</ele>
        <time>2019-01-06T14:26:36Z</time>
      </trkpt>
      <trkpt lat="46.193454097956419" lon="8.964730929583311">
        <ele>1091.71</ele>
        <time>2019-01-06T14:26:42Z</time>
      </trkpt>
      <trkpt lat="46.19345074519515" lon="8.964768648147583">
        <ele>1090.75</ele>
        <time>2019-01-06T14:26:44Z</time>
      </trkpt>
      <trkpt lat="46.19344194419682" lon="8.964834362268448">
        <ele>1091.71</ele>
        <time>2019-01-06T14:26:48Z</time>
      </trkpt>
      <trkpt lat="46.193441273644567" lon="8.964873673394322">
        <ele>1092.6800000000001</ele>
        <time>2019-01-06T14:26:50Z</time>
      </trkpt>
      <trkpt lat="46.193436915054917" lon="8.964963275939226">
        <ele>1092.6800000000001</ele>
        <time>2019-01-06T14:26:55Z</time>
      </trkpt>
      <trkpt lat="46.193385785445571" lon="8.965219426900148">
        <ele>1095.5599999999999</ele>
        <time>2019-01-06T14:27:09Z</time>
      </trkpt>
      <trkpt lat="46.193319819867611" lon="8.965420005843043">
        <ele>1096.52</ele>
        <time>2019-01-06T14:27:22Z</time>
      </trkpt>
      <trkpt lat="46.193304313346744" lon="8.965444732457399">
        <ele>1093.1600000000001</ele>
        <time>2019-01-06T14:27:24Z</time>
      </trkpt>
      <trkpt lat="46.193282520398498" lon="8.965496700257063">
        <ele>1089.3099999999999</ele>
        <time>2019-01-06T14:27:28Z</time>
      </trkpt>
      <trkpt lat="46.193258464336395" lon="8.965538777410984">
        <ele>1085.47</ele>
        <time>2019-01-06T14:27:32Z</time>
      </trkpt>
      <trkpt lat="46.19325234554708" lon="8.965545818209648">
        <ele>1084.99</ele>
        <time>2019-01-06T14:27:33Z</time>
      </trkpt>
      <trkpt lat="46.193181350827217" lon="8.965663919225335">
        <ele>1085.95</ele>
        <time>2019-01-06T14:27:46Z</time>
      </trkpt>
      <trkpt lat="46.193119492381811" lon="8.965788641944528">
        <ele>1084.99</ele>
        <time>2019-01-06T14:27:58Z</time>
      </trkpt>
      <trkpt lat="46.19306324981153" lon="8.965918561443687">
        <ele>1081.6199999999999</ele>
        <time>2019-01-06T14:28:10Z</time>
      </trkpt>
      <trkpt lat="46.193047659471631" lon="8.965944712981582">
        <ele>1080.6600000000001</ele>
        <time>2019-01-06T14:28:12Z</time>
      </trkpt>
      <trkpt lat="46.192974401637912" lon="8.966070022433996">
        <ele>1079.22</ele>
        <time>2019-01-06T14:28:24Z</time>
      </trkpt>
      <trkpt lat="46.192944729700685" lon="8.966132886707783">
        <ele>1075.8499999999999</ele>
        <time>2019-01-06T14:28:30Z</time>
      </trkpt>
      <trkpt lat="46.192900640890002" lon="8.966195499524474">
        <ele>1073.9300000000001</ele>
        <time>2019-01-06T14:28:36Z</time>
      </trkpt>
      <trkpt lat="46.192851103842258" lon="8.966298848390579">
        <ele>1070.5699999999999</ele>
        <time>2019-01-06T14:28:44Z</time>
      </trkpt>
      <trkpt lat="46.192788407206535" lon="8.966455589979887">
        <ele>1070.0799999999999</ele>
        <time>2019-01-06T14:28:56Z</time>
      </trkpt>
      <trkpt lat="46.192742977291346" lon="8.966547455638647">
        <ele>1066.72</ele>
        <time>2019-01-06T14:29:05Z</time>
      </trkpt>
      <trkpt lat="46.192711796611547" lon="8.966603698208928">
        <ele>1066.72</ele>
        <time>2019-01-06T14:29:10Z</time>
      </trkpt>
      <trkpt lat="46.192668378353119" lon="8.966674776747823">
        <ele>1067.6800000000001</ele>
        <time>2019-01-06T14:29:16Z</time>
      </trkpt>
      <trkpt lat="46.192602664232254" lon="8.966765385121107">
        <ele>1065.28</ele>
        <time>2019-01-06T14:29:25Z</time>
      </trkpt>
      <trkpt lat="46.192543404176831" lon="8.96685054525733">
        <ele>1063.8399999999999</ele>
        <time>2019-01-06T14:29:34Z</time>
      </trkpt>
      <trkpt lat="46.192468721419573" lon="8.966933945193887">
        <ele>1060.47</ele>
        <time>2019-01-06T14:29:43Z</time>
      </trkpt>
      <trkpt lat="46.192446257919073" lon="8.966978620737791">
        <ele>1058.55</ele>
        <time>2019-01-06T14:29:46Z</time>
      </trkpt>
      <trkpt lat="46.192454388365149" lon="8.966980129480362">
        <ele>1057.5899999999999</ele>
        <time>2019-01-06T14:29:57Z</time>
      </trkpt>
      <trkpt lat="46.192530831322074" lon="8.966949367895722">
        <ele>1056.6300000000001</ele>
        <time>2019-01-06T14:30:07Z</time>
      </trkpt>
      <trkpt lat="46.192620601505041" lon="8.96695364266634">
        <ele>1055.1800000000001</ele>
        <time>2019-01-06T14:30:17Z</time>
      </trkpt>
      <trkpt lat="46.192665528506041" lon="8.966934448108077">
        <ele>1051.3399999999999</ele>
        <time>2019-01-06T14:30:25Z</time>
      </trkpt>
      <trkpt lat="46.192709030583501" lon="8.966971077024937">
        <ele>1051.3399999999999</ele>
        <time>2019-01-06T14:30:32Z</time>
      </trkpt>
      <trkpt lat="46.19276275858283" lon="8.966979626566172">
        <ele>1047.97</ele>
        <time>2019-01-06T14:30:41Z</time>
      </trkpt>
      <trkpt lat="46.192786395549774" lon="8.966955486685038">
        <ele>1051.3399999999999</ele>
        <time>2019-01-06T14:30:45Z</time>
      </trkpt>
      <trkpt lat="46.192798800766468" lon="8.96694241091609">
        <ele>1047.49</ele>
        <time>2019-01-06T14:30:47Z</time>
      </trkpt>
      <trkpt lat="46.192763848230243" lon="8.967018099501729">
        <ele>1048.9400000000001</ele>
        <time>2019-01-06T14:30:53Z</time>
      </trkpt>
      <trkpt lat="46.192745743319392" lon="8.967049615457654">
        <ele>1045.5699999999999</ele>
        <time>2019-01-06T14:30:56Z</time>
      </trkpt>
      <trkpt lat="46.192710036411881" lon="8.967117005959153">
        <ele>1042.6900000000001</ele>
        <time>2019-01-06T14:31:02Z</time>
      </trkpt>
      <trkpt lat="46.192646501585841" lon="8.967194203287363">
        <ele>1041.25</ele>
        <time>2019-01-06T14:31:13Z</time>
      </trkpt>
      <trkpt lat="46.192640718072653" lon="8.967236280441284">
        <ele>1037.8800000000001</ele>
        <time>2019-01-06T14:31:19Z</time>
      </trkpt>
      <trkpt lat="46.192639209330082" lon="8.967248098924756">
        <ele>1037.8800000000001</ele>
        <time>2019-01-06T14:31:20Z</time>
      </trkpt>
      <trkpt lat="46.192613644525409" lon="8.967297971248627">
        <ele>1034.04</ele>
        <time>2019-01-06T14:31:25Z</time>
      </trkpt>
      <trkpt lat="46.192604256793857" lon="8.96731423214078">
        <ele>1033.0699999999999</ele>
        <time>2019-01-06T14:31:27Z</time>
      </trkpt>
      <trkpt lat="46.19257852435112" lon="8.967356560751796">
        <ele>1030.6700000000001</ele>
        <time>2019-01-06T14:31:33Z</time>
      </trkpt>
      <trkpt lat="46.192558743059635" lon="8.967436859384179">
        <ele>1030.1900000000001</ele>
        <time>2019-01-06T14:31:42Z</time>
      </trkpt>
      <trkpt lat="46.192563688382506" lon="8.967517744749785">
        <ele>1028.75</ele>
        <time>2019-01-06T14:31:51Z</time>
      </trkpt>
      <trkpt lat="46.192551031708717" lon="8.967577759176493">
        <ele>1027.79</ele>
        <time>2019-01-06T14:31:57Z</time>
      </trkpt>
      <trkpt lat="46.192527478560805" lon="8.967649172991514">
        <ele>1028.75</ele>
        <time>2019-01-06T14:32:03Z</time>
      </trkpt>
      <trkpt lat="46.192497387528419" lon="8.967726118862629">
        <ele>1027.3099999999999</ele>
        <time>2019-01-06T14:32:08Z</time>
      </trkpt>
      <trkpt lat="46.19246955960989" lon="8.967774230986834">
        <ele>1027.79</ele>
        <time>2019-01-06T14:32:14Z</time>
      </trkpt>
      <trkpt lat="46.192433936521411" lon="8.967916304245591">
        <ele>1024.9000000000001</ele>
        <time>2019-01-06T14:32:26Z</time>
      </trkpt>
      <trkpt lat="46.192429829388857" lon="8.967930050566793">
        <ele>1024.9000000000001</ele>
        <time>2019-01-06T14:32:27Z</time>
      </trkpt>
      <trkpt lat="46.192385405302048" lon="8.968018814921379">
        <ele>1022.5</ele>
        <time>2019-01-06T14:32:37Z</time>
      </trkpt>
      <trkpt lat="46.192363444715738" lon="8.968078661710024">
        <ele>1024.9000000000001</ele>
        <time>2019-01-06T14:32:43Z</time>
      </trkpt>
      <trkpt lat="46.192358834668994" lon="8.968109842389822">
        <ele>1020.58</ele>
        <time>2019-01-06T14:32:46Z</time>
      </trkpt>
      <trkpt lat="46.192297982051969" lon="8.968203300610185">
        <ele>1018.17</ele>
        <time>2019-01-06T14:32:57Z</time>
      </trkpt>
      <trkpt lat="46.192222042009234" lon="8.968326011672616">
        <ele>1018.17</ele>
        <time>2019-01-06T14:33:08Z</time>
      </trkpt>
      <trkpt lat="46.19217443279922" lon="8.968386529013515">
        <ele>1017.21</ele>
        <time>2019-01-06T14:33:17Z</time>
      </trkpt>
      <trkpt lat="46.192139396443963" lon="8.9684425201267">
        <ele>1016.25</ele>
        <time>2019-01-06T14:33:27Z</time>
      </trkpt>
      <trkpt lat="46.192136378958821" lon="8.968455428257585">
        <ele>1015.29</ele>
        <time>2019-01-06T14:33:29Z</time>
      </trkpt>
      <trkpt lat="46.192100755870342" lon="8.968499349430203">
        <ele>1014.33</ele>
        <time>2019-01-06T14:33:37Z</time>
      </trkpt>
      <trkpt lat="46.192085836082697" lon="8.968525249511004">
        <ele>1010.96</ele>
        <time>2019-01-06T14:33:42Z</time>
      </trkpt>
      <trkpt lat="46.192073347046971" lon="8.968535559251905">
        <ele>1007.6</ele>
        <time>2019-01-06T14:33:48Z</time>
      </trkpt>
      <trkpt lat="46.192110059782863" lon="8.968517957255244">
        <ele>1005.2</ele>
        <time>2019-01-06T14:33:55Z</time>
      </trkpt>
      <trkpt lat="46.192116513848305" lon="8.968594735488296">
        <ele>1005.6799999999999</ele>
        <time>2019-01-06T14:34:04Z</time>
      </trkpt>
      <trkpt lat="46.192070748656988" lon="8.968669669702649">
        <ele>1003.75</ele>
        <time>2019-01-06T14:34:14Z</time>
      </trkpt>
      <trkpt lat="46.192051637917757" lon="8.968737060204148">
        <ele>1004.23</ele>
        <time>2019-01-06T14:34:23Z</time>
      </trkpt>
      <trkpt lat="46.192026492208242" lon="8.968800427392125">
        <ele>1003.75</ele>
        <time>2019-01-06T14:34:31Z</time>
      </trkpt>
      <trkpt lat="46.192015931010246" lon="8.968816269189119">
        <ele>999.90999999999997</ele>
        <time>2019-01-06T14:34:33Z</time>
      </trkpt>
      <trkpt lat="46.191999921575189" lon="8.968843510374427">
        <ele>996.53999999999996</ele>
        <time>2019-01-06T14:34:39Z</time>
      </trkpt>
      <trkpt lat="46.192008135840297" lon="8.968851557001472">
        <ele>993.17999999999995</ele>
        <time>2019-01-06T14:34:41Z</time>
      </trkpt>
      <trkpt lat="46.19201710447669" lon="8.968844683840871">
        <ele>992.70000000000005</ele>
        <time>2019-01-06T14:34:43Z</time>
      </trkpt>
      <trkpt lat="46.192025821655989" lon="8.96882900968194">
        <ele>993.17999999999995</ele>
        <time>2019-01-06T14:34:45Z</time>
      </trkpt>
      <trkpt lat="46.192040406167507" lon="8.968872427940369">
        <ele>993.17999999999995</ele>
        <time>2019-01-06T14:34:50Z</time>
      </trkpt>
      <trkpt lat="46.192022552713752" lon="8.968933196738362">
        <ele>994.13999999999999</ele>
        <time>2019-01-06T14:34:57Z</time>
      </trkpt>
      <trkpt lat="46.192039484158158" lon="8.968961192294955">
        <ele>999.42999999999995</ele>
        <time>2019-01-06T14:35:06Z</time>
      </trkpt>
      <trkpt lat="46.192057840526104" lon="8.968942333012819">
        <ele>995.58000000000004</ele>
        <time>2019-01-06T14:35:08Z</time>
      </trkpt>
      <trkpt lat="46.192096397280693" lon="8.968924395740032">
        <ele>992.70000000000005</ele>
        <time>2019-01-06T14:35:12Z</time>
      </trkpt>
      <trkpt lat="46.192123806104064" lon="8.968941830098629">
        <ele>992.22000000000003</ele>
        <time>2019-01-06T14:35:16Z</time>
      </trkpt>
      <trkpt lat="46.192151382565498" lon="8.96896144375205">
        <ele>992.70000000000005</ele>
        <time>2019-01-06T14:35:20Z</time>
      </trkpt>
      <trkpt lat="46.192178372293711" lon="8.968947865068913">
        <ele>988.85000000000002</ele>
        <time>2019-01-06T14:35:26Z</time>
      </trkpt>
      <trkpt lat="46.19219396263361" lon="8.968929257243872">
        <ele>985.49000000000001</ele>
        <time>2019-01-06T14:35:28Z</time>
      </trkpt>
      <trkpt lat="46.192210558801889" lon="8.96891257725656">
        <ele>985.00999999999999</ele>
        <time>2019-01-06T14:35:30Z</time>
      </trkpt>
      <trkpt lat="46.192227490246296" lon="8.968902686610818">
        <ele>985.97000000000003</ele>
        <time>2019-01-06T14:35:34Z</time>
      </trkpt>
      <trkpt lat="46.192234279587865" lon="8.968904279172421">
        <ele>982.60000000000002</ele>
        <time>2019-01-06T14:35:35Z</time>
      </trkpt>
      <trkpt lat="46.192237045615911" lon="8.968902267515659">
        <ele>984.04999999999995</ele>
        <time>2019-01-06T14:35:36Z</time>
      </trkpt>
      <trkpt lat="46.192232351750135" lon="8.968989606946707">
        <ele>984.04999999999995</ele>
        <time>2019-01-06T14:35:47Z</time>
      </trkpt>
      <trkpt lat="46.192206619307399" lon="8.969066133722663">
        <ele>982.12</ele>
        <time>2019-01-06T14:35:56Z</time>
      </trkpt>
      <trkpt lat="46.192171918228269" lon="8.969126651063561">
        <ele>978.27999999999997</ele>
        <time>2019-01-06T14:36:05Z</time>
      </trkpt>
      <trkpt lat="46.19216077029705" lon="8.969207284972072">
        <ele>976.84000000000003</ele>
        <time>2019-01-06T14:36:14Z</time>
      </trkpt>
      <trkpt lat="46.192140486091375" lon="8.969274926930666">
        <ele>973.47000000000003</ele>
        <time>2019-01-06T14:36:23Z</time>
      </trkpt>
      <trkpt lat="46.192158674821258" lon="8.969357907772064">
        <ele>971.54999999999995</ele>
        <time>2019-01-06T14:36:34Z</time>
      </trkpt>
      <trkpt lat="46.192164877429605" lon="8.969411384314299">
        <ele>968.66999999999996</ele>
        <time>2019-01-06T14:36:40Z</time>
      </trkpt>
      <trkpt lat="46.192169236019254" lon="8.969504088163376">
        <ele>967.22000000000003</ele>
        <time>2019-01-06T14:36:51Z</time>
      </trkpt>
      <trkpt lat="46.192163368687034" lon="8.969532502815127">
        <ele>963.86000000000001</ele>
        <time>2019-01-06T14:36:54Z</time>
      </trkpt>
      <trkpt lat="46.192158507183194" lon="8.969543734565377">
        <ele>963.86000000000001</ele>
        <time>2019-01-06T14:36:55Z</time>
      </trkpt>
      <trkpt lat="46.192172421142459" lon="8.969624033197761">
        <ele>962.41999999999996</ele>
        <time>2019-01-06T14:37:02Z</time>
      </trkpt>
      <trkpt lat="46.19216077029705" lon="8.969840286299586">
        <ele>964.34000000000003</ele>
        <time>2019-01-06T14:37:16Z</time>
      </trkpt>
      <trkpt lat="46.192165799438953" lon="8.969901641830802">
        <ele>965.29999999999995</ele>
        <time>2019-01-06T14:37:20Z</time>
      </trkpt>
      <trkpt lat="46.192161608487368" lon="8.970126612111926">
        <ele>963.38</ele>
        <time>2019-01-06T14:37:35Z</time>
      </trkpt>
      <trkpt lat="46.192129170522094" lon="8.970230966806412">
        <ele>960.49000000000001</ele>
        <time>2019-01-06T14:37:44Z</time>
      </trkpt>
      <trkpt lat="46.192090027034283" lon="8.970331130549312">
        <ele>960.98000000000002</ele>
        <time>2019-01-06T14:37:53Z</time>
      </trkpt>
      <trkpt lat="46.192041831091046" lon="8.970452165231109">
        <ele>961.46000000000004</ele>
        <time>2019-01-06T14:38:04Z</time>
      </trkpt>
      <trkpt lat="46.192017188295722" lon="8.970490889623761">
        <ele>957.61000000000001</ele>
        <time>2019-01-06T14:38:08Z</time>
      </trkpt>
      <trkpt lat="46.192011907696724" lon="8.970492817461491">
        <ele>957.61000000000001</ele>
        <time>2019-01-06T14:38:09Z</time>
      </trkpt>
      <trkpt lat="46.191942086443305" lon="8.970523411408067">
        <ele>956.64999999999998</ele>
        <time>2019-01-06T14:38:18Z</time>
      </trkpt>
      <trkpt lat="46.19187536649406" lon="8.970541013404727">
        <ele>955.69000000000005</ele>
        <time>2019-01-06T14:38:28Z</time>
      </trkpt>
      <trkpt lat="46.191866565495729" lon="8.970545874908567">
        <ele>955.69000000000005</ele>
        <time>2019-01-06T14:38:29Z</time>
      </trkpt>
      <trkpt lat="46.191845778375864" lon="8.970543444156647">
        <ele>954.73000000000002</ele>
        <time>2019-01-06T14:38:31Z</time>
      </trkpt>
      <trkpt lat="46.191754583269358" lon="8.970487453043461">
        <ele>956.16999999999996</ele>
        <time>2019-01-06T14:38:41Z</time>
      </trkpt>
      <trkpt lat="46.191679565235972" lon="8.970544617623091">
        <ele>955.69000000000005</ele>
        <time>2019-01-06T14:38:51Z</time>
      </trkpt>
      <trkpt lat="46.191601781174541" lon="8.970603961497545">
        <ele>955.21000000000004</ele>
        <time>2019-01-06T14:39:00Z</time>
      </trkpt>
      <trkpt lat="46.191586861386895" lon="8.970617707818747">
        <ele>955.21000000000004</ele>
        <time>2019-01-06T14:39:02Z</time>
      </trkpt>
      <trkpt lat="46.191514441743493" lon="8.970689792186022">
        <ele>952.32000000000005</ele>
        <time>2019-01-06T14:39:11Z</time>
      </trkpt>
      <trkpt lat="46.191508825868368" lon="8.970698257908225">
        <ele>952.32000000000005</ele>
        <time>2019-01-06T14:39:12Z</time>
      </trkpt>
      <trkpt lat="46.191485021263361" lon="8.970732288435102">
        <ele>954.73000000000002</ele>
        <time>2019-01-06T14:39:16Z</time>
      </trkpt>
      <trkpt lat="46.191458366811275" lon="8.970765480771661">
        <ele>952.32000000000005</ele>
        <time>2019-01-06T14:39:19Z</time>
      </trkpt>
      <trkpt lat="46.191422659903765" lon="8.97080403752625">
        <ele>952.79999999999995</ele>
        <time>2019-01-06T14:39:24Z</time>
      </trkpt>
      <trkpt lat="46.191379660740495" lon="8.970949044451118">
        <ele>952.79999999999995</ele>
        <time>2019-01-06T14:39:33Z</time>
      </trkpt>
      <trkpt lat="46.191322831436992" lon="8.971037305891514">
        <ele>953.27999999999997</ele>
        <time>2019-01-06T14:39:42Z</time>
      </trkpt>
      <trkpt lat="46.191304642707109" lon="8.971075443550944">
        <ele>950.88</ele>
        <time>2019-01-06T14:39:45Z</time>
      </trkpt>
      <trkpt lat="46.191289303824306" lon="8.971111234277487">
        <ele>953.76999999999998</ele>
        <time>2019-01-06T14:39:48Z</time>
      </trkpt>
      <trkpt lat="46.191267343237996" lon="8.971153814345598">
        <ele>953.76999999999998</ele>
        <time>2019-01-06T14:39:53Z</time>
      </trkpt>
      <trkpt lat="46.191227864474058" lon="8.971220115199685">
        <ele>950.39999999999998</ele>
        <time>2019-01-06T14:40:00Z</time>
      </trkpt>
      <trkpt lat="46.191218225285411" lon="8.971215672791004">
        <ele>950.88</ele>
        <time>2019-01-06T14:40:01Z</time>
      </trkpt>
      <trkpt lat="46.19115368463099" lon="8.971170578151941">
        <ele>952.79999999999995</ele>
        <time>2019-01-06T14:40:11Z</time>
      </trkpt>
      <trkpt lat="46.19115368463099" lon="8.971151551231742">
        <ele>950.39999999999998</ele>
        <time>2019-01-06T14:40:15Z</time>
      </trkpt>
      <trkpt lat="46.191142117604613" lon="8.971133781597018">
        <ele>951.84000000000003</ele>
        <time>2019-01-06T14:40:18Z</time>
      </trkpt>
      <trkpt lat="46.191123593598604" lon="8.971110479906201">
        <ele>950.39999999999998</ele>
        <time>2019-01-06T14:40:21Z</time>
      </trkpt>
      <trkpt lat="46.191111104562879" lon="8.971088351681829">
        <ele>948.96000000000004</ele>
        <time>2019-01-06T14:40:24Z</time>
      </trkpt>
      <trkpt lat="46.191088557243347" lon="8.971071671694517">
        <ele>945.11000000000001</ele>
        <time>2019-01-06T14:40:28Z</time>
      </trkpt>
      <trkpt lat="46.191084701567888" lon="8.971066977828741">
        <ele>945.11000000000001</ele>
        <time>2019-01-06T14:40:29Z</time>
      </trkpt>
      <trkpt lat="46.191035080701113" lon="8.971112072467804">
        <ele>945.59000000000003</ele>
        <time>2019-01-06T14:40:39Z</time>
      </trkpt>
      <trkpt lat="46.190984705463052" lon="8.971094638109207">
        <ele>941.75</ele>
        <time>2019-01-06T14:40:46Z</time>
      </trkpt>
      <trkpt lat="46.19097925722599" lon="8.971085250377655">
        <ele>942.23000000000002</ele>
        <time>2019-01-06T14:40:47Z</time>
      </trkpt>
      <trkpt lat="46.190906669944525" lon="8.971102768555284">
        <ele>939.35000000000002</ele>
        <time>2019-01-06T14:40:57Z</time>
      </trkpt>
      <trkpt lat="46.190893342718482" lon="8.971109641715884">
        <ele>938.38</ele>
        <time>2019-01-06T14:40:59Z</time>
      </trkpt>
      <trkpt lat="46.190874734893441" lon="8.971121879294515">
        <ele>936.46000000000004</ele>
        <time>2019-01-06T14:41:02Z</time>
      </trkpt>
      <trkpt lat="46.190851852297783" lon="8.971150210127235">
        <ele>934.05999999999995</ele>
        <time>2019-01-06T14:41:06Z</time>
      </trkpt>
      <trkpt lat="46.190774152055383" lon="8.971189437434077">
        <ele>932.62</ele>
        <time>2019-01-06T14:41:17Z</time>
      </trkpt>
      <trkpt lat="46.19074615649879" lon="8.971145767718554">
        <ele>935.98000000000002</ele>
        <time>2019-01-06T14:41:24Z</time>
      </trkpt>
      <trkpt lat="46.190745150670409" lon="8.971141409128904">
        <ele>935.5</ele>
        <time>2019-01-06T14:41:25Z</time>
      </trkpt>
      <trkpt lat="46.190743893384933" lon="8.971132859587669">
        <ele>935.01999999999998</ele>
        <time>2019-01-06T14:41:26Z</time>
      </trkpt>
      <trkpt lat="46.190739115700126" lon="8.971077706664801">
        <ele>930.69000000000005</ele>
        <time>2019-01-06T14:41:32Z</time>
      </trkpt>
      <trkpt lat="46.190670635551214" lon="8.971038227900863">
        <ele>929.73000000000002</ele>
        <time>2019-01-06T14:41:42Z</time>
      </trkpt>
      <trkpt lat="46.190641382709146" lon="8.971107881516218">
        <ele>927.80999999999995</ele>
        <time>2019-01-06T14:41:51Z</time>
      </trkpt>
      <trkpt lat="46.190628306940198" lon="8.971142331138253">
        <ele>925.40999999999997</ele>
        <time>2019-01-06T14:41:59Z</time>
      </trkpt>
      <trkpt lat="46.190597964450717" lon="8.971171332523227">
        <ele>924.45000000000005</ele>
        <time>2019-01-06T14:42:12Z</time>
      </trkpt>
      <trkpt lat="46.19056879542768" lon="8.971172757446766">
        <ele>922.03999999999996</ele>
        <time>2019-01-06T14:42:21Z</time>
      </trkpt>
      <trkpt lat="46.190506517887115" lon="8.971242997795343">
        <ele>918.67999999999995</ele>
        <time>2019-01-06T14:42:32Z</time>
      </trkpt>
      <trkpt lat="46.190503668040037" lon="8.971266634762287">
        <ele>920.60000000000002</ele>
        <time>2019-01-06T14:42:45Z</time>
      </trkpt>
      <trkpt lat="46.190507942810655" lon="8.971278285607696">
        <ele>920.12</ele>
        <time>2019-01-06T14:42:53Z</time>
      </trkpt>
      <trkpt lat="46.190506685525179" lon="8.971291361376643">
        <ele>921.08000000000004</ele>
        <time>2019-01-06T14:43:01Z</time>
      </trkpt>
      <trkpt lat="46.190491262823343" lon="8.97128239274025">
        <ele>921.55999999999995</ele>
        <time>2019-01-06T14:43:12Z</time>
      </trkpt>
      <trkpt lat="46.190493106842041" lon="8.971268897876144">
        <ele>918.20000000000005</ele>
        <time>2019-01-06T14:43:17Z</time>
      </trkpt>
      <trkpt lat="46.190492687746882" lon="8.971267472952604">
        <ele>916.75</ele>
        <time>2019-01-06T14:43:19Z</time>
      </trkpt>
      <trkpt lat="46.190474415197968" lon="8.971279542893171">
        <ele>920.12</ele>
        <time>2019-01-06T14:43:30Z</time>
      </trkpt>
      <trkpt lat="46.190489586442709" lon="8.9712780341506">
        <ele>919.15999999999997</ele>
        <time>2019-01-06T14:43:44Z</time>
      </trkpt>
      <trkpt lat="46.190477013587952" lon="8.971295719966292">
        <ele>920.60000000000002</ele>
        <time>2019-01-06T14:43:59Z</time>
      </trkpt>
      <trkpt lat="46.190469637513161" lon="8.971284488216043">
        <ele>923.96000000000004</ele>
        <time>2019-01-06T14:44:09Z</time>
      </trkpt>
      <trkpt lat="46.190473577007651" lon="8.971253894269466">
        <ele>923.96000000000004</ele>
        <time>2019-01-06T14:44:25Z</time>
      </trkpt>
      <trkpt lat="46.190468715503812" lon="8.971253139898181">
        <ele>920.12</ele>
        <time>2019-01-06T14:44:31Z</time>
      </trkpt>
      <trkpt lat="46.190475756302476" lon="8.971240483224392">
        <ele>922.51999999999998</ele>
        <time>2019-01-06T14:44:47Z</time>
      </trkpt>
      <trkpt lat="46.190487742424011" lon="8.971259510144591">
        <ele>919.63999999999999</ele>
        <time>2019-01-06T14:45:04Z</time>
      </trkpt>
      <trkpt lat="46.190484138205647" lon="8.971256408840418">
        <ele>922.51999999999998</ele>
        <time>2019-01-06T14:45:18Z</time>
      </trkpt>
      <trkpt lat="46.190488999709487" lon="8.971251547336578">
        <ele>926.85000000000002</ele>
        <time>2019-01-06T14:45:20Z</time>
      </trkpt>
      <trkpt lat="46.190491514280438" lon="8.971245847642422">
        <ele>927.80999999999995</ele>
        <time>2019-01-06T14:45:22Z</time>
      </trkpt>
      <trkpt lat="46.190498219802976" lon="8.971215253695846">
        <ele>926.37</ele>
        <time>2019-01-06T14:45:33Z</time>
      </trkpt>
      <trkpt lat="46.19052043184638" lon="8.971219277009368">
        <ele>925.40999999999997</ele>
        <time>2019-01-06T14:45:39Z</time>
      </trkpt>
      <trkpt lat="46.190526131540537" lon="8.971231430768967">
        <ele>928.28999999999996</ele>
        <time>2019-01-06T14:45:44Z</time>
      </trkpt>
      <trkpt lat="46.190535519272089" lon="8.971222629770637">
        <ele>923.96000000000004</ele>
        <time>2019-01-06T14:45:47Z</time>
      </trkpt>
      <trkpt lat="46.190530825406313" lon="8.971248781308532">
        <ele>921.08000000000004</ele>
        <time>2019-01-06T14:45:57Z</time>
      </trkpt>
      <trkpt lat="46.190524538978934" lon="8.971250960603356">
        <ele>922.51999999999998</ele>
        <time>2019-01-06T14:46:02Z</time>
      </trkpt>
      <trkpt lat="46.190520767122507" lon="8.971310388296843">
        <ele>921.08000000000004</ele>
        <time>2019-01-06T14:46:09Z</time>
      </trkpt>
      <trkpt lat="46.19051406159997" lon="8.971360260620713">
        <ele>916.26999999999998</ele>
        <time>2019-01-06T14:46:12Z</time>
      </trkpt>
      <trkpt lat="46.190513726323843" lon="8.971376018598676">
        <ele>916.75</ele>
        <time>2019-01-06T14:46:13Z</time>
      </trkpt>
      <trkpt lat="46.190515151247382" lon="8.971393620595336">
        <ele>917.72000000000003</ele>
        <time>2019-01-06T14:46:14Z</time>
      </trkpt>
      <trkpt lat="46.190515318885446" lon="8.971477607265115">
        <ele>917.72000000000003</ele>
        <time>2019-01-06T14:46:26Z</time>
      </trkpt>
      <trkpt lat="46.190516743808985" lon="8.971468135714531">
        <ele>921.08000000000004</ele>
        <time>2019-01-06T14:46:38Z</time>
      </trkpt>
      <trkpt lat="46.190516827628016" lon="8.971462771296501">
        <ele>922.03999999999996</ele>
        <time>2019-01-06T14:46:40Z</time>
      </trkpt>
      <trkpt lat="46.190488412976265" lon="8.971526557579637">
        <ele>923.48000000000002</ele>
        <time>2019-01-06T14:46:54Z</time>
      </trkpt>
      <trkpt lat="46.190495369955897" lon="8.971486492082477">
        <ele>921.55999999999995</ele>
        <time>2019-01-06T14:47:02Z</time>
      </trkpt>
      <trkpt lat="46.190474499017" lon="8.971491688862443">
        <ele>921.55999999999995</ele>
        <time>2019-01-06T14:47:14Z</time>
      </trkpt>
      <trkpt lat="46.190475421026349" lon="8.971488755196333">
        <ele>921.55999999999995</ele>
        <time>2019-01-06T14:47:25Z</time>
      </trkpt>
      <trkpt lat="46.190501321107149" lon="8.971475092694163">
        <ele>920.12</ele>
        <time>2019-01-06T14:47:44Z</time>
      </trkpt>
      <trkpt lat="46.190514396876097" lon="8.971484983339906">
        <ele>918.20000000000005</ele>
        <time>2019-01-06T14:48:00Z</time>
      </trkpt>
      <trkpt lat="46.190554881468415" lon="8.971518762409687">
        <ele>918.20000000000005</ele>
        <time>2019-01-06T14:48:18Z</time>
      </trkpt>
      <trkpt lat="46.19053510017693" lon="8.971465872600675">
        <ele>919.15999999999997</ele>
        <time>2019-01-06T14:48:38Z</time>
      </trkpt>
      <trkpt lat="46.190497633069754" lon="8.971504345536232">
        <ele>917.24000000000001</ele>
        <time>2019-01-06T14:48:55Z</time>
      </trkpt>
      <trkpt lat="46.190491179004312" lon="8.971493532881141">
        <ele>917.72000000000003</ele>
        <time>2019-01-06T14:49:10Z</time>
      </trkpt>
      <trkpt lat="46.190519593656063" lon="8.971487665548921">
        <ele>918.20000000000005</ele>
        <time>2019-01-06T14:49:29Z</time>
      </trkpt>
      <trkpt lat="46.19051992893219" lon="8.971483893692493">
        <ele>922.03999999999996</ele>
        <time>2019-01-06T14:49:38Z</time>
      </trkpt>
      <trkpt lat="46.190520850941539" lon="8.971482468768954">
        <ele>922.51999999999998</ele>
        <time>2019-01-06T14:49:40Z</time>
      </trkpt>
      <trkpt lat="46.190487490966916" lon="8.971412898972631">
        <ele>922.03999999999996</ele>
        <time>2019-01-06T14:49:51Z</time>
      </trkpt>
      <trkpt lat="46.190468464046717" lon="8.971331175416708">
        <ele>920.60000000000002</ele>
        <time>2019-01-06T14:50:00Z</time>
      </trkpt>
      <trkpt lat="46.190457651391625" lon="8.971306448802352">
        <ele>921.08000000000004</ele>
        <time>2019-01-06T14:50:08Z</time>
      </trkpt>
      <trkpt lat="46.190407946705818" lon="8.971232688054442">
        <ele>922.51999999999998</ele>
        <time>2019-01-06T14:50:22Z</time>
      </trkpt>
      <trkpt lat="46.190418088808656" lon="8.971276357769966">
        <ele>922.03999999999996</ele>
        <time>2019-01-06T14:50:35Z</time>
      </trkpt>
      <trkpt lat="46.19044616818428" lon="8.971258001402021">
        <ele>925.40999999999997</ele>
        <time>2019-01-06T14:50:49Z</time>
      </trkpt>
      <trkpt lat="46.190447928383946" lon="8.971238723024726">
        <ele>923.96000000000004</ele>
        <time>2019-01-06T14:51:07Z</time>
      </trkpt>
      <trkpt lat="46.190451951697469" lon="8.971237633377314">
        <ele>921.08000000000004</ele>
        <time>2019-01-06T14:51:20Z</time>
      </trkpt>
      <trkpt lat="46.190406354144216" lon="8.971294043585658">
        <ele>919.63999999999999</ele>
        <time>2019-01-06T14:51:30Z</time>
      </trkpt>
      <trkpt lat="46.190399145707488" lon="8.971233945339918">
        <ele>921.55999999999995</ele>
        <time>2019-01-06T14:51:43Z</time>
      </trkpt>
      <trkpt lat="46.190403252840042" lon="8.971277782693505">
        <ele>923.48000000000002</ele>
        <time>2019-01-06T14:51:54Z</time>
      </trkpt>
      <trkpt lat="46.190421944484115" lon="8.971253978088498">
        <ele>923.96000000000004</ele>
        <time>2019-01-06T14:52:08Z</time>
      </trkpt>
      <trkpt lat="46.190409287810326" lon="8.971256157383323">
        <ele>921.08000000000004</ele>
        <time>2019-01-06T14:52:18Z</time>
      </trkpt>
      <trkpt lat="46.190457735210657" lon="8.971183402463794">
        <ele>923</ele>
        <time>2019-01-06T14:52:27Z</time>
      </trkpt>
      <trkpt lat="46.190418172627687" lon="8.971207123249769">
        <ele>920.60000000000002</ele>
        <time>2019-01-06T14:52:35Z</time>
      </trkpt>
      <trkpt lat="46.190396463498473" lon="8.971172422170639">
        <ele>922.03999999999996</ele>
        <time>2019-01-06T14:52:52Z</time>
      </trkpt>
      <trkpt lat="46.190364444628358" lon="8.971178960055113">
        <ele>924.92999999999995</ele>
        <time>2019-01-06T14:53:00Z</time>
      </trkpt>
      <trkpt lat="46.190388919785619" lon="8.971190107986331">
        <ele>923</ele>
        <time>2019-01-06T14:53:06Z</time>
      </trkpt>
      <trkpt lat="46.190398391336203" lon="8.971167476847768">
        <ele>919.63999999999999</ele>
        <time>2019-01-06T14:53:15Z</time>
      </trkpt>
      <trkpt lat="46.190399564802647" lon="8.971162950620055">
        <ele>923</ele>
        <time>2019-01-06T14:53:19Z</time>
      </trkpt>
      <trkpt lat="46.190399816259742" lon="8.971161860972643">
        <ele>923.48000000000002</ele>
        <time>2019-01-06T14:53:21Z</time>
      </trkpt>
      <trkpt lat="46.190396379679441" lon="8.971163872629404">
        <ele>926.85000000000002</ele>
        <time>2019-01-06T14:53:29Z</time>
      </trkpt>
      <trkpt lat="46.190406186506152" lon="8.971166219562292">
        <ele>923.48000000000002</ele>
        <time>2019-01-06T14:53:40Z</time>
      </trkpt>
      <trkpt lat="46.190406605601311" lon="8.971162447705865">
        <ele>922.51999999999998</ele>
        <time>2019-01-06T14:53:42Z</time>
      </trkpt>
      <trkpt lat="46.190391518175602" lon="8.971146773546934">
        <ele>920.12</ele>
        <time>2019-01-06T14:53:58Z</time>
      </trkpt>
      <trkpt lat="46.190331419929862" lon="8.971183067187667">
        <ele>920.60000000000002</ele>
        <time>2019-01-06T14:54:11Z</time>
      </trkpt>
      <trkpt lat="46.190330749377608" lon="8.971209973096848">
        <ele>916.75</ele>
        <time>2019-01-06T14:54:17Z</time>
      </trkpt>
      <trkpt lat="46.190335443243384" lon="8.971172338351607">
        <ele>920.12</ele>
        <time>2019-01-06T14:54:25Z</time>
      </trkpt>
      <trkpt lat="46.190341645851731" lon="8.971244003623724">
        <ele>919.15999999999997</ele>
        <time>2019-01-06T14:54:33Z</time>
      </trkpt>
      <trkpt lat="46.190344579517841" lon="8.971243249252439">
        <ele>918.67999999999995</ele>
        <time>2019-01-06T14:54:34Z</time>
      </trkpt>
      <trkpt lat="46.190352626144886" lon="8.971241572871804">
        <ele>919.63999999999999</ele>
        <time>2019-01-06T14:54:39Z</time>
      </trkpt>
      <trkpt lat="46.190349692478776" lon="8.971241572871804">
        <ele>920.60000000000002</ele>
        <time>2019-01-06T14:54:41Z</time>
      </trkpt>
      <trkpt lat="46.190347094088793" lon="8.971240734681487">
        <ele>915.78999999999996</ele>
        <time>2019-01-06T14:54:43Z</time>
      </trkpt>
      <trkpt lat="46.190346088260412" lon="8.971239309757948">
        <ele>915.30999999999995</ele>
        <time>2019-01-06T14:54:44Z</time>
      </trkpt>
      <trkpt lat="46.190349021926522" lon="8.971242494881153">
        <ele>917.72000000000003</ele>
        <time>2019-01-06T14:54:49Z</time>
      </trkpt>
      <trkpt lat="46.190346842631698" lon="8.971252804622054">
        <ele>920.12</ele>
        <time>2019-01-06T14:54:53Z</time>
      </trkpt>
      <trkpt lat="46.190360672771931" lon="8.971254983916879">
        <ele>921.08000000000004</ele>
        <time>2019-01-06T14:55:19Z</time>
      </trkpt>
      <trkpt lat="46.190359331667423" lon="8.971262443810701">
        <ele>917.72000000000003</ele>
        <time>2019-01-06T14:55:28Z</time>
      </trkpt>
      <trkpt lat="46.190369054675102" lon="8.971242159605026">
        <ele>920.12</ele>
        <time>2019-01-06T14:55:39Z</time>
      </trkpt>
      <trkpt lat="46.190368719398975" lon="8.971240567043424">
        <ele>918.20000000000005</ele>
        <time>2019-01-06T14:55:43Z</time>
      </trkpt>
      <trkpt lat="46.190362852066755" lon="8.971267808228731">
        <ele>919.15999999999997</ele>
        <time>2019-01-06T14:56:08Z</time>
      </trkpt>
      <trkpt lat="46.190360337495804" lon="8.971262108534575">
        <ele>920.12</ele>
        <time>2019-01-06T14:56:28Z</time>
      </trkpt>
      <trkpt lat="46.190338712185621" lon="8.971269484609366">
        <ele>919.63999999999999</ele>
        <time>2019-01-06T14:56:51Z</time>
      </trkpt>
      <trkpt lat="46.190369054675102" lon="8.971275938674808">
        <ele>917.24000000000001</ele>
        <time>2019-01-06T14:57:14Z</time>
      </trkpt>
      <trkpt lat="46.19036603718996" lon="8.971247188746929">
        <ele>920.60000000000002</ele>
        <time>2019-01-06T14:57:31Z</time>
      </trkpt>
      <trkpt lat="46.190362013876438" lon="8.971235370263457">
        <ele>919.15999999999997</ele>
        <time>2019-01-06T14:57:56Z</time>
      </trkpt>
      <trkpt lat="46.190328653901815" lon="8.971238387748599">
        <ele>918.67999999999995</ele>
        <time>2019-01-06T14:58:23Z</time>
      </trkpt>
      <trkpt lat="46.190324798226357" lon="8.971220115199685">
        <ele>920.60000000000002</ele>
        <time>2019-01-06T14:58:30Z</time>
      </trkpt>
      <trkpt lat="46.190334018319845" lon="8.971199663355947">
        <ele>923.96000000000004</ele>
        <time>2019-01-06T14:58:33Z</time>
      </trkpt>
      <trkpt lat="46.190354218706489" lon="8.971186252310872">
        <ele>920.60000000000002</ele>
        <time>2019-01-06T14:58:48Z</time>
      </trkpt>
      <trkpt lat="46.190360840409994" lon="8.971182145178318">
        <ele>918.20000000000005</ele>
        <time>2019-01-06T14:58:51Z</time>
      </trkpt>
      <trkpt lat="46.190363019704819" lon="8.97116462700069">
        <ele>917.24000000000001</ele>
        <time>2019-01-06T14:59:08Z</time>
      </trkpt>
      <trkpt lat="46.190340053290129" lon="8.971133278682828">
        <ele>919.63999999999999</ele>
        <time>2019-01-06T14:59:27Z</time>
      </trkpt>
      <trkpt lat="46.190339298918843" lon="8.971140487119556">
        <ele>922.51999999999998</ele>
        <time>2019-01-06T14:59:38Z</time>
      </trkpt>
      <trkpt lat="46.190341226756573" lon="8.971140654757619">
        <ele>923</ele>
        <time>2019-01-06T14:59:39Z</time>
      </trkpt>
      <trkpt lat="46.190334185957909" lon="8.971126489341259">
        <ele>922.51999999999998</ele>
        <time>2019-01-06T14:59:53Z</time>
      </trkpt>
      <trkpt lat="46.190265538170934" lon="8.971192538738251">
        <ele>920.60000000000002</ele>
        <time>2019-01-06T15:00:03Z</time>
      </trkpt>
      <trkpt lat="46.190227400511503" lon="8.97125942632556">
        <ele>917.72000000000003</ele>
        <time>2019-01-06T15:00:13Z</time>
      </trkpt>
      <trkpt lat="46.190213151276112" lon="8.971268646419048">
        <ele>916.75</ele>
        <time>2019-01-06T15:00:15Z</time>
      </trkpt>
      <trkpt lat="46.190156154334545" lon="8.97129999473691">
        <ele>913.87</ele>
        <time>2019-01-06T15:00:25Z</time>
      </trkpt>
      <trkpt lat="46.190154142677784" lon="8.971283566206694">
        <ele>913.38999999999999</ele>
        <time>2019-01-06T15:00:26Z</time>
      </trkpt>
      <trkpt lat="46.190087422728539" lon="8.971272837370634">
        <ele>912.42999999999995</ele>
        <time>2019-01-06T15:00:36Z</time>
      </trkpt>
      <trkpt lat="46.190088847652078" lon="8.971372079104185">
        <ele>909.53999999999996</ele>
        <time>2019-01-06T15:00:47Z</time>
      </trkpt>
      <trkpt lat="46.190114831551909" lon="8.97149546071887">
        <ele>908.58000000000004</ele>
        <time>2019-01-06T15:00:59Z</time>
      </trkpt>
      <trkpt lat="46.190124386921525" lon="8.971551870927215">
        <ele>905.22000000000003</ele>
        <time>2019-01-06T15:01:06Z</time>
      </trkpt>
      <trkpt lat="46.190105024725199" lon="8.971676342189312">
        <ele>902.82000000000005</ele>
        <time>2019-01-06T15:01:17Z</time>
      </trkpt>
      <trkpt lat="46.190049536526203" lon="8.971666786819696">
        <ele>899.92999999999995</ele>
        <time>2019-01-06T15:01:23Z</time>
      </trkpt>
      <trkpt lat="46.189932776615024" lon="8.971601324155927">
        <ele>896.09000000000003</ele>
        <time>2019-01-06T15:01:37Z</time>
      </trkpt>
      <trkpt lat="46.189936297014356" lon="8.971721101552248">
        <ele>892.72000000000003</ele>
        <time>2019-01-06T15:01:46Z</time>
      </trkpt>
      <trkpt lat="46.189860105514526" lon="8.971675168722868">
        <ele>892.24000000000001</ele>
        <time>2019-01-06T15:01:56Z</time>
      </trkpt>
      <trkpt lat="46.189776957035065" lon="8.971611047163606">
        <ele>892.24000000000001</ele>
        <time>2019-01-06T15:02:07Z</time>
      </trkpt>
      <trkpt lat="46.18971074000001" lon="8.971546674147248">
        <ele>890.79999999999995</ele>
        <time>2019-01-06T15:02:18Z</time>
      </trkpt>
      <trkpt lat="46.189674278721213" lon="8.971566371619701">
        <ele>887.42999999999995</ele>
        <time>2019-01-06T15:02:23Z</time>
      </trkpt>
      <trkpt lat="46.189652988687158" lon="8.971457239240408">
        <ele>886.95000000000005</ele>
        <time>2019-01-06T15:02:33Z</time>
      </trkpt>
      <trkpt lat="46.18962918408215" lon="8.971403343603015">
        <ele>884.07000000000005</ele>
        <time>2019-01-06T15:02:42Z</time>
      </trkpt>
      <trkpt lat="46.189575623720884" lon="8.971482384949923">
        <ele>882.63</ele>
        <time>2019-01-06T15:02:54Z</time>
      </trkpt>
      <trkpt lat="46.189536480233073" lon="8.971529826521874">
        <ele>878.77999999999997</ele>
        <time>2019-01-06T15:03:01Z</time>
      </trkpt>
      <trkpt lat="46.189508233219385" lon="8.971590427681804">
        <ele>876.86000000000001</ele>
        <time>2019-01-06T15:03:10Z</time>
      </trkpt>
      <trkpt lat="46.189464647322893" lon="8.971482301130891">
        <ele>874.94000000000005</ele>
        <time>2019-01-06T15:03:20Z</time>
      </trkpt>
      <trkpt lat="46.189432125538588" lon="8.971386244520545">
        <ele>872.52999999999997</ele>
        <time>2019-01-06T15:03:30Z</time>
      </trkpt>
      <trkpt lat="46.189425587654114" lon="8.971315668895841">
        <ele>871.09000000000003</ele>
        <time>2019-01-06T15:03:39Z</time>
      </trkpt>
      <trkpt lat="46.189397256821394" lon="8.971280632540584">
        <ele>869.64999999999998</ele>
        <time>2019-01-06T15:03:49Z</time>
      </trkpt>
      <trkpt lat="46.189380493015051" lon="8.97129513323307">
        <ele>869.16999999999996</ele>
        <time>2019-01-06T15:04:00Z</time>
      </trkpt>
      <trkpt lat="46.189388204365969" lon="8.971338886767626">
        <ele>869.16999999999996</ele>
        <time>2019-01-06T15:04:18Z</time>
      </trkpt>
      <trkpt lat="46.189335230737925" lon="8.971363445743918">
        <ele>869.16999999999996</ele>
        <time>2019-01-06T15:04:33Z</time>
      </trkpt>
      <trkpt lat="46.189358364790678" lon="8.971284152939916">
        <ele>869.16999999999996</ele>
        <time>2019-01-06T15:04:43Z</time>
      </trkpt>
      <trkpt lat="46.189333805814385" lon="8.971251798793674">
        <ele>869.16999999999996</ele>
        <time>2019-01-06T15:04:55Z</time>
      </trkpt>
      <trkpt lat="46.189341265708208" lon="8.97120226174593">
        <ele>869.16999999999996</ele>
        <time>2019-01-06T15:05:11Z</time>
      </trkpt>
      <trkpt lat="46.189293824136257" lon="8.971202177926898">
        <ele>867.73000000000002</ele>
        <time>2019-01-06T15:05:23Z</time>
      </trkpt>
      <trkpt lat="46.189271192997694" lon="8.971175020560622">
        <ele>866.28999999999996</ele>
        <time>2019-01-06T15:05:27Z</time>
      </trkpt>
      <trkpt lat="46.189257111400366" lon="8.971164962276816">
        <ele>865.79999999999995</ele>
        <time>2019-01-06T15:05:30Z</time>
      </trkpt>
      <trkpt lat="46.189219309017062" lon="8.971072258427739">
        <ele>862.44000000000005</ele>
        <time>2019-01-06T15:05:39Z</time>
      </trkpt>
      <trkpt lat="46.18919282220304" lon="8.970996737480164">
        <ele>860.03999999999996</ele>
        <time>2019-01-06T15:05:48Z</time>
      </trkpt>
      <trkpt lat="46.189112942665815" lon="8.970969915390015">
        <ele>857.14999999999998</ele>
        <time>2019-01-06T15:05:59Z</time>
      </trkpt>
      <trkpt lat="46.18906969204545" lon="8.970966897904873">
        <ele>856.19000000000005</ele>
        <time>2019-01-06T15:06:04Z</time>
      </trkpt>
      <trkpt lat="46.188982520252466" lon="8.970906464383006">
        <ele>856.19000000000005</ele>
        <time>2019-01-06T15:06:14Z</time>
      </trkpt>
      <trkpt lat="46.188885290175676" lon="8.970848629251123">
        <ele>855.71000000000004</ele>
        <time>2019-01-06T15:06:25Z</time>
      </trkpt>
      <trkpt lat="46.188879339024425" lon="8.970760703086853">
        <ele>853.30999999999995</ele>
        <time>2019-01-06T15:06:36Z</time>
      </trkpt>
      <trkpt lat="46.188866682350636" lon="8.970662299543619">
        <ele>851.38</ele>
        <time>2019-01-06T15:06:46Z</time>
      </trkpt>
      <trkpt lat="46.188854528591037" lon="8.970562806352973">
        <ele>848.98000000000002</ele>
        <time>2019-01-06T15:06:57Z</time>
      </trkpt>
      <trkpt lat="46.188836256042123" lon="8.970472784712911">
        <ele>847.05999999999995</ele>
        <time>2019-01-06T15:07:06Z</time>
      </trkpt>
      <trkpt lat="46.188798788934946" lon="8.970402628183365">
        <ele>845.62</ele>
        <time>2019-01-06T15:07:15Z</time>
      </trkpt>
      <trkpt lat="46.188745815306902" lon="8.970398604869843">
        <ele>843.21000000000004</ele>
        <time>2019-01-06T15:07:24Z</time>
      </trkpt>
      <trkpt lat="46.188692841678858" lon="8.970367256551981">
        <ele>840.80999999999995</ele>
        <time>2019-01-06T15:07:35Z</time>
      </trkpt>
      <trkpt lat="46.188614973798394" lon="8.970332387834787">
        <ele>839.85000000000002</ele>
        <time>2019-01-06T15:07:47Z</time>
      </trkpt>
      <trkpt lat="46.188585804775357" lon="8.970300117507577">
        <ele>838.88999999999999</ele>
        <time>2019-01-06T15:07:57Z</time>
      </trkpt>
      <trkpt lat="46.188589576631784" lon="8.970386786386371">
        <ele>836.96000000000004</ele>
        <time>2019-01-06T15:08:04Z</time>
      </trkpt>
      <trkpt lat="46.188616314902902" lon="8.970458032563329">
        <ele>834.55999999999995</ele>
        <time>2019-01-06T15:08:15Z</time>
      </trkpt>
      <trkpt lat="46.188621260225773" lon="8.970544785261154">
        <ele>832.15999999999997</ele>
        <time>2019-01-06T15:08:25Z</time>
      </trkpt>
      <trkpt lat="46.188580356538296" lon="8.970564734190702">
        <ele>832.15999999999997</ele>
        <time>2019-01-06T15:08:35Z</time>
      </trkpt>
      <trkpt lat="46.18855663575232" lon="8.970599602907896">
        <ele>829.26999999999998</ele>
        <time>2019-01-06T15:08:47Z</time>
      </trkpt>
      <trkpt lat="46.188540710136294" lon="8.970693312585354">
        <ele>826.87</ele>
        <time>2019-01-06T15:08:58Z</time>
      </trkpt>
      <trkpt lat="46.188486311584711" lon="8.97077176719904">
        <ele>823.99000000000001</ele>
        <time>2019-01-06T15:09:08Z</time>
      </trkpt>
      <trkpt lat="46.188464015722275" lon="8.970861034467816">
        <ele>820.62</ele>
        <time>2019-01-06T15:09:17Z</time>
      </trkpt>
      <trkpt lat="46.188461584970355" lon="8.970951391384006">
        <ele>817.25999999999999</ele>
        <time>2019-01-06T15:09:27Z</time>
      </trkpt>
      <trkpt lat="46.188449515029788" lon="8.970969077199698">
        <ele>816.77999999999997</ele>
        <time>2019-01-06T15:09:29Z</time>
      </trkpt>
      <trkpt lat="46.188385980203748" lon="8.971001682803035">
        <ele>814.37</ele>
        <time>2019-01-06T15:09:39Z</time>
      </trkpt>
      <trkpt lat="46.1883245408535" lon="8.971003023907542">
        <ele>811.49000000000001</ele>
        <time>2019-01-06T15:09:51Z</time>
      </trkpt>
      <trkpt lat="46.188348261639476" lon="8.971079802140594">
        <ele>810.04999999999995</ele>
        <time>2019-01-06T15:10:03Z</time>
      </trkpt>
      <trkpt lat="46.188323702663183" lon="8.971148617565632">
        <ele>808.13</ele>
        <time>2019-01-06T15:10:13Z</time>
      </trkpt>
      <trkpt lat="46.188243236392736" lon="8.971122549846768">
        <ele>806.67999999999995</ele>
        <time>2019-01-06T15:10:22Z</time>
      </trkpt>
      <trkpt lat="46.188174085691571" lon="8.971064127981663">
        <ele>804.27999999999997</ele>
        <time>2019-01-06T15:10:33Z</time>
      </trkpt>
      <trkpt lat="46.188123794272542" lon="8.971000509336591">
        <ele>802.36000000000001</ele>
        <time>2019-01-06T15:10:44Z</time>
      </trkpt>
      <trkpt lat="46.188063360750675" lon="8.970920210704207">
        <ele>801.39999999999998</ele>
        <time>2019-01-06T15:10:54Z</time>
      </trkpt>
      <trkpt lat="46.188051961362362" lon="8.970841420814395">
        <ele>798.50999999999999</ele>
        <time>2019-01-06T15:11:00Z</time>
      </trkpt>
      <trkpt lat="46.188009884208441" lon="8.97081476636231">
        <ele>797.07000000000005</ele>
        <time>2019-01-06T15:11:10Z</time>
      </trkpt>
      <trkpt lat="46.187975350767374" lon="8.970914930105209">
        <ele>795.63</ele>
        <time>2019-01-06T15:11:18Z</time>
      </trkpt>
      <trkpt lat="46.187949366867542" lon="8.970945607870817">
        <ele>795.63</ele>
        <time>2019-01-06T15:11:27Z</time>
      </trkpt>
      <trkpt lat="46.187949785962701" lon="8.970894226804376">
        <ele>794.19000000000005</ele>
        <time>2019-01-06T15:11:43Z</time>
      </trkpt>
      <trkpt lat="46.18793654255569" lon="8.970853574573994">
        <ele>792.74000000000001</ele>
        <time>2019-01-06T15:12:04Z</time>
      </trkpt>
      <trkpt lat="46.187944589182734" lon="8.970810491591692">
        <ele>794.19000000000005</ele>
        <time>2019-01-06T15:12:24Z</time>
      </trkpt>
      <trkpt lat="46.187938302755356" lon="8.970813760533929">
        <ele>794.19000000000005</ele>
        <time>2019-01-06T15:12:43Z</time>
      </trkpt>
      <trkpt lat="46.187896141782403" lon="8.97084217518568">
        <ele>793.22000000000003</ele>
        <time>2019-01-06T15:12:56Z</time>
      </trkpt>
      <trkpt lat="46.187874767929316" lon="8.970885090529919">
        <ele>793.22000000000003</ele>
        <time>2019-01-06T15:13:16Z</time>
      </trkpt>
      <trkpt lat="46.187880299985409" lon="8.970882575958967">
        <ele>794.19000000000005</ele>
        <time>2019-01-06T15:13:26Z</time>
      </trkpt>
      <trkpt lat="46.187914414331317" lon="8.970870841294527">
        <ele>794.19000000000005</ele>
        <time>2019-01-06T15:13:41Z</time>
      </trkpt>
      <trkpt lat="46.187948361039162" lon="8.970848964527249">
        <ele>793.71000000000004</ele>
        <time>2019-01-06T15:13:55Z</time>
      </trkpt>
      <trkpt lat="46.187997730448842" lon="8.970860447734594">
        <ele>794.19000000000005</ele>
        <time>2019-01-06T15:14:12Z</time>
      </trkpt>
      <trkpt lat="46.187943331897259" lon="8.970843767747283">
        <ele>798.02999999999997</ele>
        <time>2019-01-06T15:14:27Z</time>
      </trkpt>
      <trkpt lat="46.187894800677896" lon="8.970858687534928">
        <ele>796.59000000000003</ele>
        <time>2019-01-06T15:14:45Z</time>
      </trkpt>
      <trkpt lat="46.187929334118962" lon="8.970821052789688">
        <ele>796.59000000000003</ele>
        <time>2019-01-06T15:15:02Z</time>
      </trkpt>
      <trkpt lat="46.187989935278893" lon="8.970818035304546">
        <ele>795.63</ele>
        <time>2019-01-06T15:15:24Z</time>
      </trkpt>
      <trkpt lat="46.187971578910947" lon="8.970774365589023">
        <ele>794.66999999999996</ele>
        <time>2019-01-06T15:15:44Z</time>
      </trkpt>
      <trkpt lat="46.187917767092586" lon="8.970760283991695">
        <ele>795.14999999999998</ele>
        <time>2019-01-06T15:16:00Z</time>
      </trkpt>
      <trkpt lat="46.187877533957362" lon="8.970723152160645">
        <ele>794.19000000000005</ele>
        <time>2019-01-06T15:16:12Z</time>
      </trkpt>
      <trkpt lat="46.187879210337996" lon="8.97060857154429">
        <ele>792.74000000000001</ele>
        <time>2019-01-06T15:16:25Z</time>
      </trkpt>
      <trkpt lat="46.187909720465541" lon="8.970499020069838">
        <ele>791.77999999999997</ele>
        <time>2019-01-06T15:16:37Z</time>
      </trkpt>
      <trkpt lat="46.187913157045841" lon="8.970408327877522">
        <ele>790.34000000000003</ele>
        <time>2019-01-06T15:16:48Z</time>
      </trkpt>
      <trkpt lat="46.187915168702602" lon="8.970307158306241">
        <ele>787.94000000000005</ele>
        <time>2019-01-06T15:17:00Z</time>
      </trkpt>
      <trkpt lat="46.187891028821468" lon="8.970266589894891">
        <ele>786.01999999999998</ele>
        <time>2019-01-06T15:17:11Z</time>
      </trkpt>
      <trkpt lat="46.187784494832158" lon="8.970272289589047">
        <ele>782.64999999999998</ele>
        <time>2019-01-06T15:17:23Z</time>
      </trkpt>
      <trkpt lat="46.187742836773396" lon="8.970205737277865">
        <ele>780.73000000000002</ele>
        <time>2019-01-06T15:17:33Z</time>
      </trkpt>
      <trkpt lat="46.187770580872893" lon="8.970089983195067">
        <ele>778.32000000000005</ele>
        <time>2019-01-06T15:17:43Z</time>
      </trkpt>
      <trkpt lat="46.187788601964712" lon="8.97001932375133">
        <ele>777.84000000000003</ele>
        <time>2019-01-06T15:17:52Z</time>
      </trkpt>
      <trkpt lat="46.187773598358035" lon="8.969914382323623">
        <ele>775.91999999999996</ele>
        <time>2019-01-06T15:18:03Z</time>
      </trkpt>
      <trkpt lat="46.187774855643511" lon="8.969828467816114">
        <ele>774.48000000000002</ele>
        <time>2019-01-06T15:18:14Z</time>
      </trkpt>
      <trkpt lat="46.187756918370724" lon="8.969754036515951">
        <ele>773.51999999999998</ele>
        <time>2019-01-06T15:18:20Z</time>
      </trkpt>
      <trkpt lat="46.187741663306952" lon="8.969590589404106">
        <ele>770.63</ele>
        <time>2019-01-06T15:18:32Z</time>
      </trkpt>
      <trkpt lat="46.187738226726651" lon="8.969494616612792">
        <ele>768.23000000000002</ele>
        <time>2019-01-06T15:18:43Z</time>
      </trkpt>
      <trkpt lat="46.187726240605116" lon="8.969379449263215">
        <ele>765.83000000000004</ele>
        <time>2019-01-06T15:18:53Z</time>
      </trkpt>
      <trkpt lat="46.1877425853163" lon="8.969284230843186">
        <ele>763.89999999999998</ele>
        <time>2019-01-06T15:19:04Z</time>
      </trkpt>
      <trkpt lat="46.187716349959373" lon="8.969181049615145">
        <ele>761.01999999999998</ele>
        <time>2019-01-06T15:19:15Z</time>
      </trkpt>
      <trkpt lat="46.187689863145351" lon="8.969120867550373">
        <ele>759.10000000000002</ele>
        <time>2019-01-06T15:19:23Z</time>
      </trkpt>
      <trkpt lat="46.187714925035834" lon="8.968975022435188">
        <ele>756.69000000000005</ele>
        <time>2019-01-06T15:19:33Z</time>
      </trkpt>
      <trkpt lat="46.187722468748689" lon="8.968852059915662">
        <ele>755.25</ele>
        <time>2019-01-06T15:19:42Z</time>
      </trkpt>
      <trkpt lat="46.187728252261877" lon="8.968713926151395">
        <ele>755.25</ele>
        <time>2019-01-06T15:19:54Z</time>
      </trkpt>
      <trkpt lat="46.187712410464883" lon="8.968671932816505">
        <ele>753.80999999999995</ele>
        <time>2019-01-06T15:19:56Z</time>
      </trkpt>
      <trkpt lat="46.187669076025486" lon="8.968560704961419">
        <ele>753.33000000000004</ele>
        <time>2019-01-06T15:20:06Z</time>
      </trkpt>
      <trkpt lat="46.187598500400782" lon="8.968462804332376">
        <ele>749.97000000000003</ele>
        <time>2019-01-06T15:20:17Z</time>
      </trkpt>
      <trkpt lat="46.187562877312303" lon="8.968370519578457">
        <ele>749</ele>
        <time>2019-01-06T15:20:26Z</time>
      </trkpt>
      <trkpt lat="46.187532786279917" lon="8.968251412734389">
        <ele>749</ele>
        <time>2019-01-06T15:20:37Z</time>
      </trkpt>
      <trkpt lat="46.187495402991772" lon="8.968111518770456">
        <ele>746.60000000000002</ele>
        <time>2019-01-06T15:20:46Z</time>
      </trkpt>
      <trkpt lat="46.187465479597449" lon="8.968060053884983">
        <ele>747.55999999999995</ele>
        <time>2019-01-06T15:20:57Z</time>
      </trkpt>
      <trkpt lat="46.187448296695948" lon="8.967920327559114">
        <ele>746.12</ele>
        <time>2019-01-06T15:21:08Z</time>
      </trkpt>
      <trkpt lat="46.187418373301625" lon="8.967773895710707">
        <ele>745.15999999999997</ele>
        <time>2019-01-06T15:21:18Z</time>
      </trkpt>
      <trkpt lat="46.187389036640525" lon="8.967658393085003">
        <ele>743.72000000000003</ele>
        <time>2019-01-06T15:21:28Z</time>
      </trkpt>
      <trkpt lat="46.187332710251212" lon="8.96759276278317">
        <ele>741.78999999999996</ele>
        <time>2019-01-06T15:21:38Z</time>
      </trkpt>
      <trkpt lat="46.187291219830513" lon="8.967579687014222">
        <ele>738.42999999999995</ele>
        <time>2019-01-06T15:21:46Z</time>
      </trkpt>
      <trkpt lat="46.187258027493954" lon="8.967636851593852">
        <ele>736.02999999999997</ele>
        <time>2019-01-06T15:21:53Z</time>
      </trkpt>
      <trkpt lat="46.18717479519546" lon="8.967597289010882">
        <ele>735.54999999999995</ele>
        <time>2019-01-06T15:22:02Z</time>
      </trkpt>
      <trkpt lat="46.18711075745523" lon="8.9675048366189">
        <ele>733.62</ele>
        <time>2019-01-06T15:22:12Z</time>
      </trkpt>
      <trkpt lat="46.187089635059237" lon="8.967397715896368">
        <ele>731.22000000000003</ele>
        <time>2019-01-06T15:22:22Z</time>
      </trkpt>
      <trkpt lat="46.187050323933363" lon="8.967273496091366">
        <ele>729.77999999999997</ele>
        <time>2019-01-06T15:22:35Z</time>
      </trkpt>
      <trkpt lat="46.18701109662652" lon="8.96715397015214">
        <ele>728.34000000000003</ele>
        <time>2019-01-06T15:22:47Z</time>
      </trkpt>
      <trkpt lat="46.18694462813437" lon="8.967091692611575">
        <ele>725.92999999999995</ele>
        <time>2019-01-06T15:22:57Z</time>
      </trkpt>
      <trkpt lat="46.186886457726359" lon="8.96706311032176">
        <ele>723.04999999999995</ele>
        <time>2019-01-06T15:23:08Z</time>
      </trkpt>
      <trkpt lat="46.186863491311669" lon="8.967139469459653">
        <ele>720.64999999999998</ele>
        <time>2019-01-06T15:23:17Z</time>
      </trkpt>
      <trkpt lat="46.186845134943724" lon="8.967145672068">
        <ele>717.75999999999999</ele>
        <time>2019-01-06T15:23:27Z</time>
      </trkpt>
      <trkpt lat="46.186798112466931" lon="8.967080293223262">
        <ele>715.36000000000001</ele>
        <time>2019-01-06T15:23:37Z</time>
      </trkpt>
      <trkpt lat="46.186733320355415" lon="8.966985326260328">
        <ele>712.95000000000005</ele>
        <time>2019-01-06T15:23:48Z</time>
      </trkpt>
      <trkpt lat="46.186721166595817" lon="8.966880720108748">
        <ele>710.54999999999995</ele>
        <time>2019-01-06T15:23:57Z</time>
      </trkpt>
      <trkpt lat="46.186692668125033" lon="8.966742418706417">
        <ele>709.59000000000003</ele>
        <time>2019-01-06T15:24:08Z</time>
      </trkpt>
      <trkpt lat="46.186646483838558" lon="8.966598501428962">
        <ele>709.11000000000001</ele>
        <time>2019-01-06T15:24:17Z</time>
      </trkpt>
      <trkpt lat="46.186644556000829" lon="8.966422816738486">
        <ele>708.63</ele>
        <time>2019-01-06T15:24:29Z</time>
      </trkpt>
      <trkpt lat="46.186621505767107" lon="8.966338159516454">
        <ele>708.14999999999998</ele>
        <time>2019-01-06T15:24:34Z</time>
      </trkpt>
      <trkpt lat="46.186598120257258" lon="8.966194242238998">
        <ele>705.25999999999999</ele>
        <time>2019-01-06T15:24:45Z</time>
      </trkpt>
      <trkpt lat="46.186582278460264" lon="8.966018725186586">
        <ele>701.89999999999998</ele>
        <time>2019-01-06T15:24:55Z</time>
      </trkpt>
      <trkpt lat="46.186566269025207" lon="8.965862905606628">
        <ele>699.5</ele>
        <time>2019-01-06T15:25:08Z</time>
      </trkpt>
      <trkpt lat="46.186497202143073" lon="8.965753689408302">
        <ele>697.57000000000005</ele>
        <time>2019-01-06T15:25:19Z</time>
      </trkpt>
      <trkpt lat="46.186384800821543" lon="8.965653106570244">
        <ele>694.21000000000004</ele>
        <time>2019-01-06T15:25:32Z</time>
      </trkpt>
      <trkpt lat="46.186361331492662" lon="8.965516313910484">
        <ele>691.80999999999995</ele>
        <time>2019-01-06T15:25:42Z</time>
      </trkpt>
      <trkpt lat="46.186352279037237" lon="8.965460155159235">
        <ele>690.36000000000001</ele>
        <time>2019-01-06T15:25:49Z</time>
      </trkpt>
      <trkpt lat="46.186354709789157" lon="8.965382287278771">
        <ele>687.96000000000004</ele>
        <time>2019-01-06T15:25:59Z</time>
      </trkpt>
      <trkpt lat="46.186320092529058" lon="8.965281452983618">
        <ele>688.44000000000005</ele>
        <time>2019-01-06T15:26:07Z</time>
      </trkpt>
      <trkpt lat="46.186250019818544" lon="8.965134769678116">
        <ele>690.84000000000003</ele>
        <time>2019-01-06T15:26:17Z</time>
      </trkpt>
      <trkpt lat="46.18616477586329" lon="8.965029073879123">
        <ele>691.33000000000004</ele>
        <time>2019-01-06T15:26:25Z</time>
      </trkpt>
      <trkpt lat="46.186063354834914" lon="8.964912900701165">
        <ele>692.76999999999998</ele>
        <time>2019-01-06T15:26:35Z</time>
      </trkpt>
      <trkpt lat="46.186003591865301" lon="8.964744424447417">
        <ele>692.28999999999996</ele>
        <time>2019-01-06T15:26:47Z</time>
      </trkpt>
      <trkpt lat="46.185913737863302" lon="8.964623808860779">
        <ele>690.84000000000003</ele>
        <time>2019-01-06T15:26:58Z</time>
      </trkpt>
      <trkpt lat="46.185830254107714" lon="8.964554406702519">
        <ele>688.91999999999996</ele>
        <time>2019-01-06T15:27:08Z</time>
      </trkpt>
      <trkpt lat="46.185778537765145" lon="8.964461702853441">
        <ele>687</ele>
        <time>2019-01-06T15:27:17Z</time>
      </trkpt>
      <trkpt lat="46.185683403164148" lon="8.964270511642098">
        <ele>684.60000000000002</ele>
        <time>2019-01-06T15:27:31Z</time>
      </trkpt>
      <trkpt lat="46.185574941337109" lon="8.964130869135261">
        <ele>682.19000000000005</ele>
        <time>2019-01-06T15:27:44Z</time>
      </trkpt>
      <trkpt lat="46.185484835878015" lon="8.964056270197034">
        <ele>681.71000000000004</ele>
        <time>2019-01-06T15:27:56Z</time>
      </trkpt>
      <trkpt lat="46.18549489416182" lon="8.964042104780674">
        <ele>680.75</ele>
        <time>2019-01-06T15:28:12Z</time>
      </trkpt>
      <trkpt lat="46.185479303821921" lon="8.964026682078838">
        <ele>682.66999999999996</ele>
        <time>2019-01-06T15:28:36Z</time>
      </trkpt>
      <trkpt lat="46.185475448146462" lon="8.96403749473393">
        <ele>683.63</ele>
        <time>2019-01-06T15:28:52Z</time>
      </trkpt>
    </trkseg>
  </trk>

</gpx>